[[{"header":{"parameterUnit":"m.s-1","parameterCategory":1,"la1":31.0,"la2":29.5877,"lo1":-88.7671,"lo2":-86.6584,"dx":0.0162,"dy":0.0185,"nx":115,"ny":88,"refTime":"2022-11-04T18:00:00:Z","depth":0,"parameterNumber":2,"parameterNumberName":"U-component_of_WINDS"},"data":[0.0,0.0,0.0,0.0,0.0,0.0,0.0,0.0,0.0,0.0,0.0,0.0,0.0,0.0,0.0,0.0,0.0,0.0,0.0,0.0,0.0,0.0,0.0,0.0,0.0,0.0,0.0,0.0,0.0,0.0,0.0,0.0,0.0,0.0,0.0,0.0,0.0,0.0,0.0,0.0,0.0,0.0,0.0,0.0,0.0,0.0,0.0,0.0,0.0,0.0,0.0,0.0,0.0,0.0,0.0,0.0,0.0,0.0,0.0,0.0,0.0,0.0,0.0,0.0,0.0,0.0,0.0,0.0,0.0,0.0,0.0,0.0,0.0,0.0,0.0,0.0,0.0,0.0,0.0,0.0,0.0,0.0,0.0,0.0,0.0,0.0,0.0,0.0,0.0,0.0,0.0,0.0,0.0,0.0,0.0,0.0,0.0,0.0,0.0,0.0,0.0,0.0,0.0,0.0,0.0,0.0,0.0,0.0,0.0,0.0,0.0,0.0,0.0,0.0,0.0,0.0,0.0,0.0,0.0,0.0,0.0,0.0,0.0,0.0,0.0,0.0,0.0,0.0,0.0,0.0,0.0,0.0,0.0,0.0,0.0,0.0,0.0,0.0,0.0,0.0,0.0,0.0,0.0,0.0,0.0,0.0,0.0,0.0,0.0,0.0,0.0,0.0,0.0,0.0,0.0,0.0,0.0,0.0,0.0,0.0,0.0,0.0,0.0,0.0,0.0,0.0,0.0,0.0,0.0,0.0,0.0,0.0,0.0,0.0,0.0,0.0,0.0,0.0,0.0,0.0,0.0,0.0,0.0,0.0,0.0,0.0,0.0,0.0,0.0,0.0,0.0,0.0,0.0,0.0,0.0,0.0,0.0,0.0,0.0,0.0,0.0,0.0,0.0,0.0,0.0,0.0,0.0,0.0,0.0,0.0,0.0,0.0,0.0,0.0,0.0,0.0,0.0,0.0,0.0,0.0,0.0,0.0,0.0,0.0,0.0,0.0,0.0,0.0,0.0,0.0,0.0,0.0,0.0,0.0,0.0,0.0,0.0,0.0,0.0,0.0,0.0,0.0,0.0,0.0,0.0,0.0,0.0,0.0,0.0,0.0,0.0,0.0,0.0,0.0,0.0,0.0,0.0,0.0,0.0,0.0,0.0,0.0,0.0,0.0,0.0,0.0,0.0,0.0,0.0,0.0,0.0,0.0,0.0,0.0,0.0,0.0,0.0,0.0,0.0,0.0,0.0,0.0,0.0,0.0,0.0,0.0,0.0,0.0,0.0,0.0,0.0,0.0,0.0,0.0,0.0,0.0,0.0,0.0,0.0,0.0,0.0,0.0,0.0,0.0,0.0,0.0,0.0,0.0,0.0,0.0,0.0,0.0,0.0,0.0,0.0,0.0,0.0,0.0,0.0,0.0,0.0,0.0,0.0,0.0,0.0,0.0,0.0,0.0,0.0,0.0,0.0,0.0,0.0,0.0,0.0,0.0,0.0,0.0,0.0,0.0,0.0,0.0,0.0,0.0,0.0,0.0,0.0,0.0,0.0,0.0,0.0,0.0,0.0,0.0,0.0,0.0,0.0,0.0,0.0,0.0,0.0,0.0,0.0,0.0,0.0,0.0,0.0,0.0,0.0,0.0,0.0,0.0,0.0,0.0,0.0,0.0,0.0,0.0,0.0,0.0,0.0,0.0,0.0,0.0,0.0,0.0,0.0,0.0,0.0,0.0,0.0,0.0,0.0,0.0,0.0,0.0,0.0,0.0,0.0,0.0,0.0,0.0,0.0,0.0,0.0,0.0,0.0,0.0,0.0,0.0,0.0,0.0,0.0,0.0,0.0,0.0,0.0,0.0,0.0,0.0,0.0,0.0,0.0,0.0,0.0,0.0,0.0,0.0,0.0,0.0,0.0,0.0,0.0,0.0,0.0,0.0,0.0,0.0,0.0,0.0,0.0,0.0,0.0,0.0,0.0,0.0,0.0,0.0,0.0,0.0,0.0,0.0,0.0,0.0,0.0,0.0,0.0,0.0,0.0,0.0,0.0,0.0,0.0,0.0,0.0,0.0,0.0,0.0,0.0,0.0,0.0,0.0,0.0,0.0,0.0,0.0,0.0,0.0,0.0,0.0,0.0,0.0,0.0,0.0,0.0,0.0,0.0,0.0,0.0,0.0,0.0,0.0,0.0,0.0,0.0,0.0,0.0,0.0,0.0,0.0,0.0,0.0,0.0,0.0,0.0,0.0,0.0,0.0,0.0,0.0,0.0,0.0,0.0,0.0,0.0,0.0,0.0,0.0,0.0,0.0,0.0,0.0,0.0,0.0,0.0,0.0,0.0,0.0,0.0,0.0,0.0,0.0,0.0,0.0,0.0,0.0,0.0,0.0,0.0,0.0,0.0,0.0,0.0,0.0,0.0,0.0,0.0,0.0,0.0,0.0,0.0,0.0,0.0,0.0,0.0,0.0,0.0,0.0,0.0,0.0,0.0,0.0,0.0,0.0,0.0,0.0,0.0,0.0,0.0,0.0,0.0,0.0,0.0,0.0,0.0,0.0,0.0,0.0,0.0,0.0,0.0,0.0,0.0,0.0,0.0,0.0,0.0,0.0,0.0,0.0,0.0,0.0,0.0,0.0,0.0,0.0,0.0,0.0,0.0,0.0,0.0,0.0,0.0,0.0,0.0,0.0,0.0,0.0,0.0,0.0,0.0,0.0,0.0,0.0,0.0,0.0,0.0,0.0,0.0,0.0,0.0,0.0,0.0,0.0,0.0,0.0,0.0,0.0,0.0,0.0,0.0,0.0,0.0,0.0,0.0,0.0,0.0,0.0,0.0,0.0,0.0,0.0,0.0,0.0,0.0,0.0,0.0,0.0,0.0,0.0,0.0,0.0,0.0,0.0,0.0,0.0,0.0,0.0,0.0,0.0,0.0,0.0,0.0,0.0,0.0,0.0,0.0,0.0,0.0,0.0,0.0,0.0,0.0,0.0,0.0,0.0,0.0,0.0,0.0,0.0,0.0,0.0,0.0,0.0,0.0,0.0,0.0,0.0,0.0,0.0,0.0,0.0,0.0,0.0,0.0,0.0,0.0,0.0,0.0,0.0,0.0,0.0,0.0,0.0,0.0,0.0,0.0,0.0,0.0,0.0,0.0,0.0,0.0,0.0,0.0,0.0,0.0,0.0,0.0,0.0,0.0,0.0,0.0,0.0,0.0,0.0,0.0,0.0,0.0,0.0,0.0,0.0,0.0,0.0,0.0,0.0,0.0,0.0,0.0,0.0,0.0,0.0,0.0,0.0,0.0,0.0,0.0,0.0,0.0,0.0,0.0,0.0,0.0,0.0,0.0,0.0,0.0,0.0,0.0,0.0,0.0,0.0,0.0,0.0,0.0,0.0,0.0,0.0,0.0,0.0,0.0,0.0,0.0,0.0,0.0,0.0,0.0,0.0,0.0,0.0,0.0,0.0,0.0,0.0,0.0,0.0,0.0,0.0,0.0,0.0,0.0,0.0,0.0,0.0,0.0,0.0,0.0,0.0,0.0,0.0,0.0,0.0,0.0,0.0,0.0,0.0,0.0,0.0,0.0,0.0,0.0,0.0,0.0,0.0,0.0,0.0,0.0,0.0,0.0,0.0,0.0,0.0,0.0,0.0,0.0,0.0,0.0,0.0,0.0,0.0,0.0,0.0,0.0,0.0,0.0,0.0,0.0,0.0,0.0,0.0,0.0,0.0,0.0,0.0,0.0,0.0,0.0,0.0,0.0,0.0,0.0,0.0,0.0,0.0,0.0,0.0,0.0,0.0,0.0,0.0,0.0,0.0,0.0,0.0,0.0,0.0,0.0,0.0,0.0,0.0,0.0,0.0,0.0,0.0,0.0,0.0,0.0,0.0,0.0,0.0,0.0,0.0,0.0,0.0,0.0,0.0,0.0,0.0,0.0,0.0,0.0,0.0,0.0,0.0,0.0,0.0,0.0,0.0,0.0,0.0,0.0,0.0,0.0,0.0,0.0,0.0,0.0,0.0,0.0,0.0,0.0,0.0,0.0,0.0,0.0,0.0,0.0,0.0,0.0,0.0,0.0,0.0,0.0,0.0,0.0,0.0,0.0,0.0,0.0,0.0,0.0,0.0,0.0,0.0,0.0,0.0,0.0,0.0,0.0,0.0,0.0,0.0,0.0,0.0,0.0,0.0,0.0,0.0,0.0,0.0,0.0,0.0,0.0,0.0,0.0,0.0,0.0,0.0,0.0,0.0,0.0,0.0,2.3125,0.0,0.0,0.0,2.3125,0.0,0.0,0.0,0.0,0.0,0.0,0.0,0.0,0.0,0.0,0.0,0.0,0.0,0.0,0.0,0.0,0.0,0.0,0.0,0.0,0.0,0.0,0.0,0.0,0.0,0.0,0.0,0.0,0.0,0.0,0.0,0.0,0.0,0.0,0.0,0.0,0.0,0.0,0.0,0.0,0.0,0.0,0.0,0.0,0.0,0.0,0.0,0.0,0.0,0.0,0.0,0.0,0.0,0.0,0.0,0.0,0.0,0.0,0.0,0.0,0.0,0.0,0.0,0.0,0.0,0.0,0.0,0.0,0.0,0.0,0.0,0.0,0.0,0.0,0.0,0.0,0.0,0.0,0.0,0.0,0.0,0.0,0.0,0.0,0.0,0.0,0.0,0.0,0.0,0.0,0.0,0.0,0.0,0.0,0.0,0.0,0.0,0.0,0.0,0.0,0.0,0.0,0.0,0.0,0.0,0.0,0.0,0.0,0.0,0.0,2.3602,2.3602,2.3904,2.3904,2.3602,0.0,0.0,0.0,0.0,0.0,0.0,0.0,0.0,0.0,0.0,0.0,0.0,0.0,0.0,0.0,0.0,0.0,0.0,0.0,0.0,0.0,0.0,0.0,0.0,0.0,0.0,0.0,0.0,0.0,0.0,0.0,0.0,0.0,0.0,0.0,0.0,0.0,0.0,0.0,0.0,0.0,0.0,0.0,0.0,0.0,0.0,0.0,0.0,0.0,0.0,0.0,0.0,0.0,0.0,0.0,0.0,0.0,0.0,0.0,0.0,0.0,0.0,0.0,0.0,0.0,0.0,0.0,0.0,0.0,0.0,0.0,0.0,0.0,0.0,0.0,0.0,0.0,0.0,0.0,0.0,0.0,0.0,0.0,0.0,0.0,0.0,0.0,0.0,0.0,0.0,0.0,0.0,0.0,0.0,0.0,0.0,0.0,0.0,0.0,0.0,0.0,0.0,0.0,0.0,0.0,0.0,0.0,0.0,0.0,0.0,0.0,0.0,2.4481,2.4381,2.3828,0.0,0.0,0.0,0.0,0.0,0.0,0.0,0.0,0.0,0.0,0.0,0.0,0.0,0.0,0.0,0.0,0.0,0.0,0.0,0.0,0.0,0.0,0.0,0.0,0.0,0.0,0.0,0.0,0.0,0.0,0.0,0.0,0.0,0.0,0.0,0.0,0.0,0.0,0.0,0.0,0.0,0.0,0.0,0.0,0.0,0.0,0.0,0.0,0.0,0.0,0.0,0.0,0.0,0.0,0.0,0.0,0.0,0.0,0.0,0.0,0.0,0.0,0.0,0.0,0.0,0.0,0.0,0.0,0.0,0.0,0.0,0.0,0.0,0.0,0.0,0.0,0.0,0.0,0.0,0.0,0.0,0.0,0.0,0.0,0.0,0.0,0.0,0.0,0.0,0.0,0.0,0.0,0.0,0.0,0.0,0.0,0.0,0.0,0.0,0.0,0.0,0.0,0.0,0.0,0.0,0.0,0.0,0.0,0.0,0.0,2.4757,2.4732,2.4305,0.0,2.3351,0.0,0.0,0.0,0.0,0.0,0.0,0.0,0.0,0.0,0.0,0.0,0.0,0.0,0.0,0.0,0.0,0.0,0.0,0.0,0.0,0.0,0.0,0.0,0.0,0.0,0.0,0.0,0.0,0.0,0.0,0.0,0.0,0.0,0.0,0.0,0.0,0.0,0.0,0.0,0.0,0.0,0.0,0.0,0.0,0.0,0.0,0.0,0.0,0.0,0.0,0.0,0.0,0.0,0.0,0.0,0.0,0.0,0.0,0.0,0.0,0.0,0.0,0.0,0.0,0.0,0.0,0.0,0.0,0.0,0.0,0.0,0.0,0.0,0.0,0.0,0.0,0.0,0.0,0.0,0.0,0.0,0.0,0.0,0.0,0.0,0.0,0.0,0.0,0.0,0.0,0.0,0.0,0.0,0.0,0.0,0.0,0.0,0.0,0.0,0.0,0.0,0.0,0.0,0.0,0.0,0.0,0.0,0.0,0.0,0.0,2.427,2.3179,2.352,2.3709,0.0,0.0,0.0,0.0,0.0,0.0,0.0,0.0,0.0,0.0,0.0,0.0,0.0,0.0,0.0,0.0,0.0,0.0,0.0,0.0,0.0,0.0,0.0,0.0,0.0,0.0,0.0,0.0,0.0,0.0,0.0,0.0,0.0,0.0,0.0,0.0,0.0,0.0,0.0,0.0,0.0,0.0,0.0,0.0,0.0,0.0,0.0,0.0,0.0,0.0,0.0,0.0,0.0,0.0,0.0,0.0,0.0,0.0,0.0,0.0,0.0,0.0,0.0,0.0,0.0,0.0,0.0,0.0,0.0,0.0,0.0,0.0,0.0,0.0,0.0,0.0,0.0,0.0,0.0,0.0,0.0,0.0,0.0,0.0,0.0,0.0,0.0,0.0,0.0,0.0,0.0,0.0,0.0,0.0,0.0,0.0,0.0,0.0,0.0,0.0,0.0,0.0,0.0,0.0,0.0,0.0,0.0,0.0,0.0,0.0,2.3886,2.3559,2.2183,2.3419,2.3994,2.3576,0.0,0.0,0.0,0.0,0.0,0.0,0.0,0.0,0.0,0.0,0.0,0.0,0.0,0.0,0.0,0.0,0.0,0.0,0.0,0.0,0.0,0.0,0.0,0.0,0.0,0.0,0.0,0.0,0.0,0.0,0.0,0.0,0.0,0.0,0.0,0.0,0.0,0.0,0.0,0.0,0.0,0.0,0.0,0.0,0.0,0.0,0.0,0.0,0.0,0.0,0.0,0.0,0.0,0.0,0.0,0.0,0.0,0.0,0.0,0.0,0.0,0.0,0.0,0.0,0.0,0.0,0.0,0.0,0.0,0.0,0.0,0.0,0.0,0.0,0.0,0.0,0.0,0.0,0.0,0.0,0.0,0.0,0.0,0.0,0.0,0.0,0.0,0.0,0.0,0.0,0.0,0.0,0.0,0.0,0.0,0.0,0.0,0.0,0.0,0.0,0.0,0.0,0.0,0.0,0.0,0.0,0.0,0.0,2.2928,2.2973,2.2655,2.209,2.4424,2.4707,0.0,0.0,0.0,0.0,0.0,0.0,0.0,0.0,0.0,0.0,0.0,0.0,0.0,0.0,0.0,0.0,0.0,0.0,0.0,0.0,0.0,0.0,0.0,0.0,0.0,0.0,0.0,0.0,0.0,0.0,0.0,0.0,0.0,0.0,0.0,0.0,0.0,0.0,0.0,0.0,0.0,0.0,0.0,0.0,0.0,0.0,0.0,0.0,0.0,0.0,0.0,0.0,0.0,0.0,0.0,0.0,0.0,0.0,0.0,0.0,0.0,0.0,0.0,0.0,0.0,0.0,0.0,0.0,0.0,0.0,0.0,0.0,0.0,0.0,0.0,0.0,0.0,0.0,0.0,0.0,0.0,0.0,0.0,0.0,0.0,0.0,0.0,0.0,0.0,0.0,0.0,0.0,0.0,0.0,0.0,0.0,0.0,0.0,0.0,0.0,0.0,0.0,0.0,0.0,0.0,0.0,0.0,0.0,0.0,2.2327,2.1439,2.1419,2.2265,2.253,2.2452,0.0,0.0,0.0,0.0,0.0,0.0,0.0,0.0,0.0,0.0,0.0,0.0,0.0,0.0,0.0,0.0,0.0,0.0,0.0,0.0,0.0,0.0,0.0,0.0,0.0,0.0,0.0,0.0,0.0,0.0,0.0,0.0,0.0,0.0,0.0,0.0,0.0,0.0,0.0,0.0,0.0,0.0,0.0,0.0,0.0,0.0,0.0,0.0,0.0,0.0,0.0,0.0,0.0,0.0,0.0,0.0,0.0,0.0,0.0,0.0,0.0,0.0,0.0,0.0,0.0,0.0,0.0,0.0,0.0,0.0,0.0,0.0,0.0,0.0,0.0,0.0,0.0,0.0,0.0,0.0,0.0,0.0,0.0,0.0,0.0,0.0,0.0,0.0,0.0,0.0,0.0,0.0,0.0,0.0,0.0,0.0,0.0,0.0,0.0,0.0,0.0,0.0,0.0,0.0,0.0,0.0,0.0,0.0,0.0,2.1097,2.0282,2.0547,2.1758,2.1302,2.1198,0.0,0.0,0.0,0.0,0.0,0.0,0.0,0.0,0.0,0.0,0.0,0.0,0.0,0.0,0.0,0.0,0.0,0.0,0.0,0.0,0.0,0.0,0.0,0.0,0.0,0.0,0.0,0.0,0.0,0.0,0.0,0.0,0.0,0.0,0.0,0.0,0.0,0.0,0.0,0.0,0.0,0.0,0.0,0.0,0.0,0.0,0.0,0.0,0.0,0.0,0.0,0.0,0.0,0.0,0.0,0.0,0.0,0.0,0.0,0.0,0.0,0.0,0.0,0.0,0.0,0.0,0.0,0.0,0.0,0.0,0.0,0.0,0.0,0.0,0.0,0.0,0.0,0.0,0.0,0.0,0.0,0.0,0.0,0.0,0.0,0.0,0.0,0.0,0.0,0.0,0.0,0.0,0.0,0.0,0.0,0.0,0.0,0.0,0.0,0.0,0.0,0.0,0.0,0.0,0.0,0.0,0.0,0.0,1.9723,1.9355,1.9652,2.0119,2.0644,2.1022,2.1251,0.0,0.0,0.0,0.0,0.0,0.0,0.0,0.0,0.0,0.0,0.0,0.0,0.0,0.0,0.0,0.0,0.0,0.0,0.0,0.0,0.0,0.0,0.0,0.0,0.0,0.0,0.0,0.0,0.0,0.0,0.0,0.0,0.0,0.0,0.0,0.0,0.0,0.0,0.0,0.0,0.0,0.0,0.0,0.0,0.0,0.0,0.0,0.0,0.0,0.0,0.0,0.0,0.0,0.0,0.0,0.0,0.0,0.0,0.0,0.0,0.0,0.0,0.0,0.0,0.0,0.0,0.0,0.0,0.0,0.0,0.0,0.0,0.0,0.0,0.0,0.0,0.0,0.0,0.0,0.0,0.0,0.0,0.0,0.0,0.0,0.0,0.0,0.0,0.0,0.0,0.0,0.0,0.0,0.0,0.0,0.0,0.0,0.0,0.0,0.0,0.0,0.0,0.0,0.0,0.0,0.0,0.0,0.0,0.0,2.0099,1.8861,1.9181,2.1306,1.9755,1.9274,0.0,0.0,0.0,0.0,0.0,0.0,0.0,0.0,0.0,0.0,0.0,0.0,0.0,0.0,0.0,0.0,0.0,0.0,0.0,0.0,0.0,0.0,0.0,0.0,0.0,0.0,0.0,0.0,0.0,0.0,0.0,0.0,0.0,0.0,0.0,0.0,0.0,0.0,0.0,0.0,0.0,0.0,0.0,0.0,0.0,0.0,0.0,0.0,0.0,0.0,0.0,0.0,0.0,0.0,0.0,0.0,0.0,0.0,0.0,0.0,0.0,0.0,0.0,0.0,0.0,0.0,0.0,0.0,0.0,0.0,0.0,0.0,0.0,0.0,0.0,0.0,0.0,0.0,0.0,0.0,0.0,0.0,0.0,0.0,0.0,0.0,0.0,0.0,0.0,0.0,0.0,0.0,0.0,0.0,0.0,0.0,0.0,0.0,0.0,0.0,0.0,0.0,0.0,0.0,0.0,0.0,0.0,0.0,0.0,1.8049,1.7744,1.8425,2.0347,1.8697,1.819,1.9241,0.0,0.0,0.0,0.0,0.0,0.0,0.0,0.0,0.0,0.0,0.0,0.0,0.0,0.0,0.0,0.0,0.0,0.0,0.0,0.0,0.0,0.0,0.0,0.0,0.0,0.0,0.0,0.0,0.0,0.0,0.0,0.0,0.0,0.0,0.0,0.0,0.0,0.0,0.0,0.0,0.0,0.0,0.0,0.0,0.0,0.0,0.0,0.0,0.0,0.0,0.0,0.0,0.0,0.0,0.0,0.0,0.0,0.0,0.0,0.0,0.0,0.0,0.0,0.0,0.0,0.0,0.0,0.0,0.0,0.0,0.0,0.0,0.0,0.0,0.0,0.0,0.0,0.0,0.0,0.0,0.0,0.0,0.0,0.0,0.0,0.0,0.0,0.0,0.0,0.0,0.0,0.0,0.0,0.0,0.0,0.0,0.0,0.0,0.0,0.0,0.0,0.0,0.0,0.0,0.0,0.0,0.0,0.0,1.3853,1.6199,1.756,1.7928,1.777,1.785,0.0,0.0,0.0,0.0,0.0,0.0,0.0,0.0,0.0,0.0,0.0,0.0,0.0,0.0,0.0,0.0,0.0,0.0,0.0,0.0,0.0,0.0,0.0,0.0,0.0,0.0,0.0,0.0,0.0,0.0,0.0,0.0,0.0,0.0,0.0,0.0,0.0,0.0,0.0,0.0,0.0,0.0,0.0,0.0,0.0,0.0,0.0,0.0,0.0,0.0,0.0,0.0,0.0,0.0,0.0,0.0,0.0,0.0,0.0,0.0,0.0,0.0,0.0,0.0,0.0,0.0,0.0,0.0,0.0,0.0,0.0,0.0,0.0,0.0,0.0,0.0,0.0,0.0,0.0,0.0,0.0,0.0,0.0,0.0,0.0,0.0,0.0,0.0,0.0,0.0,0.0,0.0,0.0,0.0,0.0,0.0,0.0,0.0,0.0,0.0,0.0,0.0,0.0,0.0,0.0,0.0,0.0,0.0,0.0,1.1521,1.2406,1.4252,1.7037,1.7252,1.7525,0.0,0.0,0.0,0.0,0.0,0.0,0.0,0.0,0.0,0.0,0.0,0.0,0.0,0.0,0.0,0.0,0.0,0.0,0.0,0.0,0.0,0.0,0.0,0.0,0.0,0.0,0.0,0.0,0.0,0.0,0.0,0.0,0.0,0.0,0.0,0.0,0.0,0.0,0.0,0.0,0.0,0.0,0.0,0.0,0.0,0.0,0.0,0.0,0.0,0.0,0.0,0.0,0.0,0.0,0.0,0.0,0.0,0.0,0.0,0.0,0.0,0.0,0.0,0.0,0.0,0.0,0.0,0.0,0.0,0.0,0.0,0.0,0.0,0.0,0.0,0.0,0.0,0.0,0.0,0.0,0.0,0.0,0.0,0.0,0.0,0.0,0.0,0.0,0.0,0.0,0.0,0.0,0.0,0.0,0.0,0.0,0.0,0.0,0.0,0.0,0.0,0.0,0.0,0.0,0.0,0.0,0.0,0.0,0.8603,0.7716,0.843,1.022,1.2985,1.4764,1.6067,0.0,0.0,0.0,0.0,0.0,0.0,0.0,0.0,0.0,0.0,0.0,0.0,0.0,0.0,0.0,0.0,0.0,0.0,0.0,0.0,0.0,0.0,0.0,0.0,0.0,0.0,0.0,0.0,0.0,0.0,0.0,0.0,0.0,0.0,0.0,0.0,0.0,0.0,0.0,0.0,0.0,0.0,0.0,0.0,0.0,0.0,0.0,0.0,0.0,0.0,0.0,0.0,0.0,0.0,0.0,0.0,0.0,0.0,0.0,0.0,0.0,0.0,0.0,0.0,0.0,0.0,0.0,0.0,0.0,0.0,0.0,0.0,0.0,0.0,0.0,0.0,0.0,0.0,0.0,0.0,0.0,0.0,0.0,0.0,0.0,0.0,0.0,0.0,0.0,0.0,0.0,0.0,0.0,0.0,0.0,0.0,0.0,0.0,0.0,0.0,0.0,0.0,0.0,0.0,0.0,0.0,0.0,0.0,0.5359,0.3481,0.4654,0.5882,0.721,1.1292,1.3975,0.0,0.0,0.0,0.0,0.0,0.0,0.0,0.0,0.0,0.0,0.0,0.0,0.0,0.0,0.0,0.0,0.0,0.0,0.0,0.0,0.0,0.0,0.0,0.0,0.0,0.0,0.0,0.0,0.0,0.0,0.0,0.0,0.0,0.0,0.0,0.0,0.0,0.0,0.0,0.0,0.0,0.0,0.0,0.0,0.0,0.0,0.0,0.0,0.0,0.0,0.0,0.0,0.0,0.0,0.0,0.0,0.0,0.0,0.0,0.0,0.0,0.0,0.0,0.0,0.0,0.0,0.0,0.0,0.0,0.0,0.0,0.0,0.0,0.0,0.0,0.0,0.0,0.0,0.0,0.0,0.0,0.0,0.0,0.0,0.0,0.0,0.0,0.0,0.0,0.0,0.0,0.0,0.0,0.0,0.0,0.0,0.0,0.0,0.0,0.0,0.0,0.0,0.0,0.0,0.0,0.0,0.0,0.0,0.1133,0.0801,0.1964,0.2796,0.3221,0.8641,1.2225,0.0,0.0,0.0,0.0,0.0,0.0,0.0,0.0,0.0,0.0,0.0,0.0,0.0,0.0,0.0,0.0,0.0,0.0,0.0,0.0,0.0,0.0,0.0,0.0,0.0,0.0,0.0,0.0,0.0,0.0,0.0,0.0,0.0,0.0,0.0,0.0,0.0,0.0,0.0,0.0,0.0,0.0,0.0,0.0,0.0,0.0,0.0,0.0,2.4304,0.0,0.0,0.0,0.0,0.0,0.0,0.0,0.0,0.0,0.0,0.0,0.0,0.0,0.0,0.0,0.0,0.0,0.0,0.0,0.0,0.0,0.0,0.0,0.0,0.0,0.0,0.0,0.0,0.0,0.0,0.0,0.0,0.0,0.0,0.0,0.0,0.0,0.0,0.0,0.0,0.0,0.0,0.0,0.0,0.0,0.0,0.0,0.0,0.0,0.0,0.0,0.0,0.0,0.0,0.0,0.0,0.0,0.0,0.0,-0.2866,-0.3251,-0.2642,-0.1772,-0.0538,0.3016,0.7166,0.0,0.0,0.0,0.0,0.0,0.0,0.0,0.0,0.0,0.0,0.0,0.0,0.0,0.0,0.0,0.0,0.0,0.0,0.0,0.0,0.0,0.0,0.0,0.0,0.0,0.0,0.0,0.0,0.0,0.0,0.0,0.0,0.0,0.0,0.0,0.0,0.0,0.0,0.0,0.0,0.0,0.0,0.0,0.0,0.0,0.0,0.0,0.0,0.0,0.0,0.0,0.0,0.0,0.0,0.0,0.0,0.0,0.0,0.0,0.0,0.0,0.0,0.0,0.0,0.0,0.0,0.0,0.0,0.0,0.0,0.0,0.0,0.0,0.0,0.0,0.0,0.0,0.0,0.0,0.0,0.0,0.0,0.0,0.0,0.0,0.0,0.0,0.0,0.0,0.0,0.0,0.0,0.0,0.0,0.0,0.0,0.0,0.0,0.0,0.0,0.0,0.0,0.0,0.0,0.0,0.0,0.0,-0.5724,-0.688,-0.7974,-0.788,-0.6753,-0.4669,-0.3078,0.1131,0.8207,0.0,0.0,0.0,0.0,0.0,0.0,0.0,0.0,0.0,0.0,0.0,0.0,0.0,0.0,0.0,0.0,0.0,0.0,0.0,0.0,0.0,0.0,0.0,0.0,0.0,0.0,0.0,0.0,0.0,0.0,0.0,0.0,0.0,0.0,0.0,0.0,0.0,0.0,1.7896,1.9019,0.0,0.0,0.0,0.0,0.0,0.0,0.0,0.0,2.2654,0.0,0.0,0.0,0.0,0.0,0.0,0.0,0.0,0.0,0.0,0.0,0.0,0.0,0.0,0.0,0.0,0.0,0.0,0.0,0.0,0.0,0.0,0.0,0.0,0.0,0.0,0.0,0.0,0.0,0.0,0.0,0.0,0.0,0.0,0.0,0.0,0.0,0.0,0.0,0.0,0.0,0.0,0.0,0.0,0.0,0.0,0.0,0.0,0.0,0.0,0.0,0.0,0.0,0.0,0.0,0.0,-0.889,-1.0151,-1.1377,-1.2661,-1.1763,-1.073,-0.9639,-0.6312,-0.2838,0.0844,0.0,0.0,0.0,0.0,0.0,0.0,0.0,0.0,0.0,0.0,0.0,0.0,0.0,0.0,0.0,0.0,0.0,0.0,0.0,0.0,0.0,0.0,0.0,0.0,0.0,0.0,0.0,0.0,0.0,0.0,0.0,0.0,0.0,0.0,0.0,0.0,0.0,0.0,0.0,1.7979,1.8431,0.0,0.0,0.0,0.0,0.0,0.0,0.0,0.0,2.1369,0.0,0.0,0.0,0.0,0.0,0.0,0.0,0.0,0.0,0.0,0.0,0.0,0.0,0.0,0.0,0.0,0.0,0.0,0.0,0.0,0.0,0.0,0.0,0.0,0.0,0.0,0.0,0.0,0.0,0.0,0.0,0.0,0.0,0.0,0.0,0.0,0.0,0.0,0.0,0.0,0.0,0.0,0.0,0.0,0.0,0.0,0.0,0.0,0.0,0.0,0.0,0.0,0.0,0.0,0.0,-1.246,-1.4365,-1.5756,-1.6395,-1.5848,-1.5218,-1.4345,-1.0794,-0.7443,0.0,0.0,0.0,0.0,0.0,0.0,0.0,0.0,0.0,0.0,0.0,0.0,0.0,0.0,0.0,0.0,0.0,0.0,0.0,0.0,0.0,0.0,0.0,0.0,0.0,0.0,0.0,0.0,0.0,0.0,0.0,0.0,0.0,0.0,0.0,0.0,0.0,0.0,0.0,0.0,1.5369,1.6025,1.6297,0.0,0.0,0.0,0.0,0.0,0.0,2.0254,2.0491,0.0,0.0,0.0,0.0,0.0,0.0,0.0,0.0,0.0,0.0,0.0,0.0,0.0,0.0,0.0,0.0,0.0,0.0,0.0,0.0,0.0,0.0,0.0,0.0,0.0,0.0,0.0,0.0,0.0,0.0,0.0,0.0,0.0,0.0,0.0,0.0,0.0,0.0,0.0,0.0,0.0,0.0,0.0,0.0,0.0,0.0,0.0,0.0,0.0,0.0,0.0,0.0,0.0,0.0,0.0,-1.5675,-1.7846,-1.9269,-1.9733,-1.9596,-1.9116,-1.8353,-1.5043,-1.1721,0.0,0.0,0.0,0.0,0.0,0.0,0.0,0.0,0.0,0.0,0.0,0.0,0.0,0.0,0.0,0.0,0.0,0.0,0.0,0.0,0.0,0.0,0.0,0.0,0.0,0.0,0.0,0.0,0.0,0.0,0.0,0.0,0.0,0.0,0.0,0.0,0.0,0.0,0.0,0.0,0.0,1.343,1.3748,1.505,0.0,0.0,0.0,0.0,1.8637,1.8982,0.0,0.0,0.0,0.0,0.0,0.0,0.0,0.0,0.0,0.0,0.0,0.0,0.0,0.0,0.0,0.0,0.0,0.0,0.0,0.0,0.0,0.0,0.0,0.0,0.0,0.0,0.0,0.0,0.0,0.0,0.0,0.0,0.0,0.0,0.0,0.0,0.0,0.0,0.0,0.0,0.0,0.0,0.0,0.0,0.0,0.0,0.0,0.0,0.0,0.0,0.0,0.0,0.0,0.0,0.0,0.0,-1.8648,-1.9461,-2.0886,-2.2796,-2.2071,-2.1286,-2.0537,-1.8014,-1.5095,0.0,0.0,0.0,0.0,0.0,0.0,0.0,0.0,0.0,0.0,0.0,0.0,0.0,0.0,0.0,0.0,0.0,0.0,0.0,0.0,0.0,0.0,0.0,0.0,0.0,0.0,0.0,0.0,0.0,0.0,0.0,0.0,0.0,0.0,0.0,0.0,0.0,0.0,0.0,0.0,0.0,1.1121,1.1441,1.1445,1.1791,0.0,0.0,1.4851,1.5898,1.6927,0.0,0.0,0.0,0.0,0.0,0.0,0.0,0.0,0.0,0.0,0.0,0.0,0.0,0.0,0.0,0.0,0.0,0.0,0.0,0.0,0.0,0.0,0.0,0.0,0.0,0.0,0.0,0.0,0.0,0.0,0.0,0.0,0.0,0.0,0.0,0.0,0.0,0.0,0.0,0.0,0.0,0.0,0.0,0.0,0.0,0.0,0.0,0.0,0.0,0.0,0.0,0.0,0.0,0.0,0.0,-1.6916,-2.0043,-2.1397,-2.2769,-2.4253,-2.3891,-2.3431,-2.2801,-2.0293,-1.7497,0.0,0.0,0.0,0.0,0.0,0.0,0.0,0.0,0.0,0.0,0.0,0.0,0.0,0.0,0.0,0.0,0.0,0.0,0.0,0.0,0.0,0.0,0.0,0.0,0.0,0.0,0.0,0.0,0.0,0.0,0.0,0.0,0.0,0.0,0.0,0.0,0.0,0.0,0.0,0.0,0.0,0.0,0.9812,1.0396,0.0,0.0,0.0,1.2856,1.4698,0.0,0.0,0.0,0.0,0.0,0.0,0.0,0.0,0.0,0.0,0.0,0.0,0.0,0.0,0.0,0.0,0.0,0.0,0.0,0.0,0.0,0.0,0.0,0.0,0.0,0.0,0.0,0.0,0.0,0.0,0.0,0.0,0.0,0.0,0.0,0.0,0.0,0.0,0.0,0.0,0.0,0.0,0.0,0.0,0.0,0.0,0.0,0.0,0.0,0.0,0.0,0.0,0.0,0.0,0.0,0.0,0.0,-2.1096,-2.2672,-2.4108,-2.53,-2.5158,-2.4679,-2.3988,-2.1935,0.0,0.0,0.0,0.0,0.0,0.0,0.0,0.0,0.0,0.0,0.0,0.0,0.0,0.0,0.0,0.0,0.0,0.0,0.0,0.0,0.0,0.0,0.0,0.0,0.0,0.0,0.0,0.8356,0.0,0.0,0.0,0.0,0.0,0.0,0.0,0.0,0.0,0.0,0.0,0.0,0.0,0.0,0.6532,0.7506,0.8414,0.8738,0.0,0.0,1.0651,1.2829,1.3442,1.4321,0.0,0.0,0.0,0.0,0.0,0.0,0.0,0.0,0.0,0.0,0.0,0.0,0.0,0.0,0.0,0.0,0.0,0.0,0.0,0.0,0.0,0.0,0.0,0.0,0.0,0.0,0.0,0.0,0.0,0.0,0.0,0.0,0.0,0.0,0.0,0.0,0.0,0.0,0.0,0.0,0.0,0.0,0.0,0.0,0.0,0.0,0.0,0.0,0.0,0.0,0.0,0.0,0.0,0.0,-1.884,-2.2,-2.3033,-2.4469,-2.6233,-2.5511,-2.4492,-2.357,-2.2489,-2.0033,0.0,0.0,0.0,0.0,0.0,0.0,0.0,0.0,0.0,0.0,0.0,0.0,0.0,0.0,0.0,0.0,0.0,0.0,0.0,0.0,0.0,0.0,0.0,0.0,0.0,0.0,0.0,0.0,0.0,0.0,0.0,0.0,0.0,0.0,0.0,0.0,0.0,0.0,0.0,0.0,0.0,0.3842,0.3931,0.402,0.4465,0.0,0.658,0.7811,0.9069,1.1047,1.2832,1.4099,0.0,0.0,0.0,0.0,0.0,0.0,0.0,0.0,0.0,0.0,0.0,0.0,0.0,0.0,0.0,0.0,0.0,0.0,0.0,0.0,0.0,0.0,0.0,0.0,0.0,0.0,0.0,0.0,0.0,0.0,0.0,0.0,0.0,0.0,0.0,0.0,0.0,0.0,0.0,0.0,0.0,0.0,0.0,0.0,0.0,0.0,0.0,0.0,0.0,0.0,0.0,0.0,0.0,-1.9858,-2.2469,-2.3787,-2.5063,-2.6396,-2.6094,-2.5134,-2.3526,-2.3136,-2.1246,0.0,0.0,0.0,0.0,0.0,0.0,0.0,0.0,0.0,0.0,0.0,0.0,0.0,0.0,0.0,0.0,0.0,0.0,0.0,0.0,0.0,0.0,0.0,0.0,0.0,0.0,0.0,0.0,0.4651,0.4697,0.4844,0.0,0.0,0.0,0.0,0.0,0.0,0.0,0.0,0.0,0.0,0.2552,0.2643,0.3279,0.0,0.0,0.4867,0.6591,0.7643,0.9218,1.067,1.1735,1.2967,0.0,0.0,0.0,0.0,0.0,0.0,0.0,0.0,0.0,0.0,0.0,0.0,0.0,0.0,0.0,0.0,0.0,0.0,0.0,0.0,0.0,0.0,0.0,0.0,0.0,0.0,0.0,0.0,0.0,0.0,0.0,0.0,0.0,0.0,0.0,0.0,0.0,0.0,0.0,0.0,0.0,0.0,0.0,0.0,0.0,0.0,0.0,0.0,0.0,0.0,0.0,0.0,-2.079,-2.2905,-2.4284,-2.5511,-2.6465,-2.6533,-2.5652,-2.4036,-2.3672,-2.202,0.0,0.0,0.0,0.0,0.0,0.0,0.0,0.0,0.0,0.0,0.0,0.0,0.0,0.0,0.0,0.0,0.0,0.0,0.0,0.0,0.0,0.0,0.0,0.0,0.0,0.0,0.0,0.0,0.3409,0.3338,0.3123,0.0,0.0,0.0,0.0,0.0,0.0,0.0,0.0,0.0,0.0,0.1282,0.1374,0.2114,0.2477,0.1902,0.3307,0.4802,0.5896,0.7465,0.882,0.992,0.0,0.0,0.0,0.0,0.0,0.0,0.0,0.0,0.0,0.0,0.0,0.0,0.0,0.0,0.0,0.0,0.0,0.0,0.0,0.0,0.0,0.0,0.0,0.0,0.0,0.0,0.0,-1.036,0.0,0.0,-1.0504,0.0,0.0,0.0,0.0,0.0,0.0,0.0,0.0,0.0,0.0,0.0,0.0,0.0,0.0,0.0,0.0,0.0,0.0,0.0,0.0,0.0,0.0,-2.1213,-2.3465,-2.4495,-2.5511,-2.6465,-2.6465,-2.5955,-2.4921,-2.4036,-2.2237,-1.9508,0.0,0.0,0.0,0.0,0.0,0.0,0.0,0.0,0.0,0.0,0.0,0.0,0.0,0.0,0.0,0.0,0.0,0.0,0.0,0.0,0.0,0.0,0.0,0.0,0.0,0.0,0.3383,0.3568,0.2945,0.0,0.0,0.0,0.0,0.0,0.0,0.0,0.0,0.0,0.0,0.0,0.0,0.0,0.0091,0.0461,0.1567,0.1781,0.2277,0.3496,0.5568,0.7486,0.0,0.0,0.0,0.0,0.0,0.0,0.0,0.0,0.0,0.0,0.0,0.0,0.0,0.0,0.0,0.0,0.0,0.0,0.0,0.0,0.0,0.0,0.0,0.0,0.0,0.0,0.0,-1.1787,-1.0551,0.0,0.0,0.0,0.0,0.0,0.0,0.0,0.0,0.0,0.0,0.0,-1.3066,-1.336,0.0,0.0,0.0,0.0,0.0,0.0,0.0,0.0,0.0,0.0,0.0,0.0,-2.1686,-2.3789,-2.5241,-2.6164,-2.6465,-2.5886,-2.4992,-2.4036,-2.2988,-2.0886,-1.7582,0.0,0.0,0.0,0.0,0.0,0.0,0.0,0.0,0.0,0.0,0.0,0.0,0.0,0.0,0.0,0.0,0.0,0.0,0.0,0.0,0.0,0.0,0.0,0.0,0.0,-0.1152,0.0,0.0,0.0,0.0,0.0,0.0,0.0,0.0,0.0,0.0,-0.2415,-0.2415,-0.2415,-0.2415,-0.2415,-0.2415,-0.2428,-0.2257,0.0,0.0,0.0,0.0,0.0,0.0,0.0,0.0,0.0,0.0,0.0,0.0,0.0,0.0,1.8638,1.9432,2.0079,2.0625,2.0762,0.0,0.0,0.0,0.0,0.0,0.0,0.0,0.0,0.0,0.0,0.0,0.0,0.0,0.0,-1.2374,-1.1416,-1.1814,0.0,0.0,0.0,0.0,0.0,0.0,0.0,0.0,-1.324,-1.352,-1.352,-1.3707,-1.3694,-1.352,-1.4139,-1.4747,0.0,0.0,0.0,0.0,0.0,0.0,0.0,0.0,-2.1778,-2.3534,-2.4802,-2.5652,-2.5886,-2.4992,-2.4325,-2.4036,-2.2691,-2.052,-1.7398,-1.7035,-1.5717,0.0,0.0,0.0,0.0,0.0,0.0,0.0,0.0,0.0,0.0,0.0,0.0,0.0,0.0,0.0,0.0,0.0,0.0,0.0,0.0,0.0,0.0,0.0,-0.3541,0.0,0.0,0.0,0.0,0.0,0.0,0.0,0.0,0.0,-0.366,-0.3571,-0.3571,-0.3571,-0.3924,-0.4186,-0.4182,0.0,0.0,0.0,0.0,0.0,0.0,0.0,0.3025,0.451,0.6888,0.9242,1.1154,1.3275,1.4935,1.5376,0.0,0.0,1.8772,1.9608,2.0157,2.0566,2.1471,2.239,2.308,2.4346,2.5777,0.0,0.0,0.0,0.0,-1.3681,0.0,0.0,0.0,-1.3467,-1.3213,0.0,-1.2585,0.0,0.0,0.0,0.0,-1.1944,-1.258,0.0,0.0,-1.3801,-1.4082,-1.4082,-1.4082,-1.4082,-1.4082,-1.4068,-1.4407,-1.5152,-1.6766,0.0,0.0,0.0,0.0,0.0,0.0,-2.1445,-2.2734,-2.3327,-2.3963,-2.4874,-2.3963,-2.3891,-2.4707,-2.2936,-2.1028,-1.9097,-1.7603,-1.5889,-1.3655,-1.2092,0.0,0.0,0.0,0.0,0.0,0.0,0.0,0.0,0.0,0.0,0.0,0.0,0.0,0.0,0.0,0.0,0.0,0.0,0.0,0.0,-0.353,0.0,0.0,0.0,0.0,0.0,0.0,0.0,0.0,0.0,-0.6245,-0.419,-0.3838,-0.3749,-0.3753,0.0,0.0,0.0,0.0,-0.539,-0.539,-0.4647,-0.3992,-0.3895,-0.185,0.0485,0.298,0.0,0.0,1.2177,1.2916,1.3369,1.4681,1.5697,1.6992,1.8574,1.8967,1.9445,2.041,2.1666,2.2595,2.285,2.4623,2.6288,-1.5162,0.0,0.0,0.0,0.0,-1.3734,-1.3774,-1.3761,-1.3587,-1.34,-1.32,-1.3026,0.0,0.0,0.0,0.0,0.0,0.0,-1.344,-1.3534,-1.3908,-1.4082,-1.4082,-1.4082,-1.4082,-1.4082,-1.4082,-1.421,-1.4435,-1.5635,-1.6497,-1.7045,0.0,0.0,0.0,0.0,-2.1424,-2.2638,-2.3254,-2.3672,-2.3963,-2.2914,-2.2264,-2.1907,-2.1298,-2.0372,-1.9036,-1.7797,-1.6445,-1.483,-1.345,0.0,0.0,0.0,0.0,0.0,0.0,0.0,0.0,0.0,0.0,0.0,0.0,0.0,0.0,0.0,0.0,0.0,0.0,0.0,-0.6005,-0.5338,-0.5137,0.0,0.0,0.0,0.0,0.0,0.0,0.0,0.0,0.0,-0.7379,-0.6593,-0.6192,0.0,0.0,-0.689,-0.7871,-0.7923,-0.7878,-0.7886,-0.7702,0.0,-0.5339,-0.3823,-0.193,0.0476,0.4438,0.8009,0.9974,1.1089,1.2097,1.3302,1.3832,1.4741,1.6875,1.8684,1.9704,2.0218,2.1236,2.2291,2.3054,2.4105,2.521,-1.5177,-1.5348,-1.4774,-1.4269,-1.4001,-1.4122,-1.4162,-1.4175,-1.4162,-1.4068,-1.3895,-1.3788,-1.3467,-1.2999,-1.2772,0.0,0.0,0.0,-1.3707,-1.3828,-1.4001,-1.4082,-1.4082,-1.4082,-1.4082,-1.4082,-1.4082,-1.4082,-1.4082,-1.5213,-1.5901,-1.6313,0.0,-1.8947,-1.9872,-2.0256,-2.0937,-2.1832,-2.2209,-2.2563,-2.2914,-2.2317,-2.1527,-2.0644,-2.0566,-2.0079,-1.9036,-1.79,-1.675,-1.5493,-1.4086,-1.3002,0.0,0.0,0.0,0.0,0.0,0.0,0.0,0.0,0.0,0.0,0.0,-0.5261,-0.5061,0.0,0.0,0.0,-0.6363,-0.7159,-0.7738,-0.6782,0.0,0.0,0.0,0.0,0.0,0.0,0.0,-0.7645,-0.736,-0.7577,-0.8711,-0.7841,-0.7354,-0.7893,-0.8255,-0.8744,-0.9553,0.0,-1.0269,-1.0269,-0.9562,-0.8631,-0.7244,-0.5716,-0.3588,-0.0581,0.3283,0.6571,0.8497,0.944,1.0481,1.2098,1.2949,1.3773,1.5244,1.7489,1.9332,1.9929,2.0782,2.1736,2.2817,2.4095,2.5385,-1.503,-1.503,-1.503,-1.4843,-1.4589,-1.4856,-1.5053,-1.5053,-1.5053,-1.5053,-1.5026,-1.4669,-1.4402,-1.4122,-1.3587,0.0,-1.3748,-1.3748,-1.3895,-1.4122,-1.4122,-1.4108,-1.4082,-1.4082,-1.4082,-1.4082,-1.4082,-1.4082,-1.4166,-1.5061,-1.5479,-1.5197,-1.7153,-1.8629,-1.9752,-1.9863,-2.0154,-2.0469,-2.0489,-2.0857,-2.1735,-2.1886,-2.1431,-2.0644,-2.0489,-2.0001,-1.9036,-1.7819,-1.6683,-1.5681,-1.4378,-1.3547,-1.3293,0.0,0.0,0.0,0.0,0.0,0.0,0.0,0.0,0.0,0.0,0.0,0.0,0.0,0.0,-0.7054,-0.7105,0.0,-0.879,-0.7929,0.0,0.0,0.0,-0.7088,-0.6959,-0.7061,-0.7143,-0.7143,0.0,0.0,-0.8719,-0.7929,-0.7665,-0.8719,-0.9836,-1.0529,-1.0636,-1.1488,-1.2322,-1.2151,-1.0612,-0.9397,-0.9023,-0.7222,-0.452,-0.1193,0.1803,0.4296,0.6773,0.7569,0.8667,1.1025,1.2705,1.3573,1.3669,1.5725,1.7934,1.9402,2.0336,2.1126,2.2197,2.4472,2.6237,-1.5631,-1.5618,-1.5618,-1.5324,-1.487,-1.4937,-1.5053,-1.5053,-1.5053,-1.5053,-1.4963,-1.4897,-1.4816,-1.475,-1.4603,-1.4589,-1.4643,-1.4656,-1.4563,-1.4416,-1.4416,-1.4295,-1.4095,-1.4082,-1.4082,-1.4082,-1.4082,-1.4082,-1.4082,-1.4334,-1.4851,-1.5509,-1.6067,-1.7133,-1.8687,-1.9832,-2.012,-1.9353,-1.9347,-1.9506,-1.9728,-2.0527,-2.0857,-2.0566,-1.9844,-1.9274,-1.8957,-1.7074,-1.5944,-1.5696,-1.4587,-1.3948,-1.3881,-1.3002,0.0,0.0,0.0,0.0,0.0,0.0,0.0,0.0,0.0,-0.9702,-0.934,0.0,-0.9834,0.0,-0.9639,-0.9529,-0.8973,-0.8623,0.0,0.0,-0.7115,-0.7041,-0.7007,-0.7122,-0.7143,-0.7143,-0.7143,-0.7577,-0.8711,-0.8623,-0.8544,-0.8894,-0.9148,-0.963,-1.0573,-1.1673,-1.2322,-1.226,-1.1925,-1.1199,-0.9503,-0.7401,-0.5282,-0.3393,-0.1598,0.03,0.2994,0.4288,0.5782,0.8371,1.0075,1.1161,1.2231,1.3669,1.551,1.772,1.9681,2.1246,2.1599,2.3906,2.582,-1.5832,-1.5832,-1.5832,-1.5645,-1.5351,-1.5351,-1.5351,-1.5351,-1.5351,-1.5351,-1.5337,-1.5217,-1.5084,-1.4977,-1.5053,-1.5053,-1.5053,-1.5053,-1.487,-1.4723,-1.4723,-1.4629,-1.4482,-1.4482,-1.4482,-1.4469,-1.4349,-1.4349,-1.4456,-1.4215,-1.4542,-1.5376,-1.5595,-1.6242,-1.7349,-1.8565,-1.8747,-1.8118,-1.8186,-1.8273,-1.8238,-1.8798,-1.9353,-1.9844,-1.8798,-1.8221,-1.8221,-1.6585,-1.5696,-1.5696,-1.4657,-1.4334,-1.4727,-1.394,-1.3373,0.0,0.0,0.0,0.0,0.0,0.0,0.0,0.0,0.0,0.0,0.0,-1.1438,-1.2038,-1.1145,-1.0529,-1.0433,-0.9923,-0.9148,-0.8017,-0.7929,-0.7929,-0.7929,-0.7401,-0.7312,-0.7841,-0.7401,-0.7577,-0.8711,-0.8456,-0.836,-0.8798,-0.8894,-0.9358,-1.0504,-1.1629,-1.2504,-1.3039,-1.2721,-1.1751,-0.9548,-0.7746,-0.6171,-0.5031,-0.3657,-0.2082,-0.01,0.1298,0.3094,0.5683,0.7786,0.9493,1.0877,1.2619,1.4423,1.5725,1.7964,2.0279,2.2416,2.4535,2.6138,-1.5939,-1.5939,-1.5939,-1.5939,-1.5939,-1.5939,-1.5899,-1.5832,-1.5832,-1.5737,-1.552,-1.5271,-1.5127,-1.4889,-1.507,-1.507,-1.507,-1.5084,-1.5057,-1.5017,-1.5017,-1.499,-1.5053,-1.5053,-1.5053,-1.495,-1.4696,-1.471,-1.495,-1.4442,-1.4469,-1.5013,-1.5447,-1.5698,-1.5904,-1.6652,-1.6888,-1.673,-1.7024,-1.709,-1.709,-1.7253,-1.7738,-1.8718,-1.7658,-1.709,-1.709,-1.6072,-1.5492,-1.5462,-1.4601,-1.453,-1.5379,-1.4531,-1.3814,0.0,-1.352,0.0,0.0,0.0,0.0,0.0,0.0,0.0,0.0,-1.2457,-1.3138,-1.4117,-1.233,-1.1435,-1.2283,-1.1402,-1.0269,-0.9061,-0.8894,-0.8886,-0.8632,-0.7753,-0.7489,-0.8544,-0.7753,-0.7489,-0.8456,-0.7841,-0.7753,-0.8456,-0.8832,-0.9297,-1.0222,-1.1499,-1.2674,-1.3913,-1.2979,-1.1292,-0.9508,-0.8136,-0.7083,-0.6128,-0.5201,-0.3939,-0.2695,-0.1399,0.04,0.2992,0.5584,0.7786,0.9197,1.1638,1.3584,1.404,1.6317,1.9389,2.2746,2.4978,2.6603,-1.654,-1.654,-1.654,-1.654,-1.654,-1.654,-1.6273,-1.5832,-1.5832,-1.5235,-1.4268,-1.422,-1.4159,-1.4218,-1.5188,-1.5671,-1.5671,-1.5671,-1.5538,-1.5311,-1.5311,-1.519,-1.4977,-1.5053,-1.5053,-1.4963,-1.491,-1.491,-1.4963,-1.4856,-1.4856,-1.504,-1.511,-1.5048,-1.4856,0.0,0.0,0.0,-1.5989,-1.6026,-1.6026,-1.6846,-1.7415,-1.7577,-1.6601,0.0,-1.5959,-1.5219,-1.4665,-1.4432,-1.4394,0.0,0.0,0.0,0.0,0.0,0.0,0.0,0.0,0.0,0.0,0.0,-1.4559,-1.434,-1.403,-1.4265,-1.4612,-1.479,-1.4125,-1.3449,-1.2726,-1.2279,-1.1123,-0.9148,-0.8894,-0.8544,-0.7577,-0.7224,-0.7231,-0.7408,-0.7224,-0.7231,-0.7489,-0.8017,-0.8281,-0.768,-0.8391,-0.9097,-0.9366,-1.0989,-1.2687,-1.3659,-1.236,-1.0711,-0.9328,-0.8318,-0.774,-0.7427,-0.7328,-0.6592,-0.5409,-0.41,-0.2296,0.03,0.2895,0.5191,0.6614,0.9772,1.2608,1.3622,1.6649,1.9405,2.0369,2.293,2.5333,-1.6638,-1.5884,-1.6609,-1.6011,0.0,-1.5368,-1.5008,-1.415,-1.4814,-1.4292,-1.2909,-1.2909,-1.2909,-1.2909,-1.3596,-1.4268,-1.4854,-1.4184,-1.4195,-1.4653,-1.398,-1.3908,-1.444,-1.444,-1.4823,-1.5391,-1.5244,-1.5257,-1.5364,-1.5097,-1.511,-1.5391,-1.4449,-1.4308,-1.495,-1.4959,-1.5157,-1.5367,-1.5359,-1.5347,-1.5347,-1.5862,-1.6445,-1.6853,-1.5948,0.0,0.0,0.0,0.0,0.0,0.0,0.0,0.0,-1.4706,0.0,-1.4509,-1.4376,-1.4429,-1.471,-1.4736,-1.487,-1.515,-1.5311,-1.5204,-1.4776,-1.4883,-1.5053,-1.5053,-1.4696,-1.4248,-1.3698,-1.336,-1.226,-1.0096,-0.9749,-0.9323,-0.8193,-0.7489,-0.7319,-0.7841,-0.7489,-0.7143,-0.7143,-0.7656,-0.7871,-0.7355,-0.7836,-0.8574,-0.92,-1.0111,-1.1206,-1.2369,-1.1825,-1.0558,-0.9392,-0.887,-0.8306,-0.7994,-0.7875,-0.7655,-0.7123,-0.5917,-0.41,-0.15,0.1198,0.3598,0.5817,0.9182,1.2134,1.3069,1.5913,1.8764,1.9497,2.2689,2.5876,-1.6074,-1.4918,-1.6088,-1.5094,-1.2675,-1.3817,-1.3463,-1.2235,-1.3233,0.0,0.0,-1.1668,-1.1649,-1.1609,-1.1805,-1.2565,-1.3488,-1.2425,-1.2522,-1.3488,-1.2425,-1.2522,-1.3488,-1.3584,-1.4076,-1.5045,-1.4922,-1.4922,-1.5127,-1.4692,-1.4692,-1.4968,-1.3543,-1.3448,-1.4676,-1.4577,-1.4434,-1.4469,-1.4812,-1.5053,-1.5053,-1.5053,-1.5397,-1.633,-1.5473,-1.5397,-1.6257,-1.5528,-1.5452,-1.6257,-1.5542,-1.5452,-1.6257,-1.5486,-1.499,-1.503,-1.5044,-1.507,-1.511,-1.5124,-1.5217,-1.5458,-1.5685,-1.5631,-1.515,-1.511,-1.5124,-1.5124,-1.4665,-1.4405,-1.4581,-1.3918,-1.2759,-1.084,-1.0463,-0.9836,-0.8711,-0.7753,-0.7489,-0.8281,-0.7665,-0.7149,-0.7183,-0.7285,-0.7387,-0.7428,-0.7636,-0.7935,-0.8871,-0.9562,-1.0131,-1.0683,-1.0683,-1.0251,-0.9351,-0.8925,-0.8706,-0.798,-0.7641,-0.7504,-0.7397,-0.6531,-0.4714,-0.19,0.04,0.2902,0.5617,0.9182,1.1745,1.194,1.5184,1.8319,1.9571,2.3248,2.6603,-1.4137,-1.3892,-1.4116,-1.3881,-1.3357,-1.3576,-1.2704,-1.1089,-1.1001,-1.0793,-1.057,-1.057,-1.0578,-1.0523,-1.1625,-1.2122,-1.2145,-1.195,-1.2047,-1.2134,-1.194,-1.2047,-1.2134,-1.2145,-1.2231,-1.2425,-1.2404,-1.2394,-1.2425,-1.2362,-1.2373,-1.2415,-1.2169,-1.2149,-1.2383,-1.2352,-1.2352,-1.2352,-1.4105,-1.5053,-1.5053,-1.5053,-1.5053,-1.5232,-1.5053,-1.5053,-1.5232,-1.5295,-1.5308,-1.5246,-1.5281,-1.5308,-1.5246,-1.5066,-1.507,-1.5311,-1.5337,-1.5444,-1.5685,-1.5712,-1.5725,-1.5765,-1.5805,-1.5792,-1.5712,-1.5712,-1.5712,-1.5604,-1.4359,-1.4038,-1.4956,-1.2866,-1.1342,-1.0967,-0.9851,-0.8719,-0.7577,-0.7231,-0.7143,-0.7401,-0.7231,-0.7197,-0.7305,-0.7366,-0.7448,-0.7556,-0.7597,-0.7821,-0.816,-0.9725,-1.038,-0.9806,-0.9528,-0.9072,-0.8095,-0.7896,-0.778,-0.7801,-0.6831,-0.6195,-0.6321,-0.5222,-0.3407,-0.0801,0.1,0.3002,0.5522,0.9182,1.1356,1.2037,1.5631,1.8932,1.948,2.3315,2.6826,-1.3577,-1.2803,-1.3477,-1.2721,-1.1015,-1.1015,-1.0594,-0.9798,-0.9608,-0.9473,-0.9421,-0.9414,-0.9369,-0.9301,-0.9911,-1.0476,-1.1098,-1.0399,-1.0399,-1.0988,-1.0297,-1.0345,-1.0924,-1.0923,-1.1268,-1.1853,-1.194,-1.194,-1.194,-1.194,-1.194,-1.194,-1.194,-1.156,-1.0974,-1.1668,-1.2061,-1.194,-1.2797,-1.3344,-1.3344,-1.4011,-1.4105,-1.3344,-1.4676,-1.506,-1.4384,-1.4509,-1.4509,-1.4384,-1.3838,-1.346,-1.3356,-1.3344,-1.3402,-1.3507,-1.3518,-1.3564,-1.368,-1.3692,-1.398,-1.4663,-1.4076,-1.3692,-1.3692,-1.4364,-1.4472,-1.3776,-1.2881,-1.2642,-1.3205,-1.1865,-1.0719,-1.0055,-0.9339,-0.8464,-0.7326,-0.7143,-0.7143,-0.7149,-0.7217,-0.7292,-0.736,-0.7509,-0.7624,-0.7624,-0.7252,-0.6668,-0.6016,-0.6611,-0.7388,-0.7414,-0.693,-0.664,-0.6657,-0.6105,-0.6142,-0.664,-0.5792,-0.5018,-0.4818,-0.381,-0.2202,-0.03,0.1599,0.3698,0.5722,0.8605,1.0672,1.2231,1.5321,1.8226,1.981,2.3965,2.8558,-1.2613,-1.1388,-1.2409,-1.1402,-0.8988,-0.8947,-0.894,-0.894,-0.8933,-0.8804,-0.8601,-0.8587,-0.8567,-0.8533,-0.8533,-0.9032,-0.9727,-0.8996,-0.8996,-0.9815,-0.888,-0.8918,-0.9713,-0.9686,-1.022,-1.1005,-1.1067,-1.1147,-1.1138,-1.1138,-1.1049,-1.1039,-1.1049,-1.0529,-0.9608,-1.078,-1.1297,-1.1147,-1.1138,-1.1315,-1.195,-1.2909,-1.2909,-1.2145,-1.3788,-1.4472,-1.3499,-1.3488,-1.3488,-1.3392,-1.2425,-1.194,-1.194,-1.194,-1.194,-1.194,-1.194,-1.194,-1.194,-1.194,-1.2328,-1.3295,-1.2522,-1.1755,-1.156,-1.2425,-1.2716,-1.2027,-1.15,-1.1296,-1.1562,-1.0726,-1.0084,-0.93,-0.8927,-0.8297,-0.7389,-0.7163,-0.7156,-0.7197,-0.7299,-0.7387,-0.7489,-0.7665,-0.7614,-0.7277,-0.6372,-0.5118,-0.4218,-0.3814,-0.4017,-0.4618,-0.4418,-0.451,-0.5322,-0.4814,-0.4614,-0.5422,-0.4111,-0.3207,-0.2707,-0.1802,-0.02,0.15,0.3099,0.5101,0.6719,0.8901,1.0867,1.2415,1.5617,1.876,2.1282,2.5628,3.0446,-1.0088,-0.9836,-1.0051,-0.9757,-0.913,-0.8994,-0.894,-0.894,-0.894,-0.8927,-0.8879,-0.8893,-0.8811,-0.8703,-0.8689,-0.8728,-0.8709,-0.8584,-0.8598,-0.8703,-0.8577,-0.857,-0.8772,-0.8647,-0.8751,-0.8931,-0.8816,-0.8853,-0.8853,-0.8758,-0.8656,-0.8649,-0.8649,-0.8592,-0.8279,-0.8606,-0.867,-0.8656,-0.8649,-0.9678,-1.1765,-1.2037,-1.2047,-1.194,-1.2145,-1.2242,-1.2037,-1.2047,-1.2047,-1.2047,-1.195,-1.1843,-1.1843,-1.1843,-1.1853,-1.1843,-1.1853,-1.194,-1.1853,-1.194,-1.1853,-1.2047,-1.195,-1.1268,-1.0288,-1.0288,-1.0877,-1.1356,-1.076,-1.0635,-1.1512,-0.9702,-0.8726,-0.9424,-0.8451,-0.7451,-0.7423,-0.7224,-0.719,-0.7339,-0.7373,-0.7468,-0.7597,-0.7498,-0.718,-0.5986,-0.4906,-0.4017,-0.3616,-0.2816,-0.2213,-0.2615,-0.3115,-0.3817,-0.4117,-0.4114,-0.3817,-0.3914,-0.2104,0.0,0.0,0.1303,0.3714,0.3607,0.5518,0.6813,0.8718,1.0877,1.2058,1.3955,1.6936,2.0657,2.4746,2.8168,3.1415,-0.9741,-0.9612,-0.9612,-0.9483,-0.9273,-0.9042,-0.8988,-0.9055,-0.8974,-0.894,-0.894,-0.894,-0.8899,-0.8845,-0.8845,-0.8811,-0.8757,-0.875,-0.875,-0.8743,-0.8662,-0.8621,-0.8608,-0.852,-0.8479,-0.8479,-0.8418,-0.8397,-0.8411,-0.8486,-0.8526,-0.854,-0.8615,-0.8587,-0.8459,-0.8587,-0.8621,-0.854,-0.8621,-0.9161,-1.0096,-1.0523,-1.0448,-1.0046,-1.1138,-1.1463,-1.0877,-1.0779,-1.0779,-1.0681,-1.0002,-0.9608,-0.9608,-0.9608,-0.9608,-0.9608,-0.9608,-0.9993,-1.0681,-1.0092,-0.9895,-1.0681,-0.9993,-0.9312,-0.8924,-0.8825,-0.9015,-0.941,-0.9122,-0.9122,-0.9501,-0.8561,-0.8105,-0.849,-0.7977,-0.7563,-0.7387,-0.74,-0.7414,-0.7394,-0.7529,-0.7279,-0.6623,-0.6012,-0.507,-0.3914,-0.3115,-0.2615,-0.1813,-0.1109,-0.0907,-0.0907,-0.1309,-0.1912,-0.2515,-0.2113,-0.2113,-0.2314,-0.1307,0.0,0.0,0.2208,0.4218,0.4922,0.6725,0.8464,0.9754,1.135,1.2844,1.5434,1.9491,2.3602,2.7515,2.9845,3.24,-0.9774,-0.9618,-0.9564,-0.9483,-0.9361,-0.915,-0.9117,-0.9198,-0.9103,-0.9055,-0.9062,-0.9062,-0.9035,-0.8994,-0.896,-0.8954,-0.8994,-0.8994,-0.9022,-0.9042,-0.894,-0.8899,-0.8879,-0.8784,-0.8723,-0.8723,-0.8696,-0.8669,-0.8676,-0.8771,-0.8832,-0.8852,-0.8947,-0.892,-0.8804,-0.8927,-0.8947,-0.8852,-0.8947,-0.9015,-0.9085,-0.9444,-0.929,-0.8674,-1.0045,-1.0545,-0.9654,-0.9554,-0.9554,-0.9554,-0.8657,-0.816,-0.816,-0.816,-0.816,-0.816,-0.816,-0.8557,-0.9554,-0.8621,-0.85,-0.9283,-0.8564,-0.8038,-0.8038,-0.8038,-0.8038,-0.8038,-0.8038,-0.8038,-0.8038,-0.8038,-0.7991,-0.7889,-0.7841,-0.7624,-0.7026,-0.7321,-0.7295,-0.6626,-0.6739,-0.6754,-0.5513,-0.4278,-0.3112,-0.2314,-0.1712,-0.121,0.0,0.0,0.0,0.0,0.0,-0.0404,-0.121,-0.0907,-0.0605,-0.0201,0.0403,0.1509,0.1611,0.3817,0.5541,0.7278,0.9069,1.0527,1.1802,1.2968,1.4552,1.7916,2.1655,2.5578,2.8634,3.0922,3.3449,-0.9869,-0.9612,-0.9456,-0.9285,-0.9381,-0.9238,-0.9238,-0.902,-0.9231,-0.9238,-0.9103,-0.9109,-0.9273,-0.9024,-0.868,-0.8903,-0.9123,-0.913,-0.9205,-0.9327,-0.9327,-0.934,-0.9354,-0.9347,-0.9327,-0.9259,-0.9137,-0.9089,-0.9103,-0.913,-0.9137,-0.9137,-0.9164,-0.9083,-0.8988,-0.9096,-0.9144,-0.9144,-0.915,-0.9218,-0.9293,-0.9023,-0.879,-0.8689,-0.8744,-0.8751,-0.8654,-0.8556,-0.8556,-0.8556,-0.8549,-0.8452,-0.8452,-0.8452,-0.8445,-0.8445,-0.8452,-0.8452,-0.8633,-0.8426,-0.8364,-0.8445,-0.8247,-0.8052,-0.8079,-0.8072,-0.8065,-0.7945,-0.8045,-0.8038,-0.7839,-0.7939,-0.8045,-0.8031,-0.7805,-0.7198,-0.6085,-0.6719,-0.6305,-0.4933,-0.5125,-0.5223,-0.42,-0.2912,-0.2213,-0.1712,-0.0907,0.0,0.0,0.0,0.0,0.0,0.0,0.0,0.0,0.0202,0.0706,0.1314,0.2427,0.383,0.5427,0.6942,0.8113,0.9284,1.0029,1.1529,1.3623,1.5708,1.757,2.0264,2.2981,2.6415,3.023,3.2254,3.4679,-0.8312,-0.8027,-0.6946,-0.7055,-0.7948,-0.6857,-0.6246,-0.6419,-0.6354,-0.6327,-0.621,-0.6327,-0.6188,-0.6152,-0.612,-0.7236,-0.9044,-0.9157,-0.9232,-0.9367,-0.9381,-0.9347,-0.9415,-0.9354,-0.9415,-0.9325,-0.9354,-0.93,-0.9313,-0.9395,-0.9442,-0.9462,-0.9544,-0.951,-0.9401,-0.9415,-0.9442,-0.9442,-0.9442,-0.9517,-0.9612,-0.932,-0.9137,-0.9117,-0.871,-0.8479,-0.8479,-0.8479,-0.8479,-0.8479,-0.8479,-0.8479,-0.8479,-0.8479,-0.8479,-0.8479,-0.8479,-0.8479,-0.8472,-0.8438,-0.8404,-0.8404,-0.8357,-0.8316,-0.8309,-0.8241,-0.8187,-0.8167,-0.8085,-0.7739,-0.7135,-0.7434,-0.8079,-0.8059,-0.722,-0.6486,-0.5925,-0.5611,-0.4883,-0.4034,-0.3695,-0.3097,-0.2711,-0.1511,-0.0706,-0.0706,-0.0303,0.0,0.0,0.0706,0.131,0.1411,0.2012,0.2613,0.2613,0.1711,0.1716,0.2854,0.3891,0.4229,0.5373,0.6616,0.7808,0.8955,1.0117,1.2352,1.4595,1.7618,1.9797,2.2925,2.5578,2.8032,3.2106,3.3542,3.5911,-0.6735,-0.6416,-0.5233,-0.5471,-0.6363,-0.5167,-0.4671,-0.4711,-0.4664,-0.4644,-0.4644,-0.4641,-0.4631,-0.4614,-0.4512,-0.5562,-0.7613,-0.773,-0.7814,-0.7965,-0.7971,-0.7926,-0.7982,-0.8011,-0.7914,-0.792,-0.7881,-0.7977,-0.7982,-0.8062,-0.8342,-0.8834,-0.9042,-0.9284,-0.9566,-0.968,-0.9673,-0.968,-0.968,-0.9727,-0.9774,-0.9537,-0.9381,-0.9313,-0.8893,-0.8628,-0.8628,-0.8628,-0.8628,-0.8628,-0.8628,-0.8628,-0.8628,-0.8628,-0.8628,-0.8628,-0.8635,-0.8628,-0.8621,-0.8587,-0.8554,-0.8554,-0.8506,-0.8479,-0.8472,-0.8391,-0.833,-0.8262,-0.7668,-0.6989,-0.6385,-0.6486,-0.6726,-0.6799,-0.599,-0.5192,-0.4721,-0.433,-0.3874,-0.3091,-0.2143,-0.1526,-0.1219,-0.0607,0.0101,0.0504,0.0605,0.0706,0.1309,0.2012,0.2622,0.2737,0.3349,0.4075,0.4406,0.4119,0.3783,0.4633,0.5101,0.5147,0.5707,0.689,0.7861,0.892,1.0741,1.3122,1.5969,1.9081,2.2278,2.5372,2.7399,2.9375,3.2287,3.458,3.6756,-0.49,-0.4886,-0.4823,-0.4674,-0.48,-0.4536,-0.4664,-0.4539,-0.4542,-0.4294,-0.4169,-0.4542,-0.4264,-0.4473,-0.4148,-0.4542,-0.4661,-0.4668,-0.4974,-0.5336,-0.5224,-0.5322,-0.5268,-0.5375,-0.5335,-0.5403,-0.5039,-0.5039,-0.5287,-0.5418,-0.6031,-0.7128,-0.7373,-0.8,-0.9585,-0.922,-0.9451,-0.9329,-0.9207,-0.9457,-0.966,-0.9176,-0.891,-0.9,-0.8726,-0.8452,-0.8686,-0.8803,-0.8899,-0.8906,-0.8913,-0.8927,-0.8899,-0.8899,-0.892,-0.8899,-0.892,-0.8927,-0.8906,-0.8784,-0.871,-0.8481,-0.8474,-0.8216,-0.8005,-0.7973,-0.8014,-0.7613,-0.6844,-0.6097,-0.5583,-0.4759,-0.4247,-0.403,-0.4157,-0.3581,-0.2799,-0.3219,-0.3395,-0.2118,-0.0943,-0.0104,0.0,0.0205,0.071,0.1719,0.2016,0.2314,0.3215,0.3717,0.4048,0.4198,0.4724,0.5453,0.6059,0.6458,0.6391,0.6458,0.6532,0.6706,0.7593,0.8701,0.9694,1.078,1.2384,1.4803,1.7867,2.0969,2.3287,2.6159,2.8179,3.0528,3.3107,3.5516,3.7063,-0.2191,-0.3058,-0.2014,-0.2253,-0.2995,-0.1981,-0.1479,0.0,0.0,0.0,-0.1502,-0.1502,-0.1498,0.0,-0.15,0.0,-0.1527,-0.1539,-0.2705,-0.4497,-0.4881,-0.4747,-0.4855,-0.4849,-0.4956,-0.494,-0.4936,-0.494,-0.481,-0.481,-0.5192,-0.556,-0.5636,-0.5894,-0.6562,-0.6393,-0.6478,-0.6478,-0.6478,-0.6452,-0.6377,-0.6314,-0.6215,-0.6192,-0.5908,-0.5922,-0.5922,-0.782,-0.883,-0.883,-0.894,-0.894,-0.894,-0.894,-0.894,-0.894,-0.894,-0.894,-0.8933,-0.8783,-0.8304,-0.7523,-0.727,-0.6707,-0.5927,-0.576,-0.5603,-0.5567,-0.5034,-0.4376,-0.3387,-0.2877,-0.2998,-0.3966,-0.3216,-0.2484,-0.1981,-0.1641,-0.1086,-0.0758,-0.0214,0.0423,0.1158,0.135,0.1848,0.3066,0.3344,0.372,0.4017,0.4926,0.5327,0.5468,0.6134,0.6763,0.7287,0.7818,0.8255,0.8203,0.8255,0.8415,0.9433,1.0535,1.155,1.2859,1.4495,1.6637,1.9743,2.2114,2.4147,2.6656,2.8892,3.148,3.4406,3.6156,3.7358,-0.0655,-0.1426,-0.0384,-0.0634,-0.1387,-0.0377,0.0,0.0,0.0,0.0,0.0,0.0,0.0,0.0,0.0,0.0,0.0,0.0,-0.1056,-0.2877,-0.3134,-0.3134,-0.3134,-0.3134,-0.3114,-0.3089,-0.3087,-0.3087,-0.3087,-0.3087,-0.3342,-0.3845,-0.4071,-0.4434,-0.4839,-0.495,-0.4926,-0.4903,-0.4923,-0.4916,-0.486,-0.4757,-0.4684,-0.4644,-0.4541,-0.4468,-0.4669,-0.6365,-0.7258,-0.722,-0.7209,-0.7533,-0.7943,-0.8042,-0.8042,-0.8042,-0.8042,-0.782,-0.7371,-0.7143,-0.6922,-0.6033,-0.5922,-0.5584,-0.4686,-0.4419,-0.4282,-0.4144,-0.3723,-0.2957,-0.2178,-0.1532,-0.1765,-0.2444,-0.1757,-0.1322,-0.1225,-0.0556,0.0,0.0,0.0,0.0,0.1072,0.201,0.2604,0.3824,0.4598,0.5148,0.5445,0.6268,0.6603,0.6975,0.7535,0.8059,0.8434,0.9076,0.9954,0.9954,0.9954,1.0417,1.1,1.2402,1.3516,1.4881,1.6516,1.8151,2.0931,2.2148,2.3925,2.6622,2.9487,3.148,3.3824,3.5574,3.7034,0.0,0.0,0.0,0.0,0.0,0.0,0.0,0.0,0.0,0.0,0.0,0.0,0.0,0.0,0.0,0.0,0.0,0.0,0.0,0.0,0.0,0.0,0.0,0.0,0.0,0.0,0.0,0.0,0.0,0.0,-0.0776,-0.2199,-0.2451,-0.3069,-0.3941,-0.447,-0.4206,-0.4173,-0.4336,-0.4357,-0.422,-0.4284,-0.4226,-0.4166,-0.3968,-0.3903,-0.3861,-0.4091,-0.4419,-0.4478,-0.4925,-0.5463,-0.6298,-0.6609,-0.6629,-0.6634,-0.6609,-0.5935,-0.4927,-0.5031,-0.4693,-0.447,-0.4359,-0.4247,-0.391,-0.357,-0.3553,-0.3413,-0.2672,-0.2021,-0.1572,-0.0903,0.0,0.0,0.0,0.0,0.0,0.0,0.0,0.0,0.0,0.0329,0.0875,0.1937,0.3279,0.449,0.5705,0.6675,0.7357,0.7712,0.8233,0.8438,0.8421,0.8913,0.9176,0.9815,1.0799,1.2196,1.2098,1.2126,1.2704,1.3997,1.5506,1.6897,1.8352,2.001,2.1541,2.295,2.5004,2.7964,3.0011,3.1416,3.3293,3.5359,3.7415,0.0,0.0,0.0,0.0,0.0,0.0,0.0,0.0,0.0,0.0,0.0,0.0,0.0,0.0,0.0,0.0,0.0,0.0,0.0,0.0,0.0,0.0,0.0,0.0,0.0,0.0,0.0,0.0,0.0,0.0,0.0,-0.0665,0.0,0.0,0.0,0.0,-0.1288,-0.1282,0.0,0.0,0.0,0.0,-0.1238,-0.123,0.0,0.0,0.0,-0.119,-0.2372,-0.4318,-0.4541,-0.4654,-0.4969,-0.5081,-0.5077,-0.5073,-0.5032,-0.4889,-0.4538,-0.4392,-0.3916,-0.2905,-0.2798,-0.2347,-0.1232,0.0,0.0,0.0,-0.069,0.0,0.0,-0.0117,0.0,0.0,0.0,0.0,0.0,0.0,0.0,0.0,0.0,0.2,0.2985,0.4272,0.5616,0.6754,0.7545,0.7903,0.83,0.8418,0.8547,0.852,0.8687,0.9411,1.0038,1.0691,1.1837,1.3987,1.4201,1.3879,1.4426,1.5269,1.6976,1.8679,2.001,2.1541,2.2833,2.4221,2.6812,2.9028,3.0305,3.1616,3.4022,3.6263,3.809,0.0,0.0,0.0,0.0,0.0,0.0,0.0,0.0,0.0,0.0,0.0,0.0,0.0,0.0,0.0,0.0,0.0,0.0,0.0,0.0,0.0,0.0,0.0,0.0,0.0,0.0,0.0,0.0,0.0,0.0,0.0,0.0,0.0,0.0,0.0,0.0,0.0,0.0,0.0,0.0,0.0,0.0,0.0,0.0,0.0,0.0,0.0,0.0,0.0,-0.2263,-0.2609,-0.2838,-0.3521,-0.3518,-0.3518,-0.3515,-0.3485,-0.3354,-0.2774,-0.2639,-0.2164,-0.1473,0.0,0.0,0.0,0.0,0.0,0.0,0.0,0.0,0.0,0.06,0.0952,0.0,0.1609,0.1704,0.101,0.0,0.0,0.179,0.2684,0.3463,0.4474,0.5784,0.6869,0.761,0.8253,0.852,0.8696,0.8723,0.9068,0.9298,0.9745,1.0615,1.1828,1.2555,1.3098,1.5041,1.5849,1.553,1.6143,1.6765,1.813,1.9922,2.144,2.2868,2.3845,2.5217,2.7232,2.9028,3.0305,3.2203,3.4709,3.6184,3.8164,0.0,0.0,0.0,0.0,0.0,0.0,0.0,0.0,0.0,0.0,0.0,0.0,0.0,0.0,0.0,0.0,0.0,0.0,0.0,0.0,0.0,0.0,0.0,0.0,0.0,0.0,0.0,0.0,0.0,0.0,0.0,0.0,0.0,0.0,0.0,0.0,0.0,0.0,0.0,0.0,0.0,0.0,0.0,0.0,0.0,0.0,0.0,0.0,0.0,0.0,0.0,0.0,-0.1895,-0.2009,-0.201,-0.201,-0.1891,-0.1414,0.0,0.0,0.0,0.0,0.0,0.0,0.0,0.0,0.0,0.0,0.0,0.0,0.0,0.2052,0.2635,0.2836,0.3995,0.394,0.3172,0.258,0.3024,0.4247,0.447,0.4693,0.5158,0.598,0.7145,0.8072,0.8647,0.8876,0.8988,0.9028,0.9839,1.0875,1.1338,1.1921,1.3317,1.4691,1.5058,1.5982,1.6749,1.7028,1.7738,1.8575,1.9509,2.0845,2.2767,2.3683,2.4177,2.5838,2.7819,2.9304,3.0687,3.2893,3.5062,3.5867,3.7368,0.0,0.0,0.0,0.0,0.0,0.0,0.0,0.0,0.0,0.0,0.0,0.0,0.0,0.0,0.0,0.0,0.0,0.0,0.0,0.0,0.0,0.0,0.0,0.0,0.0,0.0,0.0,0.0,0.0,0.0,0.0,0.0,0.0,0.0,0.0,0.0,0.0,0.0,0.0,0.0,0.0,0.0,0.0,0.0,0.0,0.0,0.0,0.0,0.0,0.0,0.0,0.0,0.0,0.0,0.0,0.0,0.0,0.0,0.0,0.0,0.0,0.0,0.0,0.0,0.0,0.1192,0.1801,0.2182,0.3024,0.3512,0.3537,0.4035,0.4367,0.4558,0.4896,0.5452,0.5586,0.4933,0.4422,0.4826,0.5592,0.6255,0.626,0.7399,0.8233,0.8626,0.8911,0.9191,0.9474,0.976,1.1044,1.2548,1.2738,1.3399,1.5043,1.6172,1.6344,1.687,1.7609,1.8408,1.9228,2.0231,2.1151,2.2567,2.4196,2.4805,2.5197,2.6853,2.9028,3.0056,3.1134,3.3003,3.4706,3.5494,3.6859,0.0,0.0,0.0,0.0,0.0,0.0,0.0,0.0,0.0,0.0,0.0,0.0,0.0,0.0,0.0,0.0,0.0,0.0,0.0,0.0,0.0,0.0,0.0,0.0,0.0,0.0,0.0,0.0,0.0,0.0,0.0,0.0,0.0,0.0,0.0,0.0,0.0,0.0,0.0,0.0,0.0,0.0,0.0,0.0,0.0,0.0,0.0,0.0,0.0,0.0,0.0,0.0,0.0,0.0,0.0,0.0,0.0,0.0,0.0,0.0,0.0,0.0,0.0,0.0,0.1105,0.2213,0.2956,0.3589,0.4441,0.4916,0.4916,0.577,0.5985,0.6207,0.6788,0.7469,0.7836,0.6894,0.6093,0.6581,0.746,0.7762,0.819,0.8673,0.9489,0.9814,1.0144,1.0547,1.2055,1.2356,1.3133,1.4195,1.4239,1.4999,1.669,1.7477,1.7469,1.7955,1.8531,1.9479,2.0467,2.1574,2.2767,2.3899,2.4922,2.5877,2.6552,2.8402,2.967,3.0664,3.1753,3.3224,3.4402,3.5413,3.6908,0.0807,0.0807,0.0807,0.0,0.0808,0.0,0.0,0.0,0.0831,0.0,0.0,0.0836,0.0,0.0,0.0,0.0,0.0,0.0,0.0,0.0,0.0,0.0,0.0,0.0,0.0,0.0,0.0,0.0,0.0,0.0,0.0,0.0,0.0,0.0,0.0,0.0,0.0,0.0,0.0,0.0,0.0,0.0,0.0,0.0,0.0,0.0,0.0,0.0,0.0,0.0,0.0,0.0,0.0,0.0,0.0,0.0,0.0,0.0,0.0,0.0,0.0,0.0247,0.0,0.0,0.2641,0.3663,0.4431,0.5182,0.6051,0.6251,0.581,0.6912,0.7755,0.7972,0.9079,0.964,0.9413,0.8325,0.8218,0.8647,0.8723,0.8697,0.8784,0.9137,1.0183,1.1013,1.1469,1.2179,1.3596,1.4508,1.4908,1.5471,1.5511,1.6183,1.7906,1.8307,1.8308,1.9002,1.9535,2.0557,2.1669,2.2672,2.3681,2.4233,2.5118,2.6187,2.722,2.8495,2.9761,3.0932,3.2127,3.3275,3.4319,3.5413,3.6831,0.4559,0.4559,0.4559,0.4426,0.4428,0.444,0.4311,0.4442,0.4192,0.4459,0.4327,0.4459,0.4197,0.4338,0.4379,0.4398,0.3716,0.2905,0.2902,0.331,0.1953,0.0974,0.1923,0.0,0.0,0.0,0.0,0.0,0.0,0.0,0.0,0.0,0.0,0.0,0.0,0.0,0.0,0.0,0.0,0.0,0.0,0.0,0.0,0.0,0.0,0.0,0.0,0.0,0.0,0.0,0.0,0.0,0.0,0.0,0.0,0.0,0.0,0.0,0.0,0.0,0.0863,0.1734,0.2136,0.3058,0.4488,0.5945,0.661,0.7369,0.8347,0.9154,0.915,0.9131,0.9316,0.9503,0.9464,0.9815,0.9654,0.9473,0.9129,0.9415,0.9367,0.9774,1.006,1.0493,1.1322,1.2248,1.2643,1.3529,1.4908,1.5289,1.5395,1.6098,1.6798,1.7732,1.8918,1.8924,1.9036,1.9986,2.0753,2.1746,2.279,2.3613,2.4436,2.497,2.5586,2.6456,2.7484,2.8773,3.0033,3.14,3.2326,3.3154,3.4011,3.487,3.5894,0.5366,0.5366,0.5366,0.5366,0.5366,0.5366,0.5366,0.5366,0.5366,0.5366,0.5366,0.5366,0.5366,0.5372,0.5396,0.5417,0.5156,0.4646,0.4635,0.4768,0.3707,0.316,0.4072,0.3119,0.0,0.0,0.0,0.1606,0.0,0.0,0.0,0.0,0.0,0.0,0.0,0.0,0.0,0.0,0.0,0.0,0.0,0.0,0.0,0.0,0.0,0.0,0.0,0.0,0.0,0.0,0.0,0.1955,0.2459,0.2558,0.2268,0.1637,0.1378,0.1745,0.236,0.2601,0.3096,0.365,0.3957,0.4788,0.6145,0.7388,0.8322,0.9169,0.946,1.0256,1.0049,1.0168,1.0093,0.9978,0.9937,0.9903,0.9849,0.9829,0.9968,1.0191,1.0699,1.1421,1.2091,1.2548,1.2831,1.3298,1.3868,1.4981,1.632,1.6507,1.6553,1.7193,1.7923,1.8402,1.9345,1.9442,1.9934,2.1026,2.2088,2.3095,2.4035,2.4948,2.544,2.5913,2.6408,2.7023,2.8308,2.967,3.0777,3.1777,3.2525,3.324,3.37,3.4402,3.5574,0.6435,0.6435,0.6435,0.6435,0.6435,0.6431,0.6569,0.6431,0.6564,0.6698,0.6435,0.6564,0.6698,0.6569,0.6569,0.6569,0.6439,0.6242,0.6223,0.6468,0.5559,0.5417,0.5781,0.5496,0.5104,0.4705,0.4827,0.3912,0.2033,0.0,0.0,0.0,0.0,0.0,0.0,0.0,0.0,0.1076,0.1076,0.1076,0.1076,0.1076,0.1076,0.1076,0.1076,0.0,0.0,0.0,0.0,0.2937,0.332,0.3826,0.5132,0.5346,0.4926,0.3878,0.3317,0.3923,0.453,0.4857,0.4749,0.5608,0.5638,0.6766,0.7928,0.8766,0.9191,1.0143,1.046,1.0371,1.0337,1.0324,1.0243,1.0266,1.0329,1.0674,1.0826,1.1141,1.1946,1.2183,1.2429,1.2678,1.3036,1.3702,1.3897,1.4887,1.5336,1.6413,1.7596,1.797,1.8186,1.8648,1.9127,1.9127,1.9591,2.0026,2.0771,2.1973,2.3332,2.4576,2.5427,2.6389,2.655,2.6602,2.7337,2.8028,2.9338,3.0237,3.0956,3.1777,3.2698,3.324,3.3471,3.4485,3.5894,1.0047,1.0047,1.0047,1.0047,0.9915,0.9915,1.0047,0.9915,0.9782,1.0047,0.9643,0.9915,0.9782,0.9782,0.9782,0.9915,0.9516,0.8456,0.8333,0.8851,0.7125,0.6723,0.7231,0.603,0.6164,0.6168,0.59,0.5232,0.4577,0.4568,0.4426,0.4292,0.4158,0.4559,0.4026,0.3892,0.4827,0.4693,0.4559,0.4559,0.4426,0.4426,0.4426,0.4426,0.4426,0.4292,0.4024,0.4024,0.4559,0.4961,0.5088,0.5215,0.5348,0.5345,0.6265,0.6481,0.6126,0.5124,0.5623,0.5812,0.6177,0.7184,0.7468,0.8548,0.9359,1.0003,1.0167,1.0571,1.0656,1.0588,1.0493,1.0473,1.0392,1.094,1.1492,1.2105,1.2532,1.275,1.3554,1.4479,1.484,1.3803,1.348,1.4301,1.5001,1.5982,1.697,1.7943,1.8544,1.8823,1.9038,1.9265,2.002,2.015,2.0614,2.0931,2.2101,2.331,2.4319,2.5685,2.6592,2.7207,2.7117,2.7377,2.8023,2.8731,2.9675,3.0422,3.1074,3.1913,3.2996,3.3144,3.3154,3.4485,3.5974,1.0717,1.0717,1.0717,1.0717,1.0717,1.0717,1.0717,1.0717,1.0717,1.0717,1.0717,1.0717,1.0717,1.0717,1.0717,1.0717,1.0452,0.9775,0.9908,1.0452,0.9105,0.8706,0.9238,0.8839,0.844,0.8169,0.844,0.8706,0.7902,0.6435,0.5366,0.5496,0.5499,0.5232,0.5767,0.5499,0.5366,0.5366,0.5366,0.5366,0.5366,0.5499,0.5499,0.5499,0.5499,0.5499,0.5633,0.5366,0.603,0.6564,0.6831,0.7498,0.8169,0.8435,0.8839,0.9226,0.8881,0.8388,0.8312,0.8076,0.8475,0.8951,0.9423,0.9814,1.0578,1.0724,1.0724,1.0717,1.0717,1.0677,1.0636,1.0622,1.1171,1.1857,1.28,1.3618,1.4326,1.472,1.5227,1.6176,1.6983,1.6024,1.5424,1.6283,1.7056,1.7547,1.8068,1.8532,1.9034,1.9137,1.9265,1.9319,2.0294,2.122,2.1814,2.2375,2.3829,2.4821,2.5151,2.6408,2.7466,2.793,2.7754,2.7578,2.7776,2.8645,2.984,3.079,3.1589,3.243,3.3294,3.3269,3.328,3.4095,3.5654,1.0717,1.0717,1.0717,1.0717,1.0717,1.0717,1.0717,1.0717,1.0717,1.0717,1.0717,1.0717,1.0717,1.0717,1.0717,1.0717,1.0717,1.0717,1.0717,1.0717,1.0717,1.0585,1.0452,1.0452,1.0452,1.0717,1.018,1.0313,0.9643,0.844,0.7102,0.6698,0.7236,0.7102,0.6836,0.7107,0.7236,0.7236,0.7102,0.7102,0.6969,0.6965,0.6965,0.6831,0.6698,0.6698,0.6702,0.6836,0.7769,0.8302,0.8701,0.9238,1.0047,1.018,1.018,1.0445,1.0141,1.0241,1.0006,1.0045,1.0432,1.0541,1.069,1.0678,1.0806,1.0867,1.0778,1.0792,1.0731,1.0724,1.085,1.0969,1.1949,1.3034,1.4134,1.5042,1.5951,1.6637,1.7325,1.8042,1.8606,1.8532,1.8264,1.8915,1.926,1.9389,1.9439,1.9386,1.9372,1.9372,1.9693,1.9809,2.0672,2.184,2.2886,2.3731,2.525,2.6292,2.65,2.6899,2.7902,2.8281,2.8242,2.8066,2.7917,2.9167,3.0668,3.1358,3.2106,3.3122,3.3822,3.3495,3.3665,3.4418,3.5467,1.0717,1.0717,1.0717,1.0717,1.0717,1.0717,1.0717,1.0717,1.0717,1.0717,1.0717,1.0717,1.0717,1.0717,1.0717,1.0717,1.0717,1.0717,1.0717,1.0717,1.0717,1.0717,1.0717,1.0717,1.0717,1.0717,1.0717,1.0717,1.0585,1.018,0.9915,1.0319,0.9377,0.9915,0.9915,0.9377,0.9516,0.951,0.951,0.9643,0.9782,0.9782,0.9915,0.9915,1.018,1.0319,1.0319,0.9915,0.9775,1.018,1.0047,1.018,1.0585,1.0717,1.0717,1.0717,1.0717,1.0697,1.0636,1.0575,1.0582,1.0697,1.0833,1.0975,1.1124,1.1016,1.0941,1.1191,1.139,1.1311,1.1548,1.2018,1.3341,1.4605,1.5853,1.7063,1.8104,1.905,1.9623,2.0081,2.0152,1.984,1.9627,1.9932,1.9814,1.9813,1.9559,1.9506,1.9439,1.9542,2.0155,2.0587,2.1288,2.2358,2.3585,2.4898,2.6424,2.7142,2.7341,2.7644,2.8213,2.8398,2.8437,2.8427,2.8489,2.9932,3.1323,3.2013,3.2865,3.3942,3.4324,3.3997,3.4331,3.5226,3.6171,1.0717,1.0717,1.0717,1.0717,1.0717,1.0717,1.0717,1.0717,1.0717,1.0717,1.0724,1.0717,1.0717,1.0724,1.0717,1.0717,1.0717,1.0717,1.0731,1.0717,1.0717,1.0724,1.0724,1.0738,1.0717,1.0731,1.0731,1.0717,1.0717,1.0751,1.0724,1.0717,1.0744,1.0717,1.0717,1.0717,1.0717,1.0717,1.0717,1.0717,1.0717,1.0717,1.0717,1.0717,1.0717,1.0717,1.0585,1.0717,1.0717,1.0717,1.0717,1.0717,1.0717,1.0717,1.0717,1.0717,1.0717,1.0717,1.0717,1.0677,1.0738,1.0928,1.0989,1.105,1.1246,1.1165,1.1905,1.227,1.2632,1.2689,1.445,1.5025,1.56,1.6739,1.7736,1.898,1.9789,2.0598,2.077,2.0704,2.073,2.0605,2.0611,2.0615,2.0347,2.0107,1.984,1.9744,1.9834,2.0219,2.0975,2.1835,2.2648,2.3344,2.458,2.6095,2.7616,2.7943,2.8141,2.8261,2.8359,2.832,2.834,2.8495,2.9112,3.0411,3.1614,3.2613,3.3576,3.4675,3.4785,3.4474,3.5131,3.5929,3.6743,1.0853,1.0853,1.0853,1.0826,1.0792,1.0785,1.0812,1.0853,1.086,1.0853,1.0853,1.0853,1.0853,1.0853,1.086,1.0867,1.088,1.0873,1.0867,1.0873,1.088,1.0853,1.0853,1.0867,1.0894,1.0853,1.0853,1.0867,1.088,1.086,1.088,1.088,1.0846,1.0833,1.0717,1.0724,1.0724,1.0717,1.0717,1.0717,1.0717,1.0717,1.0717,1.0717,1.0717,1.0717,1.0717,1.0717,1.0717,1.0717,1.0717,1.0717,1.0717,1.0717,1.0717,1.0717,1.0717,1.0717,1.0717,1.0744,1.0833,1.0989,1.1056,1.1158,1.128,1.1427,1.1927,1.3546,1.3916,1.4837,1.6716,1.6953,1.741,1.8313,1.9328,2.045,2.0695,2.1243,2.1149,2.1069,2.1082,2.1042,2.0989,2.0828,2.0561,2.0551,2.1026,2.1095,2.1303,2.1672,2.2436,2.3324,2.4201,2.4879,2.5793,2.6921,2.8064,2.8103,2.83,2.8369,2.8398,2.8359,2.832,2.8495,2.9323,3.0785,3.2095,3.3208,3.4318,3.555,3.5311,3.4951,3.5022,3.5757,3.6787,1.1138,1.1151,1.1138,1.1063,1.0962,1.0948,1.1009,1.1097,1.1111,1.1111,1.1104,1.1111,1.1118,1.1111,1.1077,1.1077,1.1084,1.1097,1.1104,1.1084,1.1063,1.1111,1.1111,1.1097,1.1063,1.1131,1.1097,1.107,1.1111,1.1077,1.1097,1.1097,1.1056,1.0989,1.0751,1.0731,1.0731,1.0731,1.0751,1.0765,1.0751,1.0751,1.0751,1.0717,1.0717,1.0717,1.0717,1.0717,1.0717,1.0717,1.0717,1.0717,1.0717,1.0717,1.0717,1.0717,1.0717,1.0717,1.0717,1.0717,1.108,1.1361,1.1561,1.1862,1.1748,1.1931,1.2897,1.5367,1.5009,1.5583,1.6881,1.834,1.9276,1.9917,2.0938,2.1359,2.1474,2.1537,2.1456,2.1376,2.1229,2.1122,2.1109,2.1015,2.0748,2.0999,2.1973,2.2349,2.2453,2.2997,2.361,2.4269,2.515,2.6021,2.6641,2.7649,2.8291,2.8457,2.8457,2.8418,2.8457,2.8476,2.8525,2.8534,2.9723,3.1483,3.2735,3.3877,3.4993,3.5962,3.5737,3.5521,3.539,3.576,3.701,1.1165,1.1165,1.1165,1.1192,1.1219,1.1131,1.1124,1.1158,1.1165,1.1165,1.1165,1.1165,1.1165,1.1165,1.1179,1.1185,1.1179,1.1165,1.1165,1.1172,1.1185,1.1158,1.1172,1.1199,1.1179,1.1165,1.1165,1.1185,1.1151,1.1192,1.1172,1.1158,1.1199,1.1111,1.1036,1.1016,1.1016,1.1016,1.1009,1.0982,1.0887,1.0867,1.0833,1.0744,1.0744,1.0744,1.0738,1.0738,1.0731,1.0724,1.0717,1.0717,1.0717,1.0717,1.0717,1.0717,1.0717,1.0717,1.1108,1.1512,1.25,1.2633,1.2744,1.3448,1.4639,1.497,1.6144,1.7354,1.7441,1.8627,2.0773,2.0981,2.1456,2.1391,2.1992,2.1832,2.1844,2.183,2.179,2.171,2.159,2.1336,2.1229,2.1765,2.156,2.1962,2.2989,2.3067,2.3157,2.3952,2.4779,2.5242,2.5898,2.6757,2.766,2.8301,2.8711,2.8789,2.8594,2.834,2.8398,2.8555,2.8846,2.9026,3.0557,3.2072,3.3515,3.4894,3.5573,3.6138,3.6031,3.5956,3.5915,3.6586,3.775,1.1321,1.1321,1.1321,1.1375,1.1436,1.1307,1.1267,1.1307,1.1321,1.1321,1.1328,1.1328,1.1328,1.1328,1.1321,1.1321,1.1321,1.1321,1.1321,1.1321,1.1321,1.1348,1.1341,1.1314,1.1362,1.1314,1.1314,1.1335,1.1348,1.1328,1.1341,1.1348,1.1314,1.1341,1.1294,1.124,1.1138,1.1131,1.1118,1.1097,1.1043,1.1016,1.0982,1.0921,1.0887,1.0867,1.0819,1.0792,1.0772,1.0751,1.0724,1.0724,1.0724,1.0724,1.0724,1.0717,1.1372,1.1505,1.2025,1.3325,1.4435,1.5317,1.4741,1.5222,1.646,1.6294,1.7717,1.8966,2.0039,2.117,2.2245,2.2443,2.2552,2.2472,2.2432,2.2271,2.2138,2.2138,2.2058,2.1991,2.1871,2.1617,2.1558,2.2326,2.2666,2.3363,2.3915,2.4024,2.4342,2.5627,2.6429,2.6858,2.7283,2.8029,2.8596,2.8834,2.9069,2.9141,2.8906,2.8613,2.8535,2.8711,2.912,2.9764,3.1051,3.2577,3.4531,3.5837,3.6293,3.6458,3.6307,3.6282,3.6452,3.698,3.7832,1.1613,1.1619,1.1619,1.1606,1.1586,1.1457,1.1477,1.1599,1.1606,1.1599,1.1599,1.1579,1.1558,1.1586,1.1599,1.1579,1.1565,1.1572,1.1565,1.1572,1.1531,1.1558,1.1565,1.1565,1.1531,1.1572,1.1572,1.1518,1.1592,1.1538,1.1545,1.1572,1.1538,1.1538,1.147,1.1375,1.126,1.1267,1.1267,1.1233,1.1185,1.1172,1.1138,1.1097,1.1077,1.1029,1.0989,1.0955,1.0887,1.0826,1.0765,1.0758,1.0751,1.0738,1.0731,1.124,1.2413,1.3193,1.3709,1.5005,1.6312,1.7303,1.7032,1.6737,1.7078,1.7955,1.913,2.0024,2.0845,2.1721,2.2545,2.2669,2.2806,2.2779,2.2792,2.2645,2.2472,2.2378,2.2298,2.2205,2.2098,2.1924,2.2092,2.2572,2.3379,2.4239,2.4953,2.6241,2.6793,2.8318,2.9002,2.9163,2.9451,2.9679,2.9883,2.9614,2.9497,2.957,2.9434,2.918,2.9082,2.9015,2.9399,3.0072,3.1322,3.2955,3.509,3.6248,3.6614,3.6609,3.6383,3.6358,3.6452,3.6452,3.7165,1.1619,1.1619,1.1619,1.1619,1.1613,1.1572,1.1579,1.1619,1.1619,1.1619,1.1619,1.1619,1.1647,1.1619,1.1619,1.1626,1.1626,1.1619,1.1613,1.1626,1.1667,1.1633,1.1626,1.164,1.1626,1.1633,1.1633,1.1653,1.1633,1.1633,1.164,1.1613,1.166,1.1647,1.1613,1.1531,1.1497,1.1463,1.1457,1.1396,1.1341,1.1328,1.128,1.1226,1.1206,1.1158,1.1124,1.1104,1.105,1.1029,1.1023,1.1029,1.1036,1.0941,1.1121,1.2684,1.397,1.5135,1.5394,1.6818,1.8116,1.8768,1.8992,1.9923,2.0185,2.0195,2.0612,2.1132,2.1508,2.2421,2.2722,2.2859,2.2859,2.2859,2.2859,2.2792,2.2645,2.2632,2.2539,2.2498,2.2392,2.2498,2.2549,2.3112,2.3912,2.4827,2.6135,2.7685,2.8727,3.0125,3.0742,3.0742,3.0547,3.041,3.0391,3.0254,3.0117,3.0,2.9863,2.9707,2.9603,2.9518,2.9759,3.0808,3.2597,3.4158,3.5858,3.6558,3.6784,3.6584,3.6358,3.6358,3.6452,3.6452,3.6726,1.1701,1.1708,1.1775,1.1796,1.1796,1.1796,1.1796,1.1782,1.1735,1.1728,1.1789,1.1803,1.1796,1.1809,1.1809,1.1809,1.1809,1.1823,1.1823,1.1823,1.1782,1.1782,1.1769,1.1762,1.1789,1.1769,1.1775,1.183,1.1782,1.1789,1.1803,1.1809,1.1796,1.1789,1.1782,1.1742,1.1701,1.1667,1.1633,1.1565,1.1511,1.147,1.1416,1.1355,1.1335,1.1307,1.126,1.1253,1.1226,1.1448,1.1572,1.2391,1.265,1.2814,1.3427,1.5006,1.6236,1.7,1.7369,1.8547,1.9304,1.9674,2.0462,2.0821,2.1199,2.1228,2.1687,2.2136,2.2536,2.2859,2.2859,2.2859,2.2859,2.2859,2.2859,2.2859,2.2846,2.2846,2.2832,2.2806,2.2957,2.3064,2.3342,2.3776,2.5106,2.7082,2.8633,2.9937,3.0419,3.0768,3.121,3.1152,3.0957,3.0781,3.0762,3.0703,3.0566,3.043,3.041,3.0215,3.0054,3.058,3.1387,3.2678,3.4106,3.5499,3.6618,3.6709,3.6784,3.6609,3.6483,3.6433,3.6433,3.6452,3.6862,1.185,1.1864,1.2006,1.204,1.206,1.204,1.2047,1.2067,1.1938,1.1932,1.2033,1.2047,1.2026,1.1993,1.1993,1.1999,1.1993,1.1986,1.1979,1.2054,1.1999,1.1959,1.2072,1.2148,1.1959,1.212,1.2127,1.1972,1.2026,1.2006,1.1986,1.206,1.2026,1.1999,1.1972,1.1898,1.1857,1.1837,1.1769,1.1681,1.1619,1.1606,1.1619,1.1599,1.1572,1.1545,1.1443,1.1382,1.1348,1.1941,1.2712,1.383,1.4737,1.5808,1.6591,1.7304,1.8347,1.8947,1.9386,2.0181,2.0693,2.0909,2.1122,2.1136,2.1336,2.1617,2.1951,2.2178,2.2418,2.2645,2.2699,2.2819,2.2859,2.2859,2.2859,2.2859,2.2859,2.2859,2.2859,2.2846,2.2956,2.3215,2.452,2.4952,2.6215,2.9101,3.0591,3.1502,3.2015,3.1852,3.1618,3.1621,3.1445,3.125,3.1055,3.0996,3.0918,3.0859,3.082,3.0664,3.0351,3.1584,3.3269,3.4306,3.5388,3.613,3.6972,3.7092,3.7136,3.696,3.681,3.6609,3.6508,3.6533,3.6463,1.2006,1.2006,1.2047,1.206,1.206,1.206,1.2135,1.223,1.2203,1.2135,1.2074,1.2067,1.2074,1.2101,1.2101,1.2101,1.2088,1.2121,1.2067,1.2088,1.2094,1.2088,1.2134,1.2081,1.2101,1.2108,1.2101,1.2094,1.2108,1.2094,1.2074,1.2074,1.2088,1.2108,1.2101,1.2026,1.2006,1.1999,1.2227,1.2095,1.1963,1.1777,1.1619,1.1619,1.1606,1.1749,1.1688,1.1688,1.1538,1.1796,1.3326,1.4789,1.6166,1.7938,1.8789,1.9043,2.0182,2.0819,2.1123,2.1228,2.1341,2.1363,2.1296,2.1162,2.1229,2.1496,2.1737,2.1924,2.2138,2.2378,2.2592,2.2726,2.2859,2.2859,2.2859,2.2859,2.2859,2.2859,2.2859,2.2859,2.2859,2.3924,2.5248,2.669,2.7834,2.9111,3.0259,3.1339,3.2363,3.2695,3.2344,3.2187,3.2012,3.1797,3.1523,3.1348,3.1309,3.1152,3.1074,3.0918,3.0858,3.1912,3.3289,3.5092,3.6398,3.6965,3.7344,3.7741,3.7688,3.7437,3.7337,3.7186,3.7061,3.7036,3.6553,1.3049,1.2169,1.223,1.2257,1.2257,1.2257,1.2305,1.2372,1.2386,1.2338,1.2264,1.2257,1.2257,1.225,1.2257,1.2244,1.2244,1.2264,1.2284,1.2271,1.223,1.225,1.2223,1.221,1.2277,1.2305,1.2284,1.2271,1.2237,1.2264,1.2271,1.2244,1.2244,1.2244,1.2237,1.2203,1.2162,1.2162,1.2849,1.2993,1.2801,1.2474,1.1818,1.1653,1.1763,1.2058,1.2745,1.2881,1.3452,1.429,1.6093,1.8025,1.9439,2.0674,2.1021,2.1167,2.1603,2.2178,2.2098,2.1951,2.175,2.167,2.163,2.155,2.1349,2.1577,2.159,2.1777,2.1991,2.2218,2.2418,2.2579,2.2739,2.2806,2.2846,2.2859,2.2859,2.2859,2.2859,2.2859,2.3665,2.5248,2.6706,2.841,2.97,3.1139,3.1944,3.1817,3.2777,3.3242,3.293,3.2695,3.248,3.2226,3.1914,3.1797,3.1758,3.1582,3.1367,3.1878,3.2109,3.2447,3.3415,3.5588,3.6996,3.7448,3.7836,3.8216,3.814,3.7814,3.7814,3.7839,3.7688,3.7538,3.7161,1.4692,1.321,1.3166,1.3223,1.3231,1.3223,1.337,1.337,1.3223,1.337,1.3501,1.3524,1.3105,1.2501,1.2501,1.2501,1.2481,1.2427,1.2461,1.2467,1.2467,1.2413,1.2427,1.2467,1.2461,1.2454,1.2447,1.2454,1.2447,1.2447,1.244,1.2494,1.2501,1.2494,1.2461,1.24,1.2318,1.2595,1.328,1.4207,1.394,1.3544,1.326,1.2728,1.2525,1.3379,1.4365,1.5044,1.5895,1.6997,1.8401,2.0178,2.1421,2.2232,2.2382,2.2413,2.2295,2.2498,2.2418,2.2218,2.2098,2.2031,2.2017,2.1884,2.167,2.1617,2.163,2.1697,2.1911,2.2004,2.2205,2.2392,2.2552,2.2739,2.2792,2.2859,2.2859,2.2859,2.2996,2.2996,2.4317,2.5905,2.7883,2.9587,3.1047,3.2619,3.3418,3.3418,3.3398,3.3359,3.3203,3.3027,3.2871,3.2598,3.2305,3.2226,3.2207,3.1973,3.1897,3.2791,3.3334,3.3247,3.4177,3.6534,3.77,3.7879,3.8378,3.8893,3.8642,3.8341,3.8492,3.8567,3.8241,3.8115,3.804,1.765,1.7057,1.6946,1.6964,1.6964,1.6964,1.7105,1.6955,1.6824,1.7105,1.6578,1.6839,1.5845,1.2501,1.2501,1.2501,1.2501,1.2663,1.2663,1.2494,1.2859,1.2683,1.2817,1.3296,1.2663,1.2663,1.2817,1.2649,1.3568,1.3259,1.2656,1.2958,1.2811,1.2811,1.2649,1.2755,1.3195,1.3472,1.361,1.4438,1.4744,1.5214,1.6854,1.6923,1.6923,1.7068,1.7319,1.7171,1.7265,1.8039,1.9363,2.1131,2.2238,2.2953,2.2926,2.2913,2.2792,2.2739,2.2619,2.2458,2.2365,2.2325,2.2258,2.2071,2.1924,2.1897,2.1884,2.1817,2.1911,2.1764,2.1897,2.2071,2.2245,2.2512,2.2645,2.2779,2.2846,2.3133,2.327,2.3393,2.406,2.6039,2.8163,2.9605,3.0789,3.2237,3.3418,3.3418,3.3418,3.3418,3.3418,3.3301,3.3164,3.3008,3.2754,3.2676,3.2598,3.2383,3.243,3.3075,3.3587,3.3684,3.5037,3.7309,3.8024,3.8161,3.8693,3.9546,3.9396,3.9195,3.9346,3.9346,3.8944,3.8668,3.8617]},{"header":{"parameterUnit":"m.s-1","parameterCategory":1,"la1":31.0,"la2":29.5877,"lo1":-88.7671,"lo2":-86.6584,"dx":0.0162,"dy":0.0185,"nx":115,"ny":88,"refTime":"2022-11-04T18:00:00:Z","depth":0,"parameterNumber":3,"parameterNumberName":"V-component_of_WINDS"},"data":[0.0,0.0,0.0,0.0,0.0,0.0,0.0,0.0,0.0,0.0,0.0,0.0,0.0,0.0,0.0,0.0,0.0,0.0,0.0,0.0,0.0,0.0,0.0,0.0,0.0,0.0,0.0,0.0,0.0,0.0,0.0,0.0,0.0,0.0,0.0,0.0,0.0,0.0,0.0,0.0,0.0,0.0,0.0,0.0,0.0,0.0,0.0,0.0,0.0,0.0,0.0,0.0,0.0,0.0,0.0,0.0,0.0,0.0,0.0,0.0,0.0,0.0,0.0,0.0,0.0,0.0,0.0,0.0,0.0,0.0,0.0,0.0,0.0,0.0,0.0,0.0,0.0,0.0,0.0,0.0,0.0,0.0,0.0,0.0,0.0,0.0,0.0,0.0,0.0,0.0,0.0,0.0,0.0,0.0,0.0,0.0,0.0,0.0,0.0,0.0,0.0,0.0,0.0,0.0,0.0,0.0,0.0,0.0,0.0,0.0,0.0,0.0,0.0,0.0,0.0,0.0,0.0,0.0,0.0,0.0,0.0,0.0,0.0,0.0,0.0,0.0,0.0,0.0,0.0,0.0,0.0,0.0,0.0,0.0,0.0,0.0,0.0,0.0,0.0,0.0,0.0,0.0,0.0,0.0,0.0,0.0,0.0,0.0,0.0,0.0,0.0,0.0,0.0,0.0,0.0,0.0,0.0,0.0,0.0,0.0,0.0,0.0,0.0,0.0,0.0,0.0,0.0,0.0,0.0,0.0,0.0,0.0,0.0,0.0,0.0,0.0,0.0,0.0,0.0,0.0,0.0,0.0,0.0,0.0,0.0,0.0,0.0,0.0,0.0,0.0,0.0,0.0,0.0,0.0,0.0,0.0,0.0,0.0,0.0,0.0,0.0,0.0,0.0,0.0,0.0,0.0,0.0,0.0,0.0,0.0,0.0,0.0,0.0,0.0,0.0,0.0,0.0,0.0,0.0,0.0,0.0,0.0,0.0,0.0,0.0,0.0,0.0,0.0,0.0,0.0,0.0,0.0,0.0,0.0,0.0,0.0,0.0,0.0,0.0,0.0,0.0,0.0,0.0,0.0,0.0,0.0,0.0,0.0,0.0,0.0,0.0,0.0,0.0,0.0,0.0,0.0,0.0,0.0,0.0,0.0,0.0,0.0,0.0,0.0,0.0,0.0,0.0,0.0,0.0,0.0,0.0,0.0,0.0,0.0,0.0,0.0,0.0,0.0,0.0,0.0,0.0,0.0,0.0,0.0,0.0,0.0,0.0,0.0,0.0,0.0,0.0,0.0,0.0,0.0,0.0,0.0,0.0,0.0,0.0,0.0,0.0,0.0,0.0,0.0,0.0,0.0,0.0,0.0,0.0,0.0,0.0,0.0,0.0,0.0,0.0,0.0,0.0,0.0,0.0,0.0,0.0,0.0,0.0,0.0,0.0,0.0,0.0,0.0,0.0,0.0,0.0,0.0,0.0,0.0,0.0,0.0,0.0,0.0,0.0,0.0,0.0,0.0,0.0,0.0,0.0,0.0,0.0,0.0,0.0,0.0,0.0,0.0,0.0,0.0,0.0,0.0,0.0,0.0,0.0,0.0,0.0,0.0,0.0,0.0,0.0,0.0,0.0,0.0,0.0,0.0,0.0,0.0,0.0,0.0,0.0,0.0,0.0,0.0,0.0,0.0,0.0,0.0,0.0,0.0,0.0,0.0,0.0,0.0,0.0,0.0,0.0,0.0,0.0,0.0,0.0,0.0,0.0,0.0,0.0,0.0,0.0,0.0,0.0,0.0,0.0,0.0,0.0,0.0,0.0,0.0,0.0,0.0,0.0,0.0,0.0,0.0,0.0,0.0,0.0,0.0,0.0,0.0,0.0,0.0,0.0,0.0,0.0,0.0,0.0,0.0,0.0,0.0,0.0,0.0,0.0,0.0,0.0,0.0,0.0,0.0,0.0,0.0,0.0,0.0,0.0,0.0,0.0,0.0,0.0,0.0,0.0,0.0,0.0,0.0,0.0,0.0,0.0,0.0,0.0,0.0,0.0,0.0,0.0,0.0,0.0,0.0,0.0,0.0,0.0,0.0,0.0,0.0,0.0,0.0,0.0,0.0,0.0,0.0,0.0,0.0,0.0,0.0,0.0,0.0,0.0,0.0,0.0,0.0,0.0,0.0,0.0,0.0,0.0,0.0,0.0,0.0,0.0,0.0,0.0,0.0,0.0,0.0,0.0,0.0,0.0,0.0,0.0,0.0,0.0,0.0,0.0,0.0,0.0,0.0,0.0,0.0,0.0,0.0,0.0,0.0,0.0,0.0,0.0,0.0,0.0,0.0,0.0,0.0,0.0,0.0,0.0,0.0,0.0,0.0,0.0,0.0,0.0,0.0,0.0,0.0,0.0,0.0,0.0,0.0,0.0,0.0,0.0,0.0,0.0,0.0,0.0,0.0,0.0,0.0,0.0,0.0,0.0,0.0,0.0,0.0,0.0,0.0,0.0,0.0,0.0,0.0,0.0,0.0,0.0,0.0,0.0,0.0,0.0,0.0,0.0,0.0,0.0,0.0,0.0,0.0,0.0,0.0,0.0,0.0,0.0,0.0,0.0,0.0,0.0,0.0,0.0,0.0,0.0,0.0,0.0,0.0,0.0,0.0,0.0,0.0,0.0,0.0,0.0,0.0,0.0,0.0,0.0,0.0,0.0,0.0,0.0,0.0,0.0,0.0,0.0,0.0,0.0,0.0,0.0,0.0,0.0,0.0,0.0,0.0,0.0,0.0,0.0,0.0,0.0,0.0,0.0,0.0,0.0,0.0,0.0,0.0,0.0,0.0,0.0,0.0,0.0,0.0,0.0,0.0,0.0,0.0,0.0,0.0,0.0,0.0,0.0,0.0,0.0,0.0,0.0,0.0,0.0,0.0,0.0,0.0,0.0,0.0,0.0,0.0,0.0,0.0,0.0,0.0,0.0,0.0,0.0,0.0,0.0,0.0,0.0,0.0,0.0,0.0,0.0,0.0,0.0,0.0,0.0,0.0,0.0,0.0,0.0,0.0,0.0,0.0,0.0,0.0,0.0,0.0,0.0,0.0,0.0,0.0,0.0,0.0,0.0,0.0,0.0,0.0,0.0,0.0,0.0,0.0,0.0,0.0,0.0,0.0,0.0,0.0,0.0,0.0,0.0,0.0,0.0,0.0,0.0,0.0,0.0,0.0,0.0,0.0,0.0,0.0,0.0,0.0,0.0,0.0,0.0,0.0,0.0,0.0,0.0,0.0,0.0,0.0,0.0,0.0,0.0,0.0,0.0,0.0,0.0,0.0,0.0,0.0,0.0,0.0,0.0,0.0,0.0,0.0,0.0,0.0,0.0,0.0,0.0,0.0,0.0,0.0,0.0,0.0,0.0,0.0,0.0,0.0,0.0,0.0,0.0,0.0,0.0,0.0,0.0,0.0,0.0,0.0,0.0,0.0,0.0,0.0,0.0,0.0,0.0,0.0,0.0,0.0,0.0,0.0,0.0,0.0,0.0,0.0,0.0,0.0,0.0,0.0,0.0,0.0,0.0,0.0,0.0,0.0,0.0,0.0,0.0,0.0,0.0,0.0,0.0,0.0,0.0,0.0,0.0,0.0,0.0,0.0,0.0,0.0,0.0,0.0,0.0,0.0,0.0,0.0,0.0,0.0,0.0,0.0,0.0,0.0,0.0,0.0,0.0,0.0,0.0,0.0,0.0,0.0,0.0,0.0,0.0,0.0,0.0,0.0,0.0,0.0,0.0,0.0,0.0,0.0,0.0,0.0,0.0,0.0,0.0,0.0,0.0,0.0,0.0,0.0,0.0,0.0,0.0,0.0,0.0,0.0,0.0,0.0,0.0,0.0,0.0,0.0,0.0,0.0,0.0,0.0,0.0,0.0,0.0,0.0,0.0,0.0,0.0,0.0,0.0,0.0,0.0,0.0,0.0,0.0,0.0,0.0,0.0,0.0,0.0,0.0,0.0,0.0,0.0,0.0,0.0,0.0,0.0,0.0,0.0,0.0,0.0,0.0,0.0,0.0,0.0,0.0,0.0,0.0,0.0,0.0,0.0,0.0,0.0,0.0,0.0,0.0,0.0,0.0,0.0,0.0,0.0,0.0,0.0,0.0,0.0,0.0,0.0,0.0,0.0,0.0,0.0,0.0,0.0,0.0,0.0,0.0,0.0,0.0,0.0,0.0,0.0,0.0,0.0,0.0,0.0,0.0,0.0,0.0,0.0,0.0,0.0,0.0,2.756,0.0,0.0,0.0,2.756,0.0,0.0,0.0,0.0,0.0,0.0,0.0,0.0,0.0,0.0,0.0,0.0,0.0,0.0,0.0,0.0,0.0,0.0,0.0,0.0,0.0,0.0,0.0,0.0,0.0,0.0,0.0,0.0,0.0,0.0,0.0,0.0,0.0,0.0,0.0,0.0,0.0,0.0,0.0,0.0,0.0,0.0,0.0,0.0,0.0,0.0,0.0,0.0,0.0,0.0,0.0,0.0,0.0,0.0,0.0,0.0,0.0,0.0,0.0,0.0,0.0,0.0,0.0,0.0,0.0,0.0,0.0,0.0,0.0,0.0,0.0,0.0,0.0,0.0,0.0,0.0,0.0,0.0,0.0,0.0,0.0,0.0,0.0,0.0,0.0,0.0,0.0,0.0,0.0,0.0,0.0,0.0,0.0,0.0,0.0,0.0,0.0,0.0,0.0,0.0,0.0,0.0,0.0,0.0,0.0,0.0,0.0,0.0,0.0,0.0,2.8128,2.8128,2.8487,2.8487,2.8128,0.0,0.0,0.0,0.0,0.0,0.0,0.0,0.0,0.0,0.0,0.0,0.0,0.0,0.0,0.0,0.0,0.0,0.0,0.0,0.0,0.0,0.0,0.0,0.0,0.0,0.0,0.0,0.0,0.0,0.0,0.0,0.0,0.0,0.0,0.0,0.0,0.0,0.0,0.0,0.0,0.0,0.0,0.0,0.0,0.0,0.0,0.0,0.0,0.0,0.0,0.0,0.0,0.0,0.0,0.0,0.0,0.0,0.0,0.0,0.0,0.0,0.0,0.0,0.0,0.0,0.0,0.0,0.0,0.0,0.0,0.0,0.0,0.0,0.0,0.0,0.0,0.0,0.0,0.0,0.0,0.0,0.0,0.0,0.0,0.0,0.0,0.0,0.0,0.0,0.0,0.0,0.0,0.0,0.0,0.0,0.0,0.0,0.0,0.0,0.0,0.0,0.0,0.0,0.0,0.0,0.0,0.0,0.0,0.0,0.0,0.0,0.0,2.9175,2.9056,2.8397,0.0,0.0,0.0,0.0,0.0,0.0,0.0,0.0,0.0,0.0,0.0,0.0,0.0,0.0,0.0,0.0,0.0,0.0,0.0,0.0,0.0,0.0,0.0,0.0,0.0,0.0,0.0,0.0,0.0,0.0,0.0,0.0,0.0,0.0,0.0,0.0,0.0,0.0,0.0,0.0,0.0,0.0,0.0,0.0,0.0,0.0,0.0,0.0,0.0,0.0,0.0,0.0,0.0,0.0,0.0,0.0,0.0,0.0,0.0,0.0,0.0,0.0,0.0,0.0,0.0,0.0,0.0,0.0,0.0,0.0,0.0,0.0,0.0,0.0,0.0,0.0,0.0,0.0,0.0,0.0,0.0,0.0,0.0,0.0,0.0,0.0,0.0,0.0,0.0,0.0,0.0,0.0,0.0,0.0,0.0,0.0,0.0,0.0,0.0,0.0,0.0,0.0,0.0,0.0,0.0,0.0,0.0,0.0,0.0,0.0,2.9505,2.9475,2.8966,0.0,2.7829,0.0,0.0,0.0,0.0,0.0,0.0,0.0,0.0,0.0,0.0,0.0,0.0,0.0,0.0,0.0,0.0,0.0,0.0,0.0,0.0,0.0,0.0,0.0,0.0,0.0,0.0,0.0,0.0,0.0,0.0,0.0,0.0,0.0,0.0,0.0,0.0,0.0,0.0,0.0,0.0,0.0,0.0,0.0,0.0,0.0,0.0,0.0,0.0,0.0,0.0,0.0,0.0,0.0,0.0,0.0,0.0,0.0,0.0,0.0,0.0,0.0,0.0,0.0,0.0,0.0,0.0,0.0,0.0,0.0,0.0,0.0,0.0,0.0,0.0,0.0,0.0,0.0,0.0,0.0,0.0,0.0,0.0,0.0,0.0,0.0,0.0,0.0,0.0,0.0,0.0,0.0,0.0,0.0,0.0,0.0,0.0,0.0,0.0,0.0,0.0,0.0,0.0,0.0,0.0,0.0,0.0,0.0,0.0,0.0,0.0,3.1204,3.076,3.0104,2.9806,0.0,0.0,0.0,0.0,0.0,0.0,0.0,0.0,0.0,0.0,0.0,0.0,0.0,0.0,0.0,0.0,0.0,0.0,0.0,0.0,0.0,0.0,0.0,0.0,0.0,0.0,0.0,0.0,0.0,0.0,0.0,0.0,0.0,0.0,0.0,0.0,0.0,0.0,0.0,0.0,0.0,0.0,0.0,0.0,0.0,0.0,0.0,0.0,0.0,0.0,0.0,0.0,0.0,0.0,0.0,0.0,0.0,0.0,0.0,0.0,0.0,0.0,0.0,0.0,0.0,0.0,0.0,0.0,0.0,0.0,0.0,0.0,0.0,0.0,0.0,0.0,0.0,0.0,0.0,0.0,0.0,0.0,0.0,0.0,0.0,0.0,0.0,0.0,0.0,0.0,0.0,0.0,0.0,0.0,0.0,0.0,0.0,0.0,0.0,0.0,0.0,0.0,0.0,0.0,0.0,0.0,0.0,0.0,0.0,0.0,3.2134,3.2278,3.1534,3.1362,3.1269,3.1145,0.0,0.0,0.0,0.0,0.0,0.0,0.0,0.0,0.0,0.0,0.0,0.0,0.0,0.0,0.0,0.0,0.0,0.0,0.0,0.0,0.0,0.0,0.0,0.0,0.0,0.0,0.0,0.0,0.0,0.0,0.0,0.0,0.0,0.0,0.0,0.0,0.0,0.0,0.0,0.0,0.0,0.0,0.0,0.0,0.0,0.0,0.0,0.0,0.0,0.0,0.0,0.0,0.0,0.0,0.0,0.0,0.0,0.0,0.0,0.0,0.0,0.0,0.0,0.0,0.0,0.0,0.0,0.0,0.0,0.0,0.0,0.0,0.0,0.0,0.0,0.0,0.0,0.0,0.0,0.0,0.0,0.0,0.0,0.0,0.0,0.0,0.0,0.0,0.0,0.0,0.0,0.0,0.0,0.0,0.0,0.0,0.0,0.0,0.0,0.0,0.0,0.0,0.0,0.0,0.0,0.0,0.0,0.0,3.2442,3.2506,3.2205,3.1694,3.2707,3.2199,0.0,0.0,0.0,0.0,0.0,0.0,0.0,0.0,0.0,0.0,0.0,0.0,0.0,0.0,0.0,0.0,0.0,0.0,0.0,0.0,0.0,0.0,0.0,0.0,0.0,0.0,0.0,0.0,0.0,0.0,0.0,0.0,0.0,0.0,0.0,0.0,0.0,0.0,0.0,0.0,0.0,0.0,0.0,0.0,0.0,0.0,0.0,0.0,0.0,0.0,0.0,0.0,0.0,0.0,0.0,0.0,0.0,0.0,0.0,0.0,0.0,0.0,0.0,0.0,0.0,0.0,0.0,0.0,0.0,0.0,0.0,0.0,0.0,0.0,0.0,0.0,0.0,0.0,0.0,0.0,0.0,0.0,0.0,0.0,0.0,0.0,0.0,0.0,0.0,0.0,0.0,0.0,0.0,0.0,0.0,0.0,0.0,0.0,0.0,0.0,0.0,0.0,0.0,0.0,0.0,0.0,0.0,0.0,0.0,3.3893,3.3815,3.4612,3.6155,3.4039,3.2821,0.0,0.0,0.0,0.0,0.0,0.0,0.0,0.0,0.0,0.0,0.0,0.0,0.0,0.0,0.0,0.0,0.0,0.0,0.0,0.0,0.0,0.0,0.0,0.0,0.0,0.0,0.0,0.0,0.0,0.0,0.0,0.0,0.0,0.0,0.0,0.0,0.0,0.0,0.0,0.0,0.0,0.0,0.0,0.0,0.0,0.0,0.0,0.0,0.0,0.0,0.0,0.0,0.0,0.0,0.0,0.0,0.0,0.0,0.0,0.0,0.0,0.0,0.0,0.0,0.0,0.0,0.0,0.0,0.0,0.0,0.0,0.0,0.0,0.0,0.0,0.0,0.0,0.0,0.0,0.0,0.0,0.0,0.0,0.0,0.0,0.0,0.0,0.0,0.0,0.0,0.0,0.0,0.0,0.0,0.0,0.0,0.0,0.0,0.0,0.0,0.0,0.0,0.0,0.0,0.0,0.0,0.0,0.0,0.0,3.4259,3.4431,3.5588,3.7686,3.4592,3.3274,0.0,0.0,0.0,0.0,0.0,0.0,0.0,0.0,0.0,0.0,0.0,0.0,0.0,0.0,0.0,0.0,0.0,0.0,0.0,0.0,0.0,0.0,0.0,0.0,0.0,0.0,0.0,0.0,0.0,0.0,0.0,0.0,0.0,0.0,0.0,0.0,0.0,0.0,0.0,0.0,0.0,0.0,0.0,0.0,0.0,0.0,0.0,0.0,0.0,0.0,0.0,0.0,0.0,0.0,0.0,0.0,0.0,0.0,0.0,0.0,0.0,0.0,0.0,0.0,0.0,0.0,0.0,0.0,0.0,0.0,0.0,0.0,0.0,0.0,0.0,0.0,0.0,0.0,0.0,0.0,0.0,0.0,0.0,0.0,0.0,0.0,0.0,0.0,0.0,0.0,0.0,0.0,0.0,0.0,0.0,0.0,0.0,0.0,0.0,0.0,0.0,0.0,0.0,0.0,0.0,0.0,0.0,0.0,3.3989,3.3525,3.421,3.5023,3.5577,3.4305,3.3518,0.0,0.0,0.0,0.0,0.0,0.0,0.0,0.0,0.0,0.0,0.0,0.0,0.0,0.0,0.0,0.0,0.0,0.0,0.0,0.0,0.0,0.0,0.0,0.0,0.0,0.0,0.0,0.0,0.0,0.0,0.0,0.0,0.0,0.0,0.0,0.0,0.0,0.0,0.0,0.0,0.0,0.0,0.0,0.0,0.0,0.0,0.0,0.0,0.0,0.0,0.0,0.0,0.0,0.0,0.0,0.0,0.0,0.0,0.0,0.0,0.0,0.0,0.0,0.0,0.0,0.0,0.0,0.0,0.0,0.0,0.0,0.0,0.0,0.0,0.0,0.0,0.0,0.0,0.0,0.0,0.0,0.0,0.0,0.0,0.0,0.0,0.0,0.0,0.0,0.0,0.0,0.0,0.0,0.0,0.0,0.0,0.0,0.0,0.0,0.0,0.0,0.0,0.0,0.0,0.0,0.0,0.0,0.0,0.0,3.4989,3.5849,3.6651,3.7089,3.5095,3.4066,0.0,0.0,0.0,0.0,0.0,0.0,0.0,0.0,0.0,0.0,0.0,0.0,0.0,0.0,0.0,0.0,0.0,0.0,0.0,0.0,0.0,0.0,0.0,0.0,0.0,0.0,0.0,0.0,0.0,0.0,0.0,0.0,0.0,0.0,0.0,0.0,0.0,0.0,0.0,0.0,0.0,0.0,0.0,0.0,0.0,0.0,0.0,0.0,0.0,0.0,0.0,0.0,0.0,0.0,0.0,0.0,0.0,0.0,0.0,0.0,0.0,0.0,0.0,0.0,0.0,0.0,0.0,0.0,0.0,0.0,0.0,0.0,0.0,0.0,0.0,0.0,0.0,0.0,0.0,0.0,0.0,0.0,0.0,0.0,0.0,0.0,0.0,0.0,0.0,0.0,0.0,0.0,0.0,0.0,0.0,0.0,0.0,0.0,0.0,0.0,0.0,0.0,0.0,0.0,0.0,0.0,0.0,0.0,0.0,3.7005,3.7411,3.7777,3.8067,3.5538,3.4392,3.4711,0.0,0.0,0.0,0.0,0.0,0.0,0.0,0.0,0.0,0.0,0.0,0.0,0.0,0.0,0.0,0.0,0.0,0.0,0.0,0.0,0.0,0.0,0.0,0.0,0.0,0.0,0.0,0.0,0.0,0.0,0.0,0.0,0.0,0.0,0.0,0.0,0.0,0.0,0.0,0.0,0.0,0.0,0.0,0.0,0.0,0.0,0.0,0.0,0.0,0.0,0.0,0.0,0.0,0.0,0.0,0.0,0.0,0.0,0.0,0.0,0.0,0.0,0.0,0.0,0.0,0.0,0.0,0.0,0.0,0.0,0.0,0.0,0.0,0.0,0.0,0.0,0.0,0.0,0.0,0.0,0.0,0.0,0.0,0.0,0.0,0.0,0.0,0.0,0.0,0.0,0.0,0.0,0.0,0.0,0.0,0.0,0.0,0.0,0.0,0.0,0.0,0.0,0.0,0.0,0.0,0.0,0.0,0.0,3.9393,3.8869,3.8531,3.8447,3.5836,3.4658,0.0,0.0,0.0,0.0,0.0,0.0,0.0,0.0,0.0,0.0,0.0,0.0,0.0,0.0,0.0,0.0,0.0,0.0,0.0,0.0,0.0,0.0,0.0,0.0,0.0,0.0,0.0,0.0,0.0,0.0,0.0,0.0,0.0,0.0,0.0,0.0,0.0,0.0,0.0,0.0,0.0,0.0,0.0,0.0,0.0,0.0,0.0,0.0,0.0,0.0,0.0,0.0,0.0,0.0,0.0,0.0,0.0,0.0,0.0,0.0,0.0,0.0,0.0,0.0,0.0,0.0,0.0,0.0,0.0,0.0,0.0,0.0,0.0,0.0,0.0,0.0,0.0,0.0,0.0,0.0,0.0,0.0,0.0,0.0,0.0,0.0,0.0,0.0,0.0,0.0,0.0,0.0,0.0,0.0,0.0,0.0,0.0,0.0,0.0,0.0,0.0,0.0,0.0,0.0,0.0,0.0,0.0,0.0,0.0,3.9527,3.9954,4.0246,4.0381,3.7856,3.613,0.0,0.0,0.0,0.0,0.0,0.0,0.0,0.0,0.0,0.0,0.0,0.0,0.0,0.0,0.0,0.0,0.0,0.0,0.0,0.0,0.0,0.0,0.0,0.0,0.0,0.0,0.0,0.0,0.0,0.0,0.0,0.0,0.0,0.0,0.0,0.0,0.0,0.0,0.0,0.0,0.0,0.0,0.0,0.0,0.0,0.0,0.0,0.0,0.0,0.0,0.0,0.0,0.0,0.0,0.0,0.0,0.0,0.0,0.0,0.0,0.0,0.0,0.0,0.0,0.0,0.0,0.0,0.0,0.0,0.0,0.0,0.0,0.0,0.0,0.0,0.0,0.0,0.0,0.0,0.0,0.0,0.0,0.0,0.0,0.0,0.0,0.0,0.0,0.0,0.0,0.0,0.0,0.0,0.0,0.0,0.0,0.0,0.0,0.0,0.0,0.0,0.0,0.0,0.0,0.0,0.0,0.0,0.0,3.9624,4.0641,4.0978,4.1374,4.1819,3.9228,3.7398,0.0,0.0,0.0,0.0,0.0,0.0,0.0,0.0,0.0,0.0,0.0,0.0,0.0,0.0,0.0,0.0,0.0,0.0,0.0,0.0,0.0,0.0,0.0,0.0,0.0,0.0,0.0,0.0,0.0,0.0,0.0,0.0,0.0,0.0,0.0,0.0,0.0,0.0,0.0,0.0,0.0,0.0,0.0,0.0,0.0,0.0,0.0,0.0,0.0,0.0,0.0,0.0,0.0,0.0,0.0,0.0,0.0,0.0,0.0,0.0,0.0,0.0,0.0,0.0,0.0,0.0,0.0,0.0,0.0,0.0,0.0,0.0,0.0,0.0,0.0,0.0,0.0,0.0,0.0,0.0,0.0,0.0,0.0,0.0,0.0,0.0,0.0,0.0,0.0,0.0,0.0,0.0,0.0,0.0,0.0,0.0,0.0,0.0,0.0,0.0,0.0,0.0,0.0,0.0,0.0,0.0,0.0,0.0,4.0703,4.1887,4.1655,4.1854,4.2518,4.004,3.8395,0.0,0.0,0.0,0.0,0.0,0.0,0.0,0.0,0.0,0.0,0.0,0.0,0.0,0.0,0.0,0.0,0.0,0.0,0.0,0.0,0.0,0.0,0.0,0.0,0.0,0.0,0.0,0.0,0.0,0.0,0.0,0.0,0.0,0.0,0.0,0.0,0.0,0.0,0.0,0.0,0.0,0.0,0.0,0.0,0.0,0.0,0.0,0.0,0.0,0.0,0.0,0.0,0.0,0.0,0.0,0.0,0.0,0.0,0.0,0.0,0.0,0.0,0.0,0.0,0.0,0.0,0.0,0.0,0.0,0.0,0.0,0.0,0.0,0.0,0.0,0.0,0.0,0.0,0.0,0.0,0.0,0.0,0.0,0.0,0.0,0.0,0.0,0.0,0.0,0.0,0.0,0.0,0.0,0.0,0.0,0.0,0.0,0.0,0.0,0.0,0.0,0.0,0.0,0.0,0.0,0.0,0.0,0.0,3.9945,4.0812,4.089,4.1273,4.2103,4.0654,3.9069,0.0,0.0,0.0,0.0,0.0,0.0,0.0,0.0,0.0,0.0,0.0,0.0,0.0,0.0,0.0,0.0,0.0,0.0,0.0,0.0,0.0,0.0,0.0,0.0,0.0,0.0,0.0,0.0,0.0,0.0,0.0,0.0,0.0,0.0,0.0,0.0,0.0,0.0,0.0,0.0,0.0,0.0,0.0,0.0,0.0,0.0,0.0,0.0,3.6894,0.0,0.0,0.0,0.0,0.0,0.0,0.0,0.0,0.0,0.0,0.0,0.0,0.0,0.0,0.0,0.0,0.0,0.0,0.0,0.0,0.0,0.0,0.0,0.0,0.0,0.0,0.0,0.0,0.0,0.0,0.0,0.0,0.0,0.0,0.0,0.0,0.0,0.0,0.0,0.0,0.0,0.0,0.0,0.0,0.0,0.0,0.0,0.0,0.0,0.0,0.0,0.0,0.0,0.0,0.0,0.0,0.0,0.0,0.0,3.974,4.0181,4.0304,4.0586,4.109,4.0591,3.9631,0.0,0.0,0.0,0.0,0.0,0.0,0.0,0.0,0.0,0.0,0.0,0.0,0.0,0.0,0.0,0.0,0.0,0.0,0.0,0.0,0.0,0.0,0.0,0.0,0.0,0.0,0.0,0.0,0.0,0.0,0.0,0.0,0.0,0.0,0.0,0.0,0.0,0.0,0.0,0.0,0.0,0.0,0.0,0.0,0.0,0.0,0.0,0.0,0.0,0.0,0.0,0.0,0.0,0.0,0.0,0.0,0.0,0.0,0.0,0.0,0.0,0.0,0.0,0.0,0.0,0.0,0.0,0.0,0.0,0.0,0.0,0.0,0.0,0.0,0.0,0.0,0.0,0.0,0.0,0.0,0.0,0.0,0.0,0.0,0.0,0.0,0.0,0.0,0.0,0.0,0.0,0.0,0.0,0.0,0.0,0.0,0.0,0.0,0.0,0.0,0.0,0.0,0.0,0.0,0.0,0.0,0.0,3.8878,3.9523,3.9635,3.9614,3.9822,4.0198,4.0234,3.9867,3.9029,0.0,0.0,0.0,0.0,0.0,0.0,0.0,0.0,0.0,0.0,0.0,0.0,0.0,0.0,0.0,0.0,0.0,0.0,0.0,0.0,0.0,0.0,0.0,0.0,0.0,0.0,0.0,0.0,0.0,0.0,0.0,0.0,0.0,0.0,0.0,0.0,0.0,0.0,3.816,3.8356,0.0,0.0,0.0,0.0,0.0,0.0,0.0,0.0,3.7702,0.0,0.0,0.0,0.0,0.0,0.0,0.0,0.0,0.0,0.0,0.0,0.0,0.0,0.0,0.0,0.0,0.0,0.0,0.0,0.0,0.0,0.0,0.0,0.0,0.0,0.0,0.0,0.0,0.0,0.0,0.0,0.0,0.0,0.0,0.0,0.0,0.0,0.0,0.0,0.0,0.0,0.0,0.0,0.0,0.0,0.0,0.0,0.0,0.0,0.0,0.0,0.0,0.0,0.0,0.0,0.0,3.7756,3.7882,3.8103,3.8396,3.8476,3.902,4.0148,3.9855,3.9351,3.8702,0.0,0.0,0.0,0.0,0.0,0.0,0.0,0.0,0.0,0.0,0.0,0.0,0.0,0.0,0.0,0.0,0.0,0.0,0.0,0.0,0.0,0.0,0.0,0.0,0.0,0.0,0.0,0.0,0.0,0.0,0.0,0.0,0.0,0.0,0.0,0.0,0.0,0.0,0.0,3.7905,3.8642,0.0,0.0,0.0,0.0,0.0,0.0,0.0,0.0,3.6827,0.0,0.0,0.0,0.0,0.0,0.0,0.0,0.0,0.0,0.0,0.0,0.0,0.0,0.0,0.0,0.0,0.0,0.0,0.0,0.0,0.0,0.0,0.0,0.0,0.0,0.0,0.0,0.0,0.0,0.0,0.0,0.0,0.0,0.0,0.0,0.0,0.0,0.0,0.0,0.0,0.0,0.0,0.0,0.0,0.0,0.0,0.0,0.0,0.0,0.0,0.0,0.0,0.0,0.0,0.0,3.6444,3.6703,3.6894,3.7041,3.7109,3.7667,3.8884,3.8922,3.8745,0.0,0.0,0.0,0.0,0.0,0.0,0.0,0.0,0.0,0.0,0.0,0.0,0.0,0.0,0.0,0.0,0.0,0.0,0.0,0.0,0.0,0.0,0.0,0.0,0.0,0.0,0.0,0.0,0.0,0.0,0.0,0.0,0.0,0.0,0.0,0.0,0.0,0.0,0.0,0.0,3.828,3.8687,3.9589,0.0,0.0,0.0,0.0,0.0,0.0,3.6918,3.6966,0.0,0.0,0.0,0.0,0.0,0.0,0.0,0.0,0.0,0.0,0.0,0.0,0.0,0.0,0.0,0.0,0.0,0.0,0.0,0.0,0.0,0.0,0.0,0.0,0.0,0.0,0.0,0.0,0.0,0.0,0.0,0.0,0.0,0.0,0.0,0.0,0.0,0.0,0.0,0.0,0.0,0.0,0.0,0.0,0.0,0.0,0.0,0.0,0.0,0.0,0.0,0.0,0.0,0.0,0.0,3.4796,3.5405,3.5675,3.56,3.572,3.6333,3.7421,3.7947,3.804,0.0,0.0,0.0,0.0,0.0,0.0,0.0,0.0,0.0,0.0,0.0,0.0,0.0,0.0,0.0,0.0,0.0,0.0,0.0,0.0,0.0,0.0,0.0,0.0,0.0,0.0,0.0,0.0,0.0,0.0,0.0,0.0,0.0,0.0,0.0,0.0,0.0,0.0,0.0,0.0,0.0,3.9003,3.9926,3.87,0.0,0.0,0.0,0.0,3.7586,3.7457,0.0,0.0,0.0,0.0,0.0,0.0,0.0,0.0,0.0,0.0,0.0,0.0,0.0,0.0,0.0,0.0,0.0,0.0,0.0,0.0,0.0,0.0,0.0,0.0,0.0,0.0,0.0,0.0,0.0,0.0,0.0,0.0,0.0,0.0,0.0,0.0,0.0,0.0,0.0,0.0,0.0,0.0,0.0,0.0,0.0,0.0,0.0,0.0,0.0,0.0,0.0,0.0,0.0,0.0,0.0,0.0,3.3298,3.405,3.4251,3.3956,3.4478,3.5425,3.6672,3.6935,3.7127,0.0,0.0,0.0,0.0,0.0,0.0,0.0,0.0,0.0,0.0,0.0,0.0,0.0,0.0,0.0,0.0,0.0,0.0,0.0,0.0,0.0,0.0,0.0,0.0,0.0,0.0,0.0,0.0,0.0,0.0,0.0,0.0,0.0,0.0,0.0,0.0,0.0,0.0,0.0,0.0,0.0,3.9763,4.0566,3.9915,3.9488,0.0,0.0,3.819,3.7682,3.736,0.0,0.0,0.0,0.0,0.0,0.0,0.0,0.0,0.0,0.0,0.0,0.0,0.0,0.0,0.0,0.0,0.0,0.0,0.0,0.0,0.0,0.0,0.0,0.0,0.0,0.0,0.0,0.0,0.0,0.0,0.0,0.0,0.0,0.0,0.0,0.0,0.0,0.0,0.0,0.0,0.0,0.0,0.0,0.0,0.0,0.0,0.0,0.0,0.0,0.0,0.0,0.0,0.0,0.0,0.0,3.338,3.2707,3.3425,3.3598,3.3077,3.3339,3.4092,3.5448,3.5868,3.6274,0.0,0.0,0.0,0.0,0.0,0.0,0.0,0.0,0.0,0.0,0.0,0.0,0.0,0.0,0.0,0.0,0.0,0.0,0.0,0.0,0.0,0.0,0.0,0.0,0.0,0.0,0.0,0.0,0.0,0.0,0.0,0.0,0.0,0.0,0.0,0.0,0.0,0.0,0.0,0.0,0.0,0.0,4.087,4.0564,0.0,0.0,0.0,3.9565,3.8793,0.0,0.0,0.0,0.0,0.0,0.0,0.0,0.0,0.0,0.0,0.0,0.0,0.0,0.0,0.0,0.0,0.0,0.0,0.0,0.0,0.0,0.0,0.0,0.0,0.0,0.0,0.0,0.0,0.0,0.0,0.0,0.0,0.0,0.0,0.0,0.0,0.0,0.0,0.0,0.0,0.0,0.0,0.0,0.0,0.0,0.0,0.0,0.0,0.0,0.0,0.0,0.0,0.0,0.0,0.0,0.0,0.0,3.2177,3.3143,3.3182,3.2382,3.2492,3.3199,3.4418,3.4934,0.0,0.0,0.0,0.0,0.0,0.0,0.0,0.0,0.0,0.0,0.0,0.0,0.0,0.0,0.0,0.0,0.0,0.0,0.0,0.0,0.0,0.0,0.0,0.0,0.0,0.0,0.0,3.5836,0.0,0.0,0.0,0.0,0.0,0.0,0.0,0.0,0.0,0.0,0.0,0.0,0.0,0.0,4.1244,4.0998,4.0901,4.0673,0.0,0.0,4.0457,3.9779,3.9039,3.8559,0.0,0.0,0.0,0.0,0.0,0.0,0.0,0.0,0.0,0.0,0.0,0.0,0.0,0.0,0.0,0.0,0.0,0.0,0.0,0.0,0.0,0.0,0.0,0.0,0.0,0.0,0.0,0.0,0.0,0.0,0.0,0.0,0.0,0.0,0.0,0.0,0.0,0.0,0.0,0.0,0.0,0.0,0.0,0.0,0.0,0.0,0.0,0.0,0.0,0.0,0.0,0.0,0.0,0.0,3.2469,3.1566,3.2894,3.2917,3.1682,3.2216,3.2949,3.3662,3.4301,3.4351,0.0,0.0,0.0,0.0,0.0,0.0,0.0,0.0,0.0,0.0,0.0,0.0,0.0,0.0,0.0,0.0,0.0,0.0,0.0,0.0,0.0,0.0,0.0,0.0,0.0,0.0,0.0,0.0,0.0,0.0,0.0,0.0,0.0,0.0,0.0,0.0,0.0,0.0,0.0,0.0,0.0,4.0835,4.0827,4.0818,4.0772,0.0,4.0405,4.0185,4.008,3.95,3.8915,3.8475,0.0,0.0,0.0,0.0,0.0,0.0,0.0,0.0,0.0,0.0,0.0,0.0,0.0,0.0,0.0,0.0,0.0,0.0,0.0,0.0,0.0,0.0,0.0,0.0,0.0,0.0,0.0,0.0,0.0,0.0,0.0,0.0,0.0,0.0,0.0,0.0,0.0,0.0,0.0,0.0,0.0,0.0,0.0,0.0,0.0,0.0,0.0,0.0,0.0,0.0,0.0,0.0,0.0,3.1626,3.2239,3.274,3.2516,3.1597,3.1796,3.2461,3.3598,3.382,3.4167,0.0,0.0,0.0,0.0,0.0,0.0,0.0,0.0,0.0,0.0,0.0,0.0,0.0,0.0,0.0,0.0,0.0,0.0,0.0,0.0,0.0,0.0,0.0,0.0,0.0,0.0,0.0,0.0,3.9296,3.9684,4.0178,0.0,0.0,0.0,0.0,0.0,0.0,0.0,0.0,0.0,0.0,4.1719,4.1713,4.1668,0.0,0.0,4.1119,4.1036,4.0257,4.0327,4.017,3.9301,3.9323,0.0,0.0,0.0,0.0,0.0,0.0,0.0,0.0,0.0,0.0,0.0,0.0,0.0,0.0,0.0,0.0,0.0,0.0,0.0,0.0,0.0,0.0,0.0,0.0,0.0,0.0,0.0,0.0,0.0,0.0,0.0,0.0,0.0,0.0,0.0,0.0,0.0,0.0,0.0,0.0,0.0,0.0,0.0,0.0,0.0,0.0,0.0,0.0,0.0,0.0,0.0,0.0,3.1115,3.241,3.252,3.2216,3.1539,3.1482,3.2104,3.3235,3.3495,3.3907,0.0,0.0,0.0,0.0,0.0,0.0,0.0,0.0,0.0,0.0,0.0,0.0,0.0,0.0,0.0,0.0,0.0,0.0,0.0,0.0,0.0,0.0,0.0,0.0,0.0,0.0,0.0,0.0,3.9972,4.0174,4.0818,0.0,0.0,0.0,0.0,0.0,0.0,0.0,0.0,0.0,0.0,4.1973,4.197,4.2095,4.1997,4.148,4.2018,4.2149,4.13,4.1283,4.1055,4.016,0.0,0.0,0.0,0.0,0.0,0.0,0.0,0.0,0.0,0.0,0.0,0.0,0.0,0.0,0.0,0.0,0.0,0.0,0.0,0.0,0.0,0.0,0.0,0.0,0.0,0.0,0.0,3.2858,0.0,0.0,2.9058,0.0,0.0,0.0,0.0,0.0,0.0,0.0,0.0,0.0,0.0,0.0,0.0,0.0,0.0,0.0,0.0,0.0,0.0,0.0,0.0,0.0,0.0,3.1302,3.1424,3.2213,3.2216,3.1539,3.1539,3.191,3.2625,3.3235,3.3437,3.3119,0.0,0.0,0.0,0.0,0.0,0.0,0.0,0.0,0.0,0.0,0.0,0.0,0.0,0.0,0.0,0.0,0.0,0.0,0.0,0.0,0.0,0.0,0.0,0.0,0.0,0.0,4.0719,4.0782,4.0831,0.0,0.0,0.0,0.0,0.0,0.0,0.0,0.0,0.0,4.1211,4.1211,4.1211,4.125,4.1875,4.2302,4.2236,4.2932,4.3456,4.3218,4.2291,4.1399,0.0,0.0,0.0,0.0,0.0,0.0,0.0,0.0,0.0,0.0,0.0,0.0,0.0,0.0,0.0,0.0,0.0,0.0,0.0,0.0,0.0,0.0,0.0,0.0,0.0,0.0,0.0,3.3991,3.2962,0.0,0.0,0.0,0.0,0.0,0.0,0.0,0.0,0.0,0.0,0.0,3.5899,3.6707,0.0,0.0,0.0,0.0,0.0,0.0,0.0,0.0,0.0,0.0,0.0,0.0,3.0402,3.1426,3.1732,3.1739,3.1539,3.1966,3.2571,3.3235,3.3921,3.4251,3.4137,0.0,0.0,0.0,0.0,0.0,0.0,0.0,0.0,0.0,0.0,0.0,0.0,0.0,0.0,0.0,0.0,0.0,0.0,0.0,0.0,0.0,0.0,0.0,0.0,0.0,4.0609,0.0,0.0,0.0,0.0,0.0,0.0,0.0,0.0,0.0,0.0,4.0944,4.0944,4.0944,4.0944,4.0944,4.0944,4.1178,4.1345,0.0,0.0,0.0,0.0,0.0,0.0,0.0,0.0,0.0,0.0,0.0,0.0,0.0,0.0,3.658,3.6165,3.5854,3.5723,3.596,0.0,0.0,0.0,0.0,0.0,0.0,0.0,0.0,0.0,0.0,0.0,0.0,0.0,0.0,3.4944,3.4117,3.3361,0.0,0.0,0.0,0.0,0.0,0.0,0.0,0.0,3.6376,3.7147,3.7147,3.7661,3.7624,3.7147,3.6833,3.6045,0.0,0.0,0.0,0.0,0.0,0.0,0.0,0.0,3.0959,3.2392,3.2323,3.2104,3.1966,3.2571,3.3024,3.3235,3.412,3.4835,3.5279,3.5715,3.5719,0.0,0.0,0.0,0.0,0.0,0.0,0.0,0.0,0.0,0.0,0.0,0.0,0.0,0.0,0.0,0.0,0.0,0.0,0.0,0.0,0.0,0.0,0.0,4.047,0.0,0.0,0.0,0.0,0.0,0.0,0.0,0.0,0.0,4.0813,4.0821,4.0821,4.0821,4.0749,4.0684,4.0645,0.0,0.0,0.0,0.0,0.0,0.0,0.0,4.3254,4.2024,4.2294,4.2123,4.0565,3.9674,3.9163,3.9034,0.0,0.0,3.6643,3.6114,3.581,3.5622,3.6451,3.6537,3.4706,3.4931,3.5156,0.0,0.0,0.0,0.0,3.7588,0.0,0.0,0.0,3.7,3.6303,0.0,3.4578,0.0,0.0,0.0,0.0,3.2816,3.433,0.0,0.0,3.7918,3.8689,3.8689,3.8689,3.8689,3.8689,3.8652,3.8026,3.6808,3.5151,0.0,0.0,0.0,0.0,0.0,0.0,3.3023,3.4185,3.3783,3.3287,3.2711,3.3287,3.3339,3.2788,3.4003,3.517,3.6298,3.6092,3.5898,3.5805,3.5621,0.0,0.0,0.0,0.0,0.0,0.0,0.0,0.0,0.0,0.0,0.0,0.0,0.0,0.0,0.0,0.0,0.0,0.0,0.0,0.0,4.0354,0.0,0.0,0.0,0.0,0.0,0.0,0.0,0.0,0.0,4.0577,4.0722,4.0796,4.0805,4.0843,0.0,0.0,0.0,0.0,4.1645,4.1645,4.3306,4.4509,4.4517,4.461,4.4489,4.4001,0.0,0.0,4.1777,4.1595,4.1452,4.1172,4.0628,3.9551,3.705,3.6631,3.6379,3.5892,3.588,3.5811,3.5695,3.5166,3.4727,3.9243,0.0,0.0,0.0,0.0,3.7734,3.7845,3.7808,3.7331,3.6817,3.6266,3.5789,0.0,0.0,0.0,0.0,0.0,0.0,3.6927,3.7184,3.8212,3.8689,3.8689,3.8689,3.8689,3.8689,3.8689,3.8517,3.8099,3.7284,3.558,3.3095,0.0,0.0,0.0,0.0,3.299,3.4202,3.3834,3.3495,3.3287,3.3971,3.4447,3.4721,3.5098,3.5644,3.6374,3.6693,3.672,3.6476,3.6216,0.0,0.0,0.0,0.0,0.0,0.0,0.0,0.0,0.0,0.0,0.0,0.0,0.0,0.0,0.0,0.0,0.0,0.0,0.0,4.0179,4.0548,4.0378,0.0,0.0,0.0,0.0,0.0,0.0,0.0,0.0,0.0,4.0307,4.0482,4.0822,0.0,0.0,4.0631,4.0969,4.076,4.053,4.0569,4.1558,0.0,4.2714,4.37,4.4216,4.3669,4.3132,4.2693,4.2357,4.2119,4.1841,4.1556,4.1341,4.0777,3.9516,3.852,3.8053,3.7826,3.7534,3.7099,3.6538,3.557,3.4699,4.0324,3.9213,3.9516,3.9203,3.8469,3.8799,3.8909,3.8946,3.8909,3.8652,3.8175,3.7881,3.7,3.5716,3.5092,0.0,0.0,0.0,3.7661,3.7991,3.8469,3.8689,3.8689,3.8689,3.8689,3.8689,3.8689,3.8689,3.8689,3.8132,3.6789,3.4588,0.0,3.3488,3.3403,3.3217,3.3669,3.4769,3.4529,3.4252,3.3971,3.4366,3.4958,3.5577,3.5622,3.5854,3.6374,3.6904,3.7183,3.7174,3.6936,3.6462,0.0,0.0,0.0,0.0,0.0,0.0,0.0,0.0,0.0,0.0,0.0,3.6853,3.6013,0.0,0.0,0.0,3.8541,3.9592,4.0279,4.053,0.0,0.0,0.0,0.0,0.0,0.0,0.0,4.3355,4.1739,4.0389,4.012,4.0339,4.0668,4.1085,4.0575,4.0273,4.057,0.0,3.9709,3.9709,4.0608,4.1495,4.2156,4.3414,4.4347,4.441,4.4175,4.3965,4.3713,4.3479,4.324,4.2897,4.2688,4.2389,4.1882,4.0953,3.9856,3.8903,3.8677,3.8418,3.7786,3.6751,3.5919,4.1295,4.1295,4.1295,4.0781,4.0084,4.0818,4.1079,4.1079,4.1079,4.1079,4.1005,4.0304,3.957,3.8799,3.7331,0.0,3.7771,3.7771,3.8175,3.8799,3.8799,3.8762,3.8689,3.8689,3.8689,3.8689,3.8689,3.8689,3.8658,3.8234,3.7602,3.6916,3.5962,3.5221,3.4558,3.4404,3.4732,3.5633,3.5667,3.5407,3.4783,3.4688,3.4971,3.5577,3.5667,3.5898,3.6374,3.6943,3.747,3.7857,3.7703,3.7221,3.6523,0.0,0.0,0.0,0.0,0.0,0.0,0.0,0.0,0.0,0.0,0.0,0.0,0.0,0.0,3.8063,3.8808,0.0,4.0063,4.0321,0.0,0.0,0.0,4.02,3.9469,4.0046,4.0508,4.0508,0.0,0.0,4.0158,4.0321,4.0372,4.0158,3.9819,3.9641,3.9693,3.9414,3.908,3.9133,4.0306,4.1528,4.245,4.3744,4.489,4.557,4.5902,4.5658,4.5317,4.523,4.5112,4.4635,4.4308,4.405,4.402,4.3204,4.1995,3.9561,3.9485,3.9733,3.9234,3.8229,3.747,4.2947,4.291,4.291,4.2103,4.0855,4.1038,4.1079,4.1079,4.1079,4.1079,4.1111,4.0928,4.0708,4.0524,4.012,4.0084,4.023,4.0267,4.001,3.9606,3.9606,3.9276,3.8726,3.8689,3.8689,3.8689,3.8689,3.8689,3.8689,3.8596,3.819,3.7675,3.7398,3.6534,3.5145,3.5231,3.5562,3.6207,3.6387,3.6302,3.5959,3.5554,3.5407,3.5622,3.5985,3.6249,3.6416,3.725,3.779,3.7893,3.825,3.8322,3.8138,3.6213,0.0,0.0,0.0,0.0,0.0,0.0,0.0,0.0,0.0,3.7516,3.6116,0.0,3.8369,0.0,3.9022,3.9692,4.0062,4.0139,0.0,0.0,4.0354,4.0446,4.0254,4.0392,4.0508,4.0508,4.0508,4.0389,4.012,4.0139,4.0196,4.012,4.0022,4.011,4.0518,3.9727,3.908,3.9181,3.9937,4.1079,4.2425,4.4229,4.5475,4.5655,4.5753,4.578,4.5683,4.558,4.5454,4.5168,4.4979,4.4762,4.4482,4.402,4.3198,4.1746,4.1032,4.0597,4.041,3.8631,3.7046,4.3497,4.3497,4.3497,4.2983,4.2176,4.2176,4.2176,4.2176,4.2176,4.2176,4.2139,4.1809,4.1442,4.1148,4.1079,4.1079,4.1079,4.1079,4.0855,4.0451,4.0451,4.0194,3.979,3.979,3.979,3.9753,3.9423,3.9423,3.9717,3.9056,3.8894,3.9286,3.8357,3.7578,3.6993,3.6047,3.5821,3.6142,3.6676,3.6851,3.6781,3.6498,3.6207,3.5985,3.6498,3.6746,3.6746,3.747,3.7893,3.7893,3.8433,3.8596,3.8364,3.7284,3.6743,0.0,0.0,0.0,0.0,0.0,0.0,0.0,0.0,0.0,0.0,0.0,3.8615,3.8473,3.9188,3.9641,3.9626,3.9797,4.0022,4.0304,4.0321,4.0321,4.0321,4.0422,4.0438,4.0339,4.0422,4.0389,4.012,4.0214,4.0194,4.0101,4.012,4.0134,4.0254,3.9577,3.9063,3.897,3.9445,4.0314,4.1774,4.3376,4.4614,4.5032,4.5204,4.5421,4.5742,4.5763,4.5676,4.5466,4.5312,4.5145,4.4872,4.4373,4.3738,4.3204,4.2322,4.1349,4.0231,3.8513,3.7157,4.3791,4.3791,4.3791,4.3791,4.3791,4.3791,4.3681,4.3497,4.3497,4.3532,4.3526,4.2827,4.2132,4.147,4.1405,4.1405,4.1405,4.1442,4.1368,4.1258,4.1258,4.1185,4.1079,4.1079,4.1079,4.1075,4.0377,4.0414,4.1075,3.968,3.9753,4.0969,3.9216,3.861,3.9117,3.7184,3.6217,3.629,3.6929,3.7285,3.7285,3.721,3.6981,3.6539,3.702,3.7285,3.7285,3.7863,3.8104,3.8032,3.8538,3.8606,3.8065,3.8355,3.7955,0.0,3.7147,0.0,0.0,0.0,0.0,0.0,0.0,0.0,0.0,3.8914,3.9266,3.905,3.9405,3.9552,3.9256,3.9439,3.9709,4.0042,4.012,4.0081,4.0177,4.0356,4.0406,4.0196,4.0356,4.0406,4.0214,4.0339,4.0356,4.0214,4.0253,4.0269,3.9883,3.9452,3.9008,3.875,3.9073,4.004,4.1182,4.235,4.3489,4.4305,4.4777,4.5023,4.5702,4.5799,4.5779,4.5644,4.5479,4.5312,4.5207,4.46,4.4087,4.3862,4.3067,4.1817,4.0,3.8646,3.7642,4.5443,4.5443,4.5443,4.5443,4.5443,4.5443,4.4709,4.3497,4.3497,4.3627,4.3912,4.3763,4.3578,4.3435,4.3188,4.3057,4.3057,4.3057,4.269,4.2066,4.2066,4.1735,4.1148,4.1079,4.1079,4.1111,4.0965,4.0965,4.1111,4.0818,4.0818,4.1042,4.0683,4.0248,3.9735,0.0,0.0,0.0,3.7898,3.7755,3.7755,3.7396,3.7135,3.7058,3.7506,0.0,3.7826,3.8885,3.9223,3.8601,3.9282,0.0,0.0,0.0,0.0,0.0,0.0,0.0,0.0,0.0,0.0,0.0,4.0551,4.0215,3.962,4.0283,4.0698,4.0634,4.0167,3.9904,4.0058,3.9544,3.9438,4.0022,4.012,4.0196,4.0389,4.0454,4.0492,4.046,4.0454,4.0492,4.0406,4.0304,4.0251,4.0449,4.0786,4.1035,4.0974,3.9962,3.9045,3.884,3.9805,4.0684,4.1223,4.2793,4.3893,4.4383,4.4993,4.5462,4.5697,4.5715,4.5724,4.578,4.569,4.5564,4.5617,4.5006,4.4336,4.3871,4.2814,4.1853,4.1305,3.9715,3.8274,4.6985,4.6792,4.658,4.65,0.0,4.6264,4.5848,4.5221,4.4596,4.4315,4.429,4.429,4.429,4.429,4.4125,4.3912,4.3758,4.398,4.3689,4.3167,4.3348,4.3125,4.2538,4.2538,4.2447,4.2286,4.1882,4.1919,4.2213,4.1479,4.1515,4.2286,4.1667,4.1261,4.1075,4.0822,4.054,4.0294,3.9753,3.9465,3.9465,3.926,3.8978,3.876,3.9226,0.0,0.0,0.0,0.0,0.0,0.0,0.0,0.0,3.9333,0.0,3.9863,3.9496,3.9643,4.0414,4.0487,4.0855,4.1625,4.2066,4.1772,4.0598,4.0891,4.1079,4.1079,4.0377,3.9958,4.0067,3.9357,3.9181,3.9754,3.984,3.9982,4.0269,4.0406,4.0476,4.0339,4.0406,4.0508,4.0508,4.0811,4.0969,4.1184,4.1771,4.2144,4.1932,4.132,4.0753,4.0456,4.0903,4.1571,4.193,4.2642,4.375,4.4205,4.4662,4.5137,4.5619,4.5712,4.5715,4.5835,4.5765,4.5718,4.5725,4.513,4.4508,4.4121,4.3135,4.2144,4.181,3.9898,3.8004,4.8746,4.8418,4.8083,4.7872,4.772,4.7402,4.7341,4.7311,4.6148,0.0,0.0,4.5117,4.5041,4.489,4.4839,4.4551,4.4117,4.4428,4.4401,4.4117,4.4428,4.4401,4.4117,4.4087,4.3974,4.3693,4.3033,4.3033,4.3623,4.2369,4.2369,4.3472,4.2627,4.2329,4.2622,4.2036,4.192,4.2321,4.154,4.1079,4.1079,4.1079,4.0909,4.0419,4.0839,4.0909,4.0491,4.0985,4.1055,4.0491,4.1022,4.1055,4.0491,4.0876,4.1185,4.1295,4.1332,4.1405,4.1515,4.1552,4.1809,4.247,4.3094,4.2947,4.1625,4.1515,4.1552,4.1552,4.0845,4.0399,4.0336,3.9577,3.9268,3.976,3.9739,3.9819,4.012,4.0356,4.0406,4.0251,4.0372,4.0546,4.0739,4.1316,4.1893,4.2124,4.2761,4.3342,4.312,4.2692,4.2199,4.2063,4.2063,4.2291,4.2619,4.291,4.3273,4.4128,4.4465,4.4845,4.5417,4.5747,4.5813,4.582,4.5818,4.5806,4.575,4.513,4.4612,4.4561,4.348,4.2382,4.1732,3.9665,3.7642,5.1412,5.1398,5.1337,5.0915,5.0287,5.0229,4.957,4.8514,4.7653,4.722,4.719,4.719,4.6748,4.6039,4.5773,4.524,4.4546,4.4599,4.4572,4.4508,4.4561,4.4572,4.4508,4.4546,4.4482,4.4428,4.4353,4.4315,4.4428,4.4202,4.424,4.439,4.4256,4.418,4.4277,4.4165,4.4165,4.4165,4.2156,4.1079,4.1079,4.1079,4.1079,4.1013,4.1079,4.1079,4.1013,4.1739,4.1776,4.1049,4.1702,4.1776,4.1049,4.1115,4.1405,4.2066,4.2139,4.2433,4.3094,4.3167,4.3204,4.3314,4.3424,4.3387,4.3167,4.3167,4.3167,4.3164,4.2606,4.2261,4.1944,4.112,4.0553,4.0575,4.0257,4.0158,4.0389,4.0492,4.0508,4.0422,4.0492,4.0816,4.1431,4.1777,4.2239,4.2854,4.364,4.4355,4.4572,4.3416,4.242,4.2476,4.254,4.2679,4.3153,4.3667,4.4124,4.4239,4.5032,4.5518,4.5698,4.5836,4.585,4.5891,4.5848,4.58,4.5801,4.513,4.4713,4.4535,4.3238,4.2026,4.1775,3.9581,3.7435,5.2975,5.2323,5.2113,5.1499,5.0732,5.0732,5.0382,4.9827,4.9426,4.8736,4.791,4.7872,4.7642,4.7297,4.7133,4.6771,4.6225,4.6428,4.6428,4.6212,4.597,4.5719,4.5504,4.5062,4.4776,4.4624,4.4561,4.4561,4.4561,4.4561,4.4561,4.4561,4.4561,4.4701,4.4849,4.5117,4.5014,4.4561,4.3549,4.2976,4.2976,4.2804,4.2773,4.2976,4.2622,4.2529,4.268,4.305,4.305,4.268,4.323,4.3349,4.3013,4.2976,4.3162,4.3498,4.3535,4.3685,4.4058,4.4095,4.4004,4.3823,4.3974,4.4095,4.4095,4.3881,4.3886,4.4028,4.3484,4.3025,4.2855,4.207,4.1449,4.1092,4.086,4.0691,4.0515,4.0508,4.0508,4.0546,4.0931,4.1354,4.1739,4.2585,4.3239,4.3794,4.453,4.5293,4.5699,4.4906,4.4152,4.4306,4.4384,4.4428,4.4544,4.486,4.5131,4.51,4.5531,4.582,4.5841,4.5857,4.5845,4.5897,4.5792,4.571,4.5776,4.5323,4.4881,4.4482,4.3266,4.2167,4.1533,3.8916,3.5582,5.4096,5.3009,5.2699,5.1967,5.0971,5.0741,5.0702,5.0702,5.0664,4.9933,4.8779,4.8702,4.8586,4.8394,4.8394,4.8144,4.7809,4.7952,4.7952,4.7712,4.7338,4.6973,4.6696,4.6063,4.5627,4.5404,4.5228,4.5128,4.509,4.509,4.5152,4.5114,4.5152,4.5156,4.5201,4.5779,4.5735,4.5128,4.509,4.4965,4.4599,4.429,4.429,4.4546,4.4065,4.3886,4.4154,4.4117,4.4117,4.4146,4.4428,4.4561,4.4561,4.4561,4.4561,4.4561,4.4561,4.4561,4.4561,4.4561,4.4455,4.4175,4.4401,4.465,4.4701,4.4428,4.4346,4.4497,4.4071,4.368,4.353,4.3019,4.2411,4.195,4.1552,4.1244,4.0861,4.0623,4.0585,4.0816,4.1393,4.1893,4.247,4.347,4.4311,4.4685,4.5336,4.5809,4.59,4.5896,4.5918,4.5862,4.5881,4.5794,4.5825,4.5802,4.5823,4.5813,4.5832,4.5864,4.5897,4.5863,4.582,4.5835,4.5754,4.5653,4.5641,4.5266,4.4834,4.439,4.3201,4.1889,4.0666,3.7464,3.3665,5.51,5.4391,5.4233,5.3294,5.1779,5.101,5.0702,5.0702,5.0702,5.0625,5.0356,5.0433,4.9971,4.9356,4.9279,4.8875,4.8164,4.8068,4.8145,4.8126,4.8029,4.7991,4.7914,4.7818,4.7799,4.7607,4.6993,4.6628,4.6628,4.6686,4.6704,4.6666,4.6666,4.6359,4.5781,4.6436,4.6781,4.6704,4.6666,4.6025,4.4688,4.4535,4.4572,4.4561,4.4546,4.4519,4.4535,4.4572,4.4572,4.4572,4.4599,4.4587,4.4587,4.4587,4.4624,4.4587,4.4624,4.4561,4.4624,4.4561,4.4624,4.4572,4.4599,4.4776,4.5011,4.5011,4.4872,4.4713,4.482,4.4729,4.4512,4.4221,4.3867,4.3403,4.2488,4.1723,4.1569,4.0969,4.0777,4.1623,4.1816,4.2354,4.364,4.4212,4.47,4.5467,4.5714,4.5918,4.5952,4.6047,4.608,4.6059,4.5988,4.5935,4.5909,4.587,4.5935,4.5888,4.5889,4.5937,4.5937,4.5919,4.5905,4.5835,4.5762,4.5587,4.5381,4.4872,4.461,4.4258,4.2995,4.1206,3.8656,3.5892,3.2817,5.5241,5.4511,5.4511,5.378,5.2587,5.1279,5.0971,5.1356,5.0894,5.0702,5.0702,5.0702,5.0471,5.0164,5.0164,4.9971,4.9663,4.9625,4.9625,4.9586,4.9125,4.8894,4.8817,4.8317,4.8086,4.8086,4.774,4.7625,4.7702,4.8125,4.8355,4.8432,4.8856,4.8702,4.7971,4.8702,4.8894,4.8432,4.8894,4.8835,4.8012,4.6039,4.5255,4.5786,4.509,4.4726,4.4872,4.4896,4.4896,4.4919,4.5115,4.5201,4.5201,4.5201,4.5201,4.5201,4.5201,4.5077,4.4919,4.5055,4.5099,4.4919,4.5077,4.5263,4.5381,4.54,4.5323,4.5243,4.5341,4.5341,4.5184,4.5093,4.482,4.4192,4.3573,4.2893,4.1893,4.197,4.2047,4.1931,4.2701,4.3497,4.4312,4.4912,4.5382,4.5888,4.5988,4.6059,4.6136,4.6198,4.6202,4.6202,4.6153,4.6093,4.6064,4.6084,4.6084,4.6075,4.6075,4.6133,4.6094,4.5963,4.59,4.5869,4.5679,4.5667,4.5889,4.552,4.5162,4.4509,4.3017,4.1086,3.8575,3.6045,3.3114,5.5434,5.4549,5.4241,5.378,5.3087,5.1895,5.1702,5.2164,5.1625,5.1356,5.1395,5.1395,5.1241,5.101,5.0818,5.0779,5.101,5.101,5.1164,5.1279,5.0702,5.0471,5.0356,4.9817,4.9471,4.9471,4.9317,4.9163,4.9202,4.974,5.0087,5.0202,5.0741,5.0587,4.9933,5.0625,5.0741,5.0202,5.0741,5.1125,5.0875,4.8025,4.6702,4.7376,4.6266,4.5673,4.591,4.5931,4.5931,4.5931,4.6148,4.6278,4.6278,4.6278,4.6278,4.6278,4.6278,4.6167,4.5931,4.5956,4.586,4.5628,4.5649,4.5586,4.5586,4.5586,4.5586,4.5586,4.5586,4.5586,4.5586,4.5586,4.5316,4.4739,4.447,4.3794,4.3142,4.3173,4.3018,4.3048,4.3781,4.453,4.4897,4.5463,4.5949,4.6075,4.614,4.6195,4.6289,4.6289,4.6289,4.6289,4.6289,4.6248,4.6195,4.6202,4.6246,4.6171,4.6131,4.6108,4.6144,4.5935,4.5956,4.5951,4.5591,4.5597,4.6051,4.598,4.5462,4.4624,4.3196,4.1133,3.8874,3.6365,3.3449,5.5972,5.4511,5.3626,5.3338,5.3203,5.3069,5.3069,5.3186,5.3031,5.3069,5.2974,5.3012,5.2587,5.1838,5.1183,5.1145,5.1741,5.1779,5.2202,5.2895,5.2895,5.2972,5.3049,5.301,5.2895,5.251,5.1818,5.1548,5.1625,5.1779,5.1818,5.1818,5.1972,5.151,5.0971,5.1587,5.1856,5.1856,5.1895,5.2279,5.2702,5.0529,4.9221,4.9279,4.8356,4.7799,4.7857,4.7914,4.7914,4.7914,4.7875,4.7932,4.7932,4.7932,4.7894,4.7894,4.7932,4.7932,4.7741,4.7183,4.6837,4.6703,4.6183,4.5663,4.5817,4.5778,4.574,4.5642,4.5624,4.5586,4.562,4.5603,4.5624,4.5547,4.4833,4.4816,4.5454,4.4298,4.4161,4.5043,4.4982,4.4971,4.5706,4.5962,4.608,4.614,4.6202,4.6289,4.6289,4.6289,4.6289,4.6289,4.6289,4.6289,4.6289,4.6249,4.6205,4.6309,4.6304,4.6091,4.5852,4.5765,4.6009,4.6146,4.6189,4.6241,4.636,4.5944,4.518,4.421,4.2994,4.1066,3.8692,3.5979,3.3198,5.6462,5.5358,5.4599,5.4506,5.4817,5.3901,5.3779,5.4231,5.3688,5.3455,5.3469,5.3455,5.3275,5.2964,5.2693,5.2314,5.1953,5.1933,5.2356,5.3126,5.3203,5.301,5.2721,5.3049,5.3395,5.3569,5.3049,5.2741,5.2818,5.328,5.3549,5.3664,5.4126,5.3933,5.3318,5.3395,5.3549,5.3549,5.3549,5.3972,5.4511,5.2856,5.1818,5.1702,4.9394,4.8086,4.8086,4.8086,4.8086,4.8086,4.8086,4.8086,4.8086,4.8086,4.8086,4.8086,4.8086,4.8086,4.8048,4.7855,4.7663,4.7663,4.7394,4.7163,4.7124,4.674,4.6432,4.6317,4.5855,4.5637,4.5696,4.5648,4.5817,4.6296,4.6236,4.6148,4.6578,4.6538,4.6463,4.6113,4.5671,4.5715,4.5975,4.6147,4.6205,4.6245,4.6288,4.6289,4.6289,4.6245,4.6192,4.6189,4.6089,4.602,4.602,4.6101,4.6257,4.667,4.6831,4.7154,4.7156,4.7076,4.7289,4.7165,4.7089,4.6917,4.7005,4.6501,4.553,4.4039,4.278,4.0978,3.8432,3.6286,3.3487,5.6907,5.6315,5.5614,5.5551,5.5849,5.4914,5.4762,5.5229,5.4684,5.4451,5.4451,5.4412,5.4295,5.41,5.4305,5.405,5.3326,5.331,5.3889,5.4933,5.4972,5.4663,5.422,5.4413,5.4585,5.4624,5.4353,5.4181,5.422,5.4761,5.4996,5.4998,5.5518,5.5478,5.4955,5.4895,5.4857,5.4895,5.4895,5.5164,5.5434,5.4087,5.3203,5.2818,5.0433,4.8933,4.8933,4.8933,4.8933,4.8933,4.8933,4.8933,4.8933,4.8933,4.8933,4.8933,4.8971,4.8933,4.8894,4.8702,4.8509,4.8509,4.824,4.8086,4.8048,4.7586,4.724,4.6855,4.6442,4.6074,4.6162,4.6148,4.639,4.6892,4.7081,4.7412,4.7932,4.8283,4.789,4.7164,4.6748,4.6616,4.6546,4.6402,4.6289,4.6247,4.6246,4.6245,4.6153,4.6089,4.6176,4.6404,4.6442,4.658,4.6824,4.7086,4.6761,4.7038,4.7539,4.7967,4.8218,4.8261,4.827,4.8126,4.7952,4.7721,4.7381,4.6933,4.5677,4.4169,4.2802,4.1183,3.8993,3.6921,3.4126,5.7448,5.7292,5.6552,5.6251,5.628,5.6067,5.6135,5.6106,5.6145,5.6125,5.6095,5.6145,5.5735,5.5288,5.5823,5.6145,5.6096,5.6173,5.6853,5.8076,5.8243,5.792,5.7336,5.713,5.6703,5.6108,5.6181,5.6181,5.6197,5.6263,5.6201,5.6033,5.6001,5.6033,5.5784,5.5845,5.5728,5.5748,5.5768,5.5766,5.5493,5.411,5.3244,5.307,5.1453,5.0508,5.0548,5.0568,5.0471,5.051,5.0548,5.0625,5.0471,5.0471,5.0587,5.0471,5.0587,5.0625,5.051,4.9817,4.9394,4.9355,4.8682,4.8449,4.8484,4.8291,4.7889,4.74,4.7202,4.7107,4.7171,4.7261,4.7349,4.725,4.7514,4.8187,4.9295,4.9113,4.8553,4.8508,4.8037,4.7656,4.7422,4.6914,4.6479,4.6335,4.6167,4.6075,4.5981,4.5944,4.6268,4.6804,4.6911,4.695,4.7624,4.8241,4.7738,4.7453,4.7995,4.8484,4.8629,4.8721,4.8733,4.8624,4.8321,4.8044,4.7158,4.655,4.5215,4.3753,4.2574,4.1068,3.8763,3.6459,3.4714,5.9061,5.8357,5.766,5.7338,5.7148,5.6723,5.6465,5.6562,5.707,5.7344,5.7363,5.7363,5.7207,5.707,5.7285,5.7695,5.83,5.8769,5.9,5.8773,5.8743,5.8675,5.8431,5.8353,5.8109,5.7915,5.7876,5.7915,5.7886,5.7886,5.7892,5.7741,5.7223,5.7276,5.7596,5.7222,5.6859,5.6859,5.6859,5.6626,5.5966,5.4361,5.3507,5.3313,5.1852,5.0985,5.0985,5.0808,5.0721,5.0721,5.0702,5.0702,5.0702,5.0702,5.0702,5.0702,5.0702,5.0702,5.0664,5.0452,5.0296,5.0339,5.014,5.01,5.008,4.9588,4.9174,4.8863,4.8921,4.8788,4.8436,4.8782,4.901,4.9019,4.9074,4.9469,5.043,5.0129,4.9754,4.9603,4.8984,4.8514,4.8228,4.7598,4.7034,4.6775,4.6364,4.5982,4.5918,4.5908,4.5863,4.6201,4.659,4.7371,4.8044,4.8673,4.868,4.8372,4.868,4.897,4.9102,4.9037,4.9049,4.8843,4.8546,4.7978,4.7083,4.6103,4.4939,4.3498,4.2235,4.0293,3.7878,3.6156,3.4684,6.0035,5.9397,5.867,5.8121,5.7796,5.7577,5.7344,5.7226,5.8008,5.8398,5.8398,5.8398,5.8398,5.8437,5.8672,5.9101,5.9687,6.0508,6.0498,5.9892,5.9801,5.9801,5.9801,5.9801,5.9411,5.8942,5.8903,5.8903,5.8903,5.8903,5.885,5.8663,5.8217,5.7955,5.8237,5.8031,5.7759,5.7486,5.772,5.7642,5.698,5.5774,5.4918,5.4451,5.3244,5.2388,5.2057,5.1837,5.1641,5.137,5.1293,5.1167,5.0868,5.0773,5.0773,5.0773,5.0773,5.0808,5.0835,5.0828,5.0859,5.0972,5.0985,5.0984,5.0996,5.051,5.0208,4.9867,5.0096,5.0147,4.9874,5.0133,5.0555,5.0879,5.0321,5.049,5.104,5.0934,5.0664,5.0469,4.9883,4.9453,4.9129,4.8474,4.7702,4.7267,4.6688,4.608,4.6007,4.606,4.625,4.6669,4.7571,4.8158,4.8451,4.8971,4.9477,4.9477,4.9477,4.9541,4.9616,4.9284,4.9152,4.8674,4.8309,4.7594,4.6738,4.6174,4.5234,4.3656,4.1917,4.0293,3.8399,3.6838,3.5144,6.0469,6.0351,5.9609,5.8828,5.8281,5.8789,5.8594,5.8203,5.8867,5.9258,5.9258,5.9258,5.9258,5.9453,6.0,6.0312,6.0547,6.1367,6.164,6.1484,6.1445,6.1406,6.1367,6.1328,6.0664,5.9687,5.9492,5.9453,5.957,5.957,5.9253,5.9256,5.909,5.8552,5.8187,5.8423,5.8325,5.7857,5.8355,5.8627,5.852,5.7653,5.6874,5.6056,5.5013,5.4117,5.3533,5.3476,5.3176,5.2505,5.2347,5.1979,5.1294,5.1058,5.1213,5.1252,5.1058,5.1102,5.1169,5.1081,5.1074,5.1094,5.1103,5.1113,5.1101,5.1047,5.0813,5.0392,5.0985,5.1445,5.146,5.1711,5.207,5.2305,5.1211,5.0781,5.125,5.1367,5.125,5.1172,5.0703,5.0233,5.0148,4.9298,4.8405,4.7719,4.7313,4.6752,4.6452,4.6711,4.7296,4.7855,4.8374,4.8683,4.8912,4.9346,4.9739,4.9375,4.944,4.9554,4.957,4.922,4.8807,4.8384,4.7809,4.714,4.646,4.578,4.4647,4.2855,4.1496,4.0393,3.8809,3.6936,3.4738,6.1367,6.125,6.043,5.9922,5.9687,5.9375,5.9101,5.8984,5.9765,6.0195,6.0117,6.0078,6.0195,6.0195,6.0976,6.1015,6.1015,6.1992,6.2265,6.1758,6.1719,6.1719,6.1719,6.1719,6.1484,6.0976,6.082,6.1055,6.1055,6.0781,6.082,6.0934,6.0117,5.9805,5.9648,5.918,5.9009,5.8775,5.8906,5.9062,5.8828,5.7656,5.6744,5.6393,5.5117,5.4297,5.3984,5.4518,5.4323,5.338,5.3244,5.3195,5.2813,5.2764,5.2725,5.2686,5.2258,5.1958,5.1872,5.1493,5.1178,5.1167,5.1252,5.1196,5.1313,5.1328,5.1523,5.1875,5.273,5.3203,5.3359,5.3789,5.375,5.2734,5.1758,5.1172,5.1328,5.1406,5.1406,5.1367,5.1094,5.0898,5.0615,5.0091,4.929,4.8832,4.8321,4.7868,4.7681,4.774,4.8471,4.8317,4.8644,4.8987,4.9341,4.9763,4.9784,4.9183,4.9121,4.9213,4.9096,4.88,4.8274,4.7725,4.714,4.646,4.5795,4.5077,4.3539,4.2236,4.133,4.0286,3.8119,3.6105,3.3996,6.1719,6.168,6.1172,6.0742,6.0508,6.0664,6.0586,6.0547,6.1523,6.2031,6.2031,6.2031,6.2031,6.2109,6.2578,6.2539,6.2226,6.3086,6.3242,6.289,6.2578,6.2187,6.1836,6.1719,6.1719,6.164,6.1328,6.1133,6.1015,6.082,6.0664,6.0469,6.0156,5.9726,5.918,5.9336,5.8984,5.8867,5.9258,5.957,5.9101,5.8594,5.7812,5.7226,5.6094,5.5508,5.5273,5.5586,5.5351,5.4562,5.4312,5.4144,5.3713,5.3674,5.3674,5.3635,5.3167,5.2941,5.2935,5.2551,5.2182,5.1932,5.1836,5.1875,5.1953,5.1953,5.2305,5.3125,5.4023,5.4453,5.4609,5.4958,5.4523,5.3437,5.2671,5.2042,5.1435,5.1328,5.1289,5.1258,5.1219,5.1133,5.1133,5.0765,5.0472,5.0168,4.9987,4.9586,4.9317,4.9471,4.9528,4.9565,4.9559,4.9939,4.9746,4.989,4.975,4.9197,4.8779,4.8881,4.86,4.8347,4.7853,4.7219,4.6507,4.5865,4.5321,4.4572,4.337,4.2236,4.133,3.9768,3.7548,3.6184,3.3913,6.1719,6.1719,6.1719,6.125,6.0859,6.2148,6.2148,6.2031,6.2969,6.3633,6.3633,6.3867,6.3398,6.4062,6.3711,6.4062,6.3789,6.3945,6.4023,6.3789,6.3476,6.293,6.2031,6.207,6.2031,6.1797,6.0937,6.0664,6.0547,5.9883,5.9336,5.9414,5.9336,5.8789,5.8515,5.8711,5.8555,5.8164,5.9062,5.9531,5.9258,5.9258,5.875,5.7851,5.7383,5.6914,5.6523,5.6484,5.6172,5.5469,5.543,5.5,5.4264,5.4142,5.4181,5.4181,5.4147,5.4005,5.4062,5.3867,5.3594,5.2969,5.293,5.2969,5.3086,5.3125,5.3437,5.4297,5.4883,5.5117,5.5351,5.5313,5.4858,5.4105,5.3758,5.3018,5.1856,5.138,5.1278,5.1113,5.1094,5.1074,5.1225,5.149,5.1657,5.0966,5.0991,5.0991,5.0971,5.1202,5.1212,5.1162,5.1141,5.1128,5.0581,4.9996,4.9641,4.9187,4.8642,4.8421,4.8082,4.7765,4.7391,4.6819,4.5915,4.5494,4.5233,4.4305,4.3043,4.2045,4.1095,3.92,3.7272,3.6498,3.4846,6.1719,6.1719,6.1719,6.1601,6.1484,6.1836,6.1914,6.1797,6.2148,6.2578,6.2344,6.2344,6.2422,6.2461,6.3672,6.3594,6.2851,6.3711,6.3945,6.3359,6.3945,6.3555,6.289,6.2812,6.2851,6.2383,6.1094,6.0781,6.0898,5.9961,5.9219,5.9219,5.918,5.8867,5.8398,5.8281,5.7773,5.7226,5.8047,5.8906,5.9101,5.8828,5.8515,5.793,5.7383,5.6914,5.668,5.6601,5.6523,5.6367,5.6289,5.6133,5.5859,5.5859,5.582,5.5664,5.5234,5.5,5.4922,5.4492,5.3984,5.3945,5.4336,5.4726,5.4726,5.4635,5.5009,5.5543,5.5386,5.5436,5.5825,5.5948,5.5492,5.485,5.4585,5.414,5.3145,5.2425,5.1843,5.1297,5.1062,5.0945,5.0984,5.1029,5.1257,5.1549,5.1857,5.2125,5.2392,5.2658,5.2523,5.2265,5.2058,5.1811,5.1195,5.0522,4.9932,4.9344,4.8712,4.7955,4.7591,4.7088,4.6682,4.6014,4.5267,4.4981,4.4763,4.3606,4.2236,4.1559,4.0758,3.9158,3.771,3.6916,3.5439,6.1719,6.1719,6.1719,6.1719,6.1758,6.2109,6.2305,6.2383,6.2773,6.293,6.293,6.293,6.293,6.2969,6.3789,6.3711,6.3398,6.4219,6.4453,6.4023,6.4414,6.418,6.3203,6.3125,6.3086,6.2734,6.125,6.0976,6.1055,6.0156,5.9219,5.9219,5.9219,5.9062,5.8789,5.8555,5.8359,5.8203,5.8633,5.918,5.9101,5.918,5.8789,5.8555,5.8047,5.7812,5.789,5.7851,5.7851,5.7695,5.7422,5.6992,5.664,5.6601,5.6601,5.6484,5.625,5.5937,5.5742,5.5508,5.5273,5.5195,5.5664,5.6015,5.6278,5.6324,5.6407,5.6644,5.6427,5.6191,5.6191,5.6071,5.5773,5.5553,5.5288,5.4885,5.4044,5.3266,5.246,5.1731,5.1454,5.1172,5.0987,5.1145,5.1198,5.1694,5.2187,5.2426,5.2741,5.2992,5.3168,5.2975,5.268,5.2306,5.175,5.1118,5.0377,4.9667,4.8912,4.791,4.7071,4.6531,4.5915,4.5425,4.4961,4.4373,4.3972,4.2707,4.1788,4.1064,4.0278,3.9073,3.804,3.6993,3.5332,6.1635,6.1635,6.1635,6.164,6.1752,6.2383,6.2617,6.2773,6.351,6.3359,6.3789,6.3862,6.3281,6.375,6.3828,6.3984,6.414,6.4453,6.4258,6.3906,6.4687,6.418,6.3281,6.3008,6.3008,6.2812,6.125,6.0937,6.1055,6.0117,5.9258,5.9219,5.9219,5.9258,5.9297,5.9219,5.9101,5.9219,5.9531,5.9648,5.9336,5.9648,5.957,5.918,5.9023,5.8945,5.8945,5.8984,5.9101,5.914,5.8476,5.7773,5.7187,5.664,5.6601,5.6601,5.6523,5.6484,5.6445,5.6445,5.6406,5.6562,5.6914,5.7187,5.7596,5.7814,5.7917,5.7776,5.7573,5.708,5.646,5.6296,5.6068,5.584,5.575,5.5378,5.4783,5.409,5.3395,5.2377,5.2127,5.1973,5.1799,5.1818,5.1782,5.1811,5.2272,5.2753,5.3051,5.3214,5.3306,5.3512,5.3215,5.2933,5.2375,5.1698,5.0993,5.0154,4.9277,4.8138,4.7003,4.6484,4.5979,4.5336,4.4852,4.4236,4.3562,4.2645,4.1723,4.0863,4.003,3.9133,3.8115,3.6993,3.5412,6.1354,6.1354,6.1354,6.1364,6.1403,6.1559,6.1646,6.1598,6.1889,6.1831,6.188,6.1831,6.1967,6.2036,6.262,6.2893,6.3015,6.3371,6.3293,6.3155,6.3915,6.3742,6.2939,6.2734,6.2851,6.2539,6.1367,6.0976,6.1211,6.0117,5.957,5.9297,5.9336,5.9531,5.9726,5.9492,5.9648,5.9883,5.9883,5.9648,5.9609,5.9609,5.9726,5.9453,5.9492,5.9453,5.9336,5.9258,5.9219,5.918,5.9062,5.8906,5.8437,5.7422,5.6836,5.6797,5.6758,5.6758,5.6719,5.6601,5.6517,5.677,5.7577,5.8357,5.8657,5.9037,5.9163,5.8955,5.847,5.7795,5.6965,5.6849,5.6424,5.6036,5.5805,5.5665,5.5455,5.5129,5.4554,5.3395,5.3126,5.2735,5.2363,5.2158,5.2144,5.2015,5.2161,5.2786,5.3306,5.332,5.3249,5.3489,5.3683,5.3382,5.3056,5.2348,5.16,5.0737,4.9794,4.8556,4.7512,4.6846,4.6201,4.5514,4.4766,4.403,4.335,4.2458,4.1528,4.0554,3.992,3.9337,3.8442,3.7558,3.6526,6.1328,6.1328,6.1328,6.1328,6.1328,6.1328,6.1328,6.1328,6.1328,6.1328,6.1328,6.1328,6.1328,6.1406,6.1678,6.1912,6.2052,6.2523,6.2367,6.2318,6.2859,6.2928,6.2132,6.2109,6.2109,6.1914,6.1289,6.1346,6.2148,6.1172,6.0469,6.0508,6.0508,6.0625,6.0781,6.0703,6.0586,6.0742,6.0586,6.043,6.0469,6.0469,6.0469,6.0469,6.043,6.0508,6.0508,6.0508,6.0469,6.0351,5.9961,5.9733,5.9285,5.8577,5.7729,5.7711,5.7405,5.7122,5.6904,5.6737,5.6712,5.7619,5.8421,5.9182,5.9724,6.0173,6.0169,5.9572,5.8893,5.8165,5.7726,5.7665,5.7242,5.6588,5.6357,5.6165,5.5857,5.5742,5.5122,5.4326,5.379,5.3162,5.2372,5.2265,5.2437,5.2361,5.2213,5.2677,5.3381,5.316,5.29,5.3312,5.3565,5.3444,5.3151,5.27,5.193,5.1076,5.0199,4.8968,4.7945,4.7168,4.6371,4.5569,4.4832,4.4097,4.2769,4.1788,4.1028,4.0309,3.9809,3.9265,3.8767,3.804,3.6838,6.1225,6.1225,6.1225,6.1225,6.1225,6.1186,6.1211,6.1186,6.1172,6.1158,6.1225,6.1172,6.1158,6.1211,6.1211,6.1211,6.1264,6.1991,6.1797,6.1536,6.1978,6.1912,6.1447,6.1277,6.1429,6.15,6.1334,6.1751,6.2115,6.1719,6.1601,6.1367,6.1523,6.164,6.1484,6.1328,6.1601,6.1631,6.1631,6.1631,6.1631,6.1631,6.1631,6.1631,6.1631,6.1523,6.1367,6.1367,6.1328,6.114,6.0808,6.0387,6.0172,5.9604,5.9288,5.917,5.8421,5.7914,5.7556,5.6942,5.7147,5.8246,5.8557,5.9381,6.0222,6.0461,6.0596,5.981,5.9319,5.8819,5.8627,5.855,5.8088,5.7489,5.712,5.6898,5.6352,5.6012,5.5606,5.4955,5.4379,5.384,5.3272,5.2983,5.3256,5.2785,5.2615,5.2453,5.2974,5.256,5.2444,5.3027,5.3272,5.3272,5.3103,5.2857,5.2064,5.1144,5.0323,4.9291,4.8329,4.7363,4.669,4.6075,4.505,4.4207,4.2687,4.1428,4.0894,4.0309,3.9666,3.9265,3.9017,3.7965,3.6526,6.0856,6.0856,6.0856,6.0856,6.0877,6.0877,6.0856,6.0877,6.0899,6.0856,6.0882,6.0877,6.0899,6.0899,6.0899,6.0877,6.0941,6.1137,6.1232,6.1041,6.1345,6.1391,6.1097,6.1227,6.1214,6.1253,6.1279,6.134,6.1588,6.1471,6.1364,6.1373,6.1383,6.1354,6.1431,6.1439,6.1334,6.1344,6.1354,6.1354,6.1364,6.1364,6.1364,6.1364,6.1364,6.1373,6.1392,6.1392,6.1354,6.1323,6.1234,6.1145,6.1134,6.1095,6.0889,6.0395,5.9529,5.8565,5.8402,5.7716,5.756,5.8506,5.8706,5.8954,5.9938,6.0586,6.0757,6.0727,6.0435,6.005,5.9511,5.9396,5.8934,5.8318,5.7774,5.7569,5.7118,5.6349,5.592,5.5486,5.4905,5.4852,5.4571,5.4321,5.4091,5.3524,5.3014,5.2858,5.2733,5.2426,5.2307,5.2931,5.3193,5.3186,5.3008,5.2799,5.2066,5.115,5.0418,4.9604,4.8723,4.7844,4.7446,4.6709,4.5729,4.4453,4.2977,4.1873,4.1049,4.0301,3.9673,3.9499,3.9337,3.7965,3.6448,6.0781,6.0781,6.0781,6.0781,6.0781,6.0781,6.0781,6.0781,6.0781,6.0781,6.0781,6.0781,6.0781,6.0781,6.0781,6.0781,6.0827,6.086,6.0839,6.0827,6.0925,6.0983,6.0905,6.0964,6.102,6.1018,6.102,6.0983,6.1053,6.1225,6.1328,6.1277,6.1316,6.134,6.1292,6.1316,6.1328,6.1328,6.1328,6.1328,6.1328,6.1316,6.1316,6.1316,6.1316,6.1316,6.1304,6.1328,6.1227,6.1172,6.1143,6.1065,6.1018,6.0982,6.0964,6.0828,6.0326,5.9687,5.9145,5.8389,5.8451,5.9012,5.9493,6.0261,6.0766,6.0819,6.0819,6.0781,6.0781,6.055,6.0319,6.0242,5.9547,5.8936,5.8339,5.7832,5.746,5.6916,5.6338,5.5951,5.5548,5.5425,5.5149,5.4535,5.4094,5.3607,5.3228,5.3068,5.3015,5.2936,5.2931,5.3078,5.3215,5.3189,5.299,5.2713,5.1986,5.1173,5.0445,4.9666,4.9044,4.8376,4.8071,4.7767,4.7154,4.5619,4.3621,4.2378,4.1541,4.0588,3.9679,3.9649,3.9486,3.8368,3.676,6.0781,6.0781,6.0781,6.0781,6.0781,6.0781,6.0781,6.0781,6.0781,6.0781,6.0781,6.0781,6.0781,6.0781,6.0781,6.0781,6.0781,6.0781,6.0781,6.0781,6.0781,6.0804,6.0827,6.0827,6.0827,6.0781,6.0834,6.0811,6.0882,6.102,6.1151,6.1158,6.1136,6.1151,6.1182,6.119,6.1136,6.1136,6.1151,6.1151,6.1167,6.1128,6.1128,6.1143,6.1158,6.1158,6.1196,6.1182,6.107,6.1,6.0944,6.0905,6.0856,6.0834,6.0834,6.0789,6.0602,6.0388,5.9793,5.9232,5.9165,5.9781,6.0627,6.1343,6.2074,6.1627,6.1127,6.1204,6.0858,6.0819,6.0757,6.0657,6.0073,5.9407,5.8874,5.8164,5.7517,5.7078,5.6668,5.6362,5.6014,5.5791,5.5387,5.4548,5.4013,5.3634,5.3408,5.3261,5.3225,5.3225,5.3023,5.298,5.2817,5.2726,5.2323,5.2074,5.1485,5.1049,5.0368,4.9801,4.9067,4.8984,4.8917,4.8612,4.8112,4.6905,4.5043,4.3559,4.2031,4.1085,4.0307,3.9918,3.9416,3.8393,3.7049,6.0781,6.0781,6.0781,6.0781,6.0781,6.0781,6.0781,6.0781,6.0781,6.0781,6.0781,6.0781,6.0781,6.0781,6.0781,6.0781,6.0781,6.0781,6.0781,6.0781,6.0781,6.0781,6.0781,6.0781,6.0781,6.0781,6.0781,6.0781,6.0804,6.0834,6.0877,6.085,6.0923,6.0877,6.0877,6.0923,6.0941,6.0902,6.0902,6.0882,6.0899,6.0899,6.0877,6.0877,6.0834,6.085,6.085,6.0877,6.086,6.0834,6.0856,6.0834,6.0804,6.0781,6.0781,6.0781,6.0781,6.0666,6.0319,5.9973,6.0012,6.0666,6.1435,6.2243,6.3089,6.2474,6.205,6.1887,6.1453,6.1031,6.0827,6.0418,6.0179,5.9684,5.9163,5.854,5.7859,5.7348,5.699,5.6706,5.6515,5.6418,5.6203,5.5515,5.481,5.4436,5.3739,5.3592,5.3408,5.3329,5.285,5.2599,5.2361,5.2041,5.1454,5.1049,5.076,5.0513,5.0095,4.9615,4.9114,4.9187,4.9255,4.899,4.8366,4.744,4.6439,4.4675,4.3024,4.1728,4.0905,4.0516,3.9668,3.8611,3.713,6.0781,6.0781,6.0781,6.0781,6.0781,6.0781,6.0781,6.0781,6.0781,6.0781,6.0819,6.0781,6.0781,6.0819,6.0781,6.0781,6.0781,6.0781,6.0858,6.0781,6.0781,6.0819,6.0819,6.0896,6.0781,6.0858,6.0858,6.0781,6.0781,6.0973,6.0819,6.0781,6.0935,6.0781,6.0781,6.0781,6.0781,6.0781,6.0781,6.0781,6.0781,6.0781,6.0781,6.0781,6.0781,6.0781,6.0804,6.0781,6.0781,6.0781,6.0781,6.0781,6.0781,6.0781,6.0781,6.0781,6.0781,6.0781,6.0781,6.055,6.0896,6.1973,6.232,6.2666,6.3782,6.332,6.2708,6.2399,6.2087,6.1677,6.1368,6.0828,6.032,5.9852,5.9401,5.8851,5.8295,5.7765,5.7455,5.7271,5.7344,5.739,5.7014,5.6638,5.5904,5.5244,5.4509,5.3879,5.3763,5.3368,5.2908,5.239,5.2086,5.1821,5.1246,5.0667,5.0078,4.9896,4.9739,4.9447,4.912,4.9052,4.9086,4.8861,4.845,4.7506,4.6431,4.5302,4.3956,4.244,4.164,4.1085,4.0059,3.8867,3.7554,6.155,6.155,6.155,6.1396,6.1204,6.1166,6.132,6.155,6.1589,6.155,6.155,6.155,6.155,6.155,6.1589,6.1627,6.1704,6.1666,6.1627,6.1666,6.1704,6.155,6.155,6.1627,6.1781,6.155,6.155,6.1627,6.1704,6.1589,6.1704,6.1704,6.1512,6.1435,6.0781,6.0819,6.0819,6.0781,6.0781,6.0781,6.0781,6.0781,6.0781,6.0781,6.0781,6.0781,6.0781,6.0781,6.0781,6.0781,6.0781,6.0781,6.0781,6.0781,6.0781,6.0781,6.0781,6.0781,6.0781,6.0935,6.1435,6.232,6.2704,6.3281,6.3974,6.3988,6.3578,6.3053,6.2773,6.2401,6.1843,6.113,6.0717,6.0369,5.9929,5.939,5.885,5.8364,5.8107,5.7886,5.7923,5.7813,5.7666,5.7226,5.6492,5.5705,5.4775,5.4246,5.408,5.3639,5.2857,5.2386,5.19,5.1579,5.1172,5.0366,4.9603,4.9671,4.9514,4.9385,4.9187,4.912,4.9052,4.8861,4.8322,4.7404,4.648,4.5498,4.4322,4.2934,4.2269,4.1654,4.0825,3.9712,3.8597,6.3166,6.3243,6.3166,6.2743,6.2166,6.2089,6.2435,6.2935,6.3012,6.3012,6.2974,6.3012,6.3051,6.3012,6.282,6.282,6.2858,6.2935,6.2974,6.2858,6.2743,6.3012,6.3012,6.2935,6.2743,6.3128,6.2935,6.2781,6.3012,6.282,6.2935,6.2935,6.2704,6.232,6.0973,6.0858,6.0858,6.0858,6.0973,6.105,6.0973,6.0973,6.0973,6.0781,6.0781,6.0781,6.0781,6.0781,6.0781,6.0781,6.0781,6.0781,6.0781,6.0781,6.0781,6.0781,6.0781,6.0781,6.0781,6.0781,6.1272,6.2054,6.2375,6.3233,6.4168,6.4372,6.4106,6.3398,6.3123,6.2501,6.192,6.1422,6.1135,6.0846,6.0379,5.99,5.9402,5.9171,5.8951,5.8731,5.8327,5.8033,5.7997,5.774,5.7005,5.6164,5.5075,5.4628,5.4543,5.385,5.3028,5.2644,5.2142,5.1625,5.1176,4.9881,4.9249,4.9289,4.9289,4.9221,4.9289,4.9323,4.9159,4.8928,4.8032,4.6896,4.6319,4.5782,4.4389,4.3049,4.2779,4.2145,4.1436,4.0598,3.9515,6.332,6.332,6.332,6.3474,6.3628,6.3128,6.3089,6.3281,6.332,6.332,6.332,6.332,6.332,6.332,6.3397,6.3435,6.3397,6.332,6.332,6.3358,6.3435,6.3281,6.3358,6.3512,6.3397,6.332,6.332,6.3435,6.3243,6.3474,6.3358,6.3281,6.3512,6.3012,6.2589,6.2474,6.2474,6.2474,6.2435,6.2281,6.1743,6.1627,6.1435,6.0935,6.0935,6.0935,6.0896,6.0896,6.0858,6.0819,6.0781,6.0781,6.0781,6.0781,6.0781,6.0781,6.0781,6.0781,6.0671,6.0635,6.0759,6.1409,6.1945,6.2595,6.341,6.3574,6.3568,6.3653,6.3427,6.2885,6.2538,6.1809,6.1439,6.1255,6.0834,6.0394,6.0015,5.9979,5.9869,5.9648,5.9318,5.8621,5.8327,5.8213,5.7664,5.6842,5.5844,5.5346,5.5224,5.4116,5.3139,5.2921,5.2516,5.1952,5.121,5.0277,4.9729,4.9864,4.9526,4.9086,4.9187,4.9458,4.8971,4.8547,4.7505,4.6448,4.5709,4.4863,4.4126,4.3259,4.294,4.2851,4.2425,4.1536,4.0481,6.4205,6.4205,6.4205,6.4512,6.4859,6.4128,6.3897,6.4128,6.4205,6.4205,6.4243,6.4243,6.4243,6.4243,6.4205,6.4205,6.4205,6.4205,6.4205,6.4205,6.4205,6.4359,6.432,6.4166,6.4436,6.4166,6.4166,6.4282,6.4359,6.4243,6.432,6.4359,6.4166,6.432,6.4051,6.3743,6.3166,6.3128,6.3051,6.2935,6.2627,6.2474,6.2281,6.1935,6.1743,6.1627,6.1358,6.1204,6.1089,6.0973,6.0819,6.0819,6.0819,6.0819,6.0819,6.0781,6.0622,6.0597,6.0456,6.0103,6.0127,6.0312,6.0817,6.1624,6.2518,6.3005,6.335,6.3518,6.3556,6.3271,6.2818,6.2083,6.1961,6.1741,6.163,6.119,6.0823,6.0823,6.0603,6.0419,6.0089,5.9391,5.8831,5.8543,5.8287,5.7463,5.6685,5.6257,5.5651,5.4338,5.3299,5.2997,5.2691,5.2165,5.1589,5.0963,5.0604,5.0473,5.0067,4.956,4.9424,4.9729,4.8946,4.8098,4.7137,4.6095,4.4799,4.3862,4.3638,4.3449,4.3269,4.324,4.325,4.2541,4.1468,6.5859,6.5897,6.5897,6.582,6.5705,6.4974,6.5089,6.5782,6.582,6.5782,6.5782,6.5667,6.5551,6.5705,6.5782,6.5667,6.559,6.5628,6.559,6.5628,6.5397,6.5551,6.559,6.559,6.5397,6.5628,6.5628,6.532,6.5743,6.5436,6.5474,6.5628,6.5436,6.5436,6.5051,6.4512,6.3858,6.3897,6.3897,6.3705,6.3435,6.3358,6.3166,6.2935,6.282,6.2551,6.232,6.2127,6.1743,6.1396,6.105,6.1012,6.0973,6.0896,6.0858,6.0647,6.0338,6.0132,5.9977,5.9625,5.9321,5.9365,5.9891,6.0866,6.1582,6.2105,6.2571,6.3028,6.3214,6.3084,6.2794,6.2708,6.2658,6.2585,6.2622,6.2218,6.1741,6.1484,6.1263,6.1006,6.0713,6.0236,5.9883,5.9578,5.8972,5.8159,5.7388,5.6595,5.586,5.4399,5.3415,5.2882,5.2588,5.2191,5.1758,5.1553,5.1349,5.1217,5.098,5.0541,5.0371,5.0004,4.9416,4.8596,4.7098,4.5778,4.4312,4.3777,4.3828,4.3629,4.3359,4.3329,4.325,4.325,4.2379,6.5897,6.5897,6.5897,6.5897,6.5859,6.5628,6.5667,6.5897,6.5897,6.5897,6.5897,6.5897,6.6051,6.5897,6.5897,6.5936,6.5936,6.5897,6.5859,6.5936,6.6167,6.5974,6.5936,6.6013,6.5936,6.5974,6.5974,6.609,6.5974,6.5974,6.6013,6.5859,6.6128,6.6051,6.5859,6.5397,6.5205,6.5013,6.4974,6.4628,6.432,6.4243,6.3974,6.3666,6.3551,6.3281,6.3089,6.2974,6.2666,6.2551,6.2512,6.2551,6.2589,6.205,6.1502,6.0321,5.9916,5.9592,5.9526,5.9139,5.8796,5.8632,5.8888,5.9116,5.9893,6.0796,6.1604,6.2253,6.2909,6.288,6.2855,6.2805,6.2805,6.2805,6.2805,6.2622,6.2218,6.2181,6.1924,6.1814,6.152,6.0982,6.0713,6.0208,5.9559,5.8844,5.8018,5.7078,5.6078,5.4627,5.3788,5.3247,5.2909,5.2672,5.2638,5.2401,5.2164,5.1961,5.1725,5.1454,5.1017,5.0615,5.002,4.8827,4.6988,4.5329,4.3693,4.3569,4.3838,4.3599,4.3329,4.3329,4.325,4.325,4.2812,6.6359,6.6397,6.6782,6.6898,6.6898,6.6898,6.6898,6.6821,6.6551,6.6513,6.6859,6.6936,6.6898,6.6974,6.6974,6.6974,6.6974,6.7051,6.7051,6.7051,6.6821,6.6821,6.6744,6.6705,6.6859,6.6744,6.6782,6.709,6.6821,6.6859,6.6936,6.6974,6.6898,6.6859,6.6821,6.659,6.6359,6.6167,6.5974,6.559,6.5282,6.5051,6.4743,6.4397,6.4282,6.4128,6.3858,6.382,6.3666,6.3309,6.3207,6.3012,6.2881,6.2289,6.184,6.0752,6.0071,5.9778,5.959,5.8825,5.854,5.8375,5.8186,5.8391,5.9044,5.9946,6.0819,6.1654,6.2341,6.2805,6.2805,6.2805,6.2805,6.2805,6.2805,6.2805,6.2768,6.2768,6.2732,6.2658,6.2228,6.1689,6.1208,6.0747,5.9871,5.8745,5.7744,5.6902,5.6024,5.494,5.433,5.3957,5.3619,5.3315,5.3281,5.3179,5.2942,5.2706,5.2672,5.2334,5.1794,5.0894,4.9986,4.8447,4.6728,4.5233,4.4028,4.3748,4.3838,4.3629,4.3479,4.3419,4.3419,4.325,4.2592,6.7205,6.7282,6.809,6.8282,6.8398,6.8282,6.8321,6.8436,6.7705,6.7667,6.8244,6.8321,6.8205,6.8013,6.8013,6.8052,6.8013,6.7975,6.7936,6.8359,6.8052,6.7821,6.7602,6.8025,6.7821,6.7871,6.791,6.7898,6.8205,6.809,6.7975,6.8398,6.8205,6.8052,6.7898,6.7475,6.7244,6.7128,6.6744,6.6244,6.5897,6.582,6.5897,6.5782,6.5628,6.5474,6.4897,6.4551,6.4359,6.3655,6.3187,6.3032,6.2585,6.2243,6.1917,6.1356,6.0481,6.0091,5.9664,5.9028,5.8436,5.8235,5.8033,5.807,5.8621,5.9391,6.0309,6.0933,6.1594,6.2218,6.2365,6.2695,6.2805,6.2805,6.2805,6.2805,6.2805,6.2805,6.2805,6.2768,6.2645,6.2091,6.1461,6.0992,6.0289,5.8689,5.7838,5.7124,5.6299,5.5448,5.5041,5.4769,5.4465,5.4126,5.3788,5.3687,5.3551,5.345,5.3382,5.3112,5.257,5.1289,4.9791,4.8318,4.6749,4.583,4.4851,4.4599,4.4257,4.4047,4.3868,4.3629,4.3509,4.3539,4.2882,6.809,6.809,6.8321,6.8398,6.8398,6.8398,6.8821,6.936,6.9206,6.8821,6.8475,6.8436,6.8475,6.8629,6.8629,6.8629,6.8552,6.8744,6.8436,6.8552,6.859,6.8552,6.7948,6.8513,6.8629,6.8667,6.8629,6.859,6.8667,6.859,6.8475,6.8475,6.8552,6.8667,6.8629,6.8205,6.809,6.8052,6.7614,6.6884,6.6154,6.5949,6.5897,6.5897,6.582,6.5795,6.5449,6.5449,6.5436,6.5231,6.4776,6.4057,6.3078,6.2557,6.1939,6.133,6.0759,6.0461,6.0066,5.9532,5.9034,5.8694,5.851,5.8143,5.8327,5.9061,5.9722,6.0236,6.0823,6.1484,6.2071,6.2438,6.2805,6.2805,6.2805,6.2805,6.2805,6.2805,6.2805,6.2805,6.2805,6.2324,6.1715,6.1019,6.0377,5.9685,5.9068,5.8324,5.7494,5.663,5.6021,5.575,5.5446,5.5074,5.46,5.4296,5.4228,5.3957,5.3822,5.3551,5.318,5.1822,5.0294,4.8523,4.7009,4.6264,4.5707,4.5177,4.4915,4.4616,4.4496,4.4317,4.4167,4.4137,4.3369,6.8733,6.9013,6.936,6.9513,6.9513,6.9513,6.9783,7.0167,7.0244,6.9975,6.9552,6.9513,6.9513,6.9475,6.9513,6.9436,6.9436,6.9552,6.9667,6.959,6.936,6.9475,6.9321,6.9244,6.9629,6.9783,6.9667,6.959,6.9398,6.9552,6.959,6.9436,6.9436,6.9436,6.9398,6.9206,6.8975,6.8975,6.8493,6.763,6.6633,6.6496,6.6179,6.609,6.5872,6.5858,6.5569,6.5503,6.5388,6.513,6.4547,6.3913,6.3089,6.2695,6.2373,6.1911,6.1429,6.0933,6.0713,6.0309,5.9758,5.9538,5.9428,5.9208,5.8657,5.9281,5.9318,5.9832,6.0419,6.1043,6.1594,6.2034,6.2475,6.2658,6.2768,6.2805,6.2805,6.2805,6.2805,6.2805,6.2464,6.1715,6.1055,6.0238,5.9569,5.8874,5.853,5.8599,5.7933,5.7577,5.7036,5.663,5.6258,5.5818,5.5277,5.5074,5.5006,5.4702,5.4329,5.385,5.3439,5.2179,5.0725,4.8983,4.7781,4.7079,4.6516,4.595,4.5454,4.5065,4.5065,4.5095,4.4915,4.4736,4.4287,6.912,6.9577,7.0182,7.0489,7.0527,7.0489,7.0422,7.0422,7.0489,7.0422,7.0277,7.0392,7.071,7.0898,7.0898,7.0898,7.0783,7.0475,7.0667,7.0706,7.0706,7.0398,7.0475,7.0706,7.0667,7.0629,7.0591,7.0629,7.0591,7.0591,7.0552,7.086,7.0898,7.086,7.0667,7.0321,6.986,6.9651,6.9126,6.8304,6.776,6.7323,6.6663,6.6249,6.597,6.5762,6.5474,6.5161,6.4958,6.4558,6.4172,6.3512,6.3104,6.2781,6.2769,6.2426,6.2095,6.1814,6.1594,6.1043,6.0713,6.0529,6.0493,6.0126,5.9538,5.9391,5.9428,5.9612,6.0199,6.0456,6.1006,6.152,6.1961,6.2475,6.2622,6.2805,6.2805,6.2805,6.2755,6.2755,6.2129,6.14,6.0484,5.9669,5.9011,5.8246,5.7881,5.7881,5.7848,5.778,5.7509,5.7205,5.6934,5.6461,5.5953,5.5818,5.5784,5.5378,5.497,5.4305,5.3606,5.2693,5.1392,4.9599,4.8471,4.7834,4.7183,4.6556,4.6052,4.5693,4.5873,4.5963,4.5574,4.5424,4.5334,6.8868,6.8413,6.8602,6.8678,6.8678,6.8678,6.8603,6.864,6.8753,6.8603,6.9053,6.9473,7.0026,7.0898,7.0898,7.0898,7.0898,7.0909,7.0909,7.086,7.1112,7.1025,7.0882,7.0873,7.0909,7.0909,7.0882,7.0832,7.0622,7.0681,7.0871,7.0777,7.0843,7.0843,7.0832,7.0536,7.0335,7.0124,7.0017,6.9413,6.8629,6.7926,6.6974,6.6634,6.6634,6.6597,6.6371,6.5804,6.5578,6.5045,6.4337,6.3613,6.3235,6.3062,6.2989,6.2952,6.2622,6.2475,6.2144,6.1704,6.1447,6.1337,6.1153,6.0639,6.0236,6.0162,6.0126,5.9942,6.0199,5.9795,6.0162,6.0639,6.1117,6.1851,6.2218,6.2585,6.2768,6.2705,6.2654,6.2567,6.2271,6.1343,6.0397,5.9704,5.9145,5.8458,5.7881,5.7881,5.7881,5.7881,5.7881,5.7679,5.7442,5.7171,5.6731,5.6596,5.6461,5.6089,5.5609,5.5046,5.4276,5.3386,5.1944,5.0191,4.9109,4.8407,4.7782,4.713,4.695,4.6711,4.689,4.689,4.6411,4.6082,4.6022]}]]